Wetterdaten: Mittwoch, 05.10.2022
Datum Zeit Temp. 2m Temp +5 cm Feuchte A. Luftdruck Regen Wind Richtung Richtung Sonnenschein UV Solar Taupunkt Windchill Windben
05.10.2022 00:00 8,0 C 5,6 C 93 % 1023,0 hPa 0,0 l/m 3,2 km/h (1 Bft) S 180 0 min 0,0 UV-I 0 W/m 6,9 C 8,0 C 8,0 km/h (2 Bft)
05.10.2022 00:01 8,1 C 5,0 C 93 % 1022,9 hPa 0,0 l/m 4,8 km/h (1 Bft) S 180 0 min 0,0 UV-I 0 W/m 7,0 C 8,1 C 6,4 km/h (2 Bft)
05.10.2022 00:02 8,1 C 5,0 C 93 % 1023,0 hPa 0,0 l/m 3,2 km/h (1 Bft) S 180 0 min 0,0 UV-I 0 W/m 7,0 C 8,1 C 6,4 km/h (2 Bft)
05.10.2022 00:03 7,8 C 5,0 C 93 % 1022,8 hPa 0,0 l/m 3,2 km/h (1 Bft) S 180 0 min 0,0 UV-I 0 W/m 6,7 C 7,8 C 6,4 km/h (2 Bft)
05.10.2022 00:04 7,6 C 5,0 C 92 % 1022,9 hPa 0,0 l/m 3,2 km/h (1 Bft) S 180 0 min 0,0 UV-I 0 W/m 6,4 C 7,6 C 6,4 km/h (2 Bft)
05.10.2022 00:05 7,4 C 5,0 C 92 % 1022,8 hPa 0,0 l/m 4,8 km/h (1 Bft) S 180 0 min 0,0 UV-I 0 W/m 6,2 C 7,4 C 9,7 km/h (2 Bft)
05.10.2022 00:06 7,4 C 5,0 C 92 % 1022,9 hPa 0,0 l/m 6,4 km/h (2 Bft) S 180 0 min 0,0 UV-I 0 W/m 6,2 C 7,4 C 12,9 km/h (3 Bft)
05.10.2022 00:07 7,4 C 4,4 C 92 % 1022,9 hPa 0,0 l/m 6,4 km/h (2 Bft) S-SO 157 0 min 0,0 UV-I 0 W/m 6,2 C 7,4 C 8,0 km/h (2 Bft)
05.10.2022 00:08 7,3 C 4,4 C 92 % 1022,8 hPa 0,0 l/m 4,8 km/h (1 Bft) S-SO 157 0 min 0,0 UV-I 0 W/m 6,1 C 7,3 C 8,0 km/h (2 Bft)
05.10.2022 00:09 7,2 C 4,4 C 92 % 1022,8 hPa 0,0 l/m 3,2 km/h (1 Bft) S 180 0 min 0,0 UV-I 0 W/m 6,0 C 7,2 C 6,4 km/h (2 Bft)
05.10.2022 00:10 7,2 C 4,4 C 92 % 1022,7 hPa 0,0 l/m 6,4 km/h (2 Bft) S-SO 157 0 min 0,0 UV-I 0 W/m 6,0 C 7,2 C 8,0 km/h (2 Bft)
05.10.2022 00:11 7,3 C 4,4 C 92 % 1022,7 hPa 0,0 l/m 4,8 km/h (1 Bft) S-SO 157 0 min 0,0 UV-I 0 W/m 6,1 C 7,3 C 6,4 km/h (2 Bft)
05.10.2022 00:12 7,4 C 4,4 C 93 % 1022,7 hPa 0,0 l/m 4,8 km/h (1 Bft) S 180 0 min 0,0 UV-I 0 W/m 6,3 C 7,4 C 8,0 km/h (2 Bft)
05.10.2022 00:13 7,4 C 4,4 C 93 % 1022,8 hPa 0,0 l/m 6,4 km/h (2 Bft) S 180 0 min 0,0 UV-I 0 W/m 6,3 C 7,4 C 9,7 km/h (2 Bft)
05.10.2022 00:14 7,6 C 4,4 C 93 % 1022,8 hPa 0,0 l/m 8,0 km/h (2 Bft) S 180 0 min 0,0 UV-I 0 W/m 6,5 C 6,3 C 11,3 km/h (2 Bft)
05.10.2022 00:15 7,8 C 5,0 C 93 % 1022,8 hPa 0,0 l/m 4,8 km/h (1 Bft) S 180 0 min 0,0 UV-I 0 W/m 6,7 C 7,8 C 9,7 km/h (2 Bft)
05.10.2022 00:16 7,7 C 5,0 C 93 % 1022,7 hPa 0,0 l/m 4,8 km/h (1 Bft) S-SO 157 0 min 0,0 UV-I 0 W/m 6,6 C 7,7 C 8,0 km/h (2 Bft)
05.10.2022 00:17 7,8 C 5,0 C 93 % 1022,7 hPa 0,0 l/m 6,4 km/h (2 Bft) S-SO 157 0 min 0,0 UV-I 0 W/m 6,7 C 7,8 C 8,0 km/h (2 Bft)
05.10.2022 00:18 7,8 C 5,0 C 93 % 1022,6 hPa 0,0 l/m 6,4 km/h (2 Bft) S 180 0 min 0,0 UV-I 0 W/m 6,7 C 7,8 C 9,7 km/h (2 Bft)
05.10.2022 00:19 7,9 C 5,0 C 93 % 1022,7 hPa 0,0 l/m 6,4 km/h (2 Bft) S-SO 157 0 min 0,0 UV-I 0 W/m 6,8 C 7,9 C 8,0 km/h (2 Bft)
05.10.2022 00:20 7,9 C 5,0 C 93 % 1022,6 hPa 0,0 l/m 6,4 km/h (2 Bft) S-SO 157 0 min 0,0 UV-I 0 W/m 6,8 C 7,9 C 9,7 km/h (2 Bft)
05.10.2022 00:21 7,9 C 5,0 C 93 % 1022,7 hPa 0,0 l/m 6,4 km/h (2 Bft) S-SO 157 0 min 0,0 UV-I 0 W/m 6,8 C 7,9 C 8,0 km/h (2 Bft)
05.10.2022 00:22 7,9 C 5,0 C 93 % 1022,7 hPa 0,0 l/m 4,8 km/h (1 Bft) S 180 0 min 0,0 UV-I 0 W/m 6,8 C 7,9 C 6,4 km/h (2 Bft)
05.10.2022 00:23 8,0 C 5,0 C 93 % 1022,7 hPa 0,0 l/m 4,8 km/h (1 Bft) S 180 0 min 0,0 UV-I 0 W/m 6,9 C 8,0 C 6,4 km/h (2 Bft)
05.10.2022 00:24 8,1 C 5,0 C 93 % 1022,7 hPa 0,0 l/m 4,8 km/h (1 Bft) S 180 0 min 0,0 UV-I 0 W/m 7,0 C 8,1 C 6,4 km/h (2 Bft)
05.10.2022 00:25 7,9 C 5,0 C 92 % 1022,7 hPa 0,0 l/m 4,8 km/h (1 Bft) S 180 0 min 0,0 UV-I 0 W/m 6,7 C 7,9 C 6,4 km/h (2 Bft)
05.10.2022 00:26 7,9 C 5,0 C 92 % 1022,6 hPa 0,0 l/m 4,8 km/h (1 Bft) S 180 0 min 0,0 UV-I 0 W/m 6,7 C 7,9 C 9,7 km/h (2 Bft)
05.10.2022 00:27 7,9 C 5,0 C 92 % 1022,7 hPa 0,0 l/m 4,8 km/h (1 Bft) S 180 0 min 0,0 UV-I 0 W/m 6,7 C 7,9 C 8,0 km/h (2 Bft)
05.10.2022 00:28 8,0 C 5,0 C 93 % 1022,6 hPa 0,0 l/m 3,2 km/h (1 Bft) S 180 0 min 0,0 UV-I 0 W/m 6,9 C 8,0 C 6,4 km/h (2 Bft)
05.10.2022 00:29 8,1 C 5,0 C 93 % 1022,7 hPa 0,0 l/m 3,2 km/h (1 Bft) S 180 0 min 0,0 UV-I 0 W/m 7,0 C 8,1 C 4,8 km/h (1 Bft)
05.10.2022 00:30 8,1 C 5,0 C 93 % 1022,7 hPa 0,0 l/m 4,8 km/h (1 Bft) S 180 0 min 0,0 UV-I 0 W/m 7,0 C 8,1 C 4,8 km/h (1 Bft)
05.10.2022 00:31 8,1 C 5,0 C 92 % 1022,7 hPa 0,0 l/m 4,8 km/h (1 Bft) S 180 0 min 0,0 UV-I 0 W/m 6,9 C 8,1 C 6,4 km/h (2 Bft)
05.10.2022 00:32 8,1 C 5,0 C 92 % 1022,6 hPa 0,0 l/m 4,8 km/h (1 Bft) S 180 0 min 0,0 UV-I 0 W/m 6,9 C 8,1 C 6,4 km/h (2 Bft)
05.10.2022 00:33 8,3 C 5,6 C 93 % 1022,6 hPa 0,0 l/m 3,2 km/h (1 Bft) S 180 0 min 0,0 UV-I 0 W/m 7,2 C 8,3 C 4,8 km/h (1 Bft)
05.10.2022 00:34 8,4 C 5,6 C 93 % 1022,6 hPa 0,0 l/m 4,8 km/h (1 Bft) S 180 0 min 0,0 UV-I 0 W/m 7,3 C 8,4 C 8,0 km/h (2 Bft)
05.10.2022 00:35 8,4 C 5,6 C 93 % 1022,7 hPa 0,0 l/m 4,8 km/h (1 Bft) S-SW 202 0 min 0,0 UV-I 0 W/m 7,3 C 8,4 C 6,4 km/h (2 Bft)
05.10.2022 00:36 8,6 C 5,6 C 93 % 1022,7 hPa 0,0 l/m 4,8 km/h (1 Bft) S-SW 202 0 min 0,0 UV-I 0 W/m 7,5 C 8,6 C 6,4 km/h (2 Bft)
05.10.2022 00:37 8,6 C 5,6 C 93 % 1022,7 hPa 0,0 l/m 4,8 km/h (1 Bft) S-SW 202 0 min 0,0 UV-I 0 W/m 7,5 C 8,6 C 8,0 km/h (2 Bft)
05.10.2022 00:38 8,6 C 5,6 C 93 % 1022,7 hPa 0,0 l/m 4,8 km/h (1 Bft) S-SW 202 0 min 0,0 UV-I 0 W/m 7,5 C 8,6 C 6,4 km/h (2 Bft)
05.10.2022 00:39 8,6 C 5,6 C 92 % 1022,7 hPa 0,0 l/m 4,8 km/h (1 Bft) S-SW 202 0 min 0,0 UV-I 0 W/m 7,4 C 8,6 C 6,4 km/h (2 Bft)
05.10.2022 00:40 8,6 C 5,6 C 92 % 1022,8 hPa 0,0 l/m 4,8 km/h (1 Bft) S-SW 202 0 min 0,0 UV-I 0 W/m 7,4 C 8,6 C 6,4 km/h (2 Bft)
05.10.2022 00:41 8,5 C 5,6 C 92 % 1022,7 hPa 0,0 l/m 6,4 km/h (2 Bft) S-SW 202 0 min 0,0 UV-I 0 W/m 7,3 C 8,5 C 8,0 km/h (2 Bft)
05.10.2022 00:42 8,6 C 5,6 C 92 % 1022,7 hPa 0,0 l/m 4,8 km/h (1 Bft) S-SW 202 0 min 0,0 UV-I 0 W/m 7,4 C 8,6 C 8,0 km/h (2 Bft)
05.10.2022 00:43 8,6 C 5,6 C 92 % 1022,6 hPa 0,0 l/m 6,4 km/h (2 Bft) S-SW 202 0 min 0,0 UV-I 0 W/m 7,4 C 8,6 C 8,0 km/h (2 Bft)
05.10.2022 00:44 8,7 C 6,1 C 92 % 1022,7 hPa 0,0 l/m 6,4 km/h (2 Bft) S-SW 202 0 min 0,0 UV-I 0 W/m 7,5 C 8,7 C 8,0 km/h (2 Bft)
05.10.2022 00:45 8,7 C 6,1 C 92 % 1022,6 hPa 0,0 l/m 6,4 km/h (2 Bft) S-SW 202 0 min 0,0 UV-I 0 W/m 7,5 C 8,7 C 8,0 km/h (2 Bft)
05.10.2022 00:46 8,8 C 6,1 C 92 % 1022,7 hPa 0,0 l/m 4,8 km/h (1 Bft) S-SW 202 0 min 0,0 UV-I 0 W/m 7,6 C 8,8 C 6,4 km/h (2 Bft)
05.10.2022 00:47 8,8 C 6,1 C 92 % 1022,7 hPa 0,0 l/m 4,8 km/h (1 Bft) S-SW 202 0 min 0,0 UV-I 0 W/m 7,6 C 8,8 C 6,4 km/h (2 Bft)
05.10.2022 00:48 8,8 C 6,1 C 92 % 1022,7 hPa 0,0 l/m 4,8 km/h (1 Bft) S-SW 202 0 min 0,0 UV-I 0 W/m 7,6 C 8,8 C 6,4 km/h (2 Bft)
05.10.2022 00:49 8,8 C 6,1 C 92 % 1022,6 hPa 0,0 l/m 4,8 km/h (1 Bft) S-SW 202 0 min 0,0 UV-I 0 W/m 7,6 C 8,8 C 6,4 km/h (2 Bft)
05.10.2022 00:50 8,9 C 6,1 C 92 % 1022,6 hPa 0,0 l/m 3,2 km/h (1 Bft) S-SW 202 0 min 0,0 UV-I 0 W/m 7,7 C 8,9 C 4,8 km/h (1 Bft)
05.10.2022 00:51 8,9 C 6,1 C 92 % 1022,6 hPa 0,0 l/m 4,8 km/h (1 Bft) S-SW 202 0 min 0,0 UV-I 0 W/m 7,7 C 8,9 C 4,8 km/h (1 Bft)
05.10.2022 00:52 8,9 C 6,1 C 92 % 1022,6 hPa 0,0 l/m 3,2 km/h (1 Bft) S-SW 202 0 min 0,0 UV-I 0 W/m 7,7 C 8,9 C 4,8 km/h (1 Bft)
05.10.2022 00:53 8,9 C 6,1 C 92 % 1022,5 hPa 0,0 l/m 4,8 km/h (1 Bft) S-SW 202 0 min 0,0 UV-I 0 W/m 7,7 C 8,9 C 8,0 km/h (2 Bft)
05.10.2022 00:54 8,9 C 6,1 C 92 % 1022,5 hPa 0,0 l/m 4,8 km/h (1 Bft) S 180 0 min 0,0 UV-I 0 W/m 7,7 C 8,9 C 6,4 km/h (2 Bft)
05.10.2022 00:55 8,9 C 6,1 C 92 % 1022,5 hPa 0,0 l/m 6,4 km/h (2 Bft) S 180 0 min 0,0 UV-I 0 W/m 7,7 C 8,9 C 8,0 km/h (2 Bft)
05.10.2022 00:56 9,0 C 6,1 C 92 % 1022,5 hPa 0,0 l/m 4,8 km/h (1 Bft) S 180 0 min 0,0 UV-I 0 W/m 7,8 C 9,0 C 6,4 km/h (2 Bft)
05.10.2022 00:57 9,1 C 6,7 C 92 % 1022,5 hPa 0,0 l/m 4,8 km/h (1 Bft) S 180 0 min 0,0 UV-I 0 W/m 7,9 C 9,1 C 6,4 km/h (2 Bft)
05.10.2022 00:58 9,2 C 6,7 C 92 % 1022,5 hPa 0,0 l/m 4,8 km/h (1 Bft) S 180 0 min 0,0 UV-I 0 W/m 8,0 C 9,2 C 8,0 km/h (2 Bft)
05.10.2022 00:59 9,3 C 7,2 C 92 % 1022,4 hPa 0,0 l/m 8,0 km/h (2 Bft) S-SW 202 0 min 0,0 UV-I 0 W/m 8,1 C 8,1 C 11,3 km/h (2 Bft)
05.10.2022 01:00 9,4 C 7,2 C 92 % 1022,4 hPa 0,0 l/m 8,0 km/h (2 Bft) S-SW 202 0 min 0,0 UV-I 0 W/m 8,2 C 8,2 C 11,3 km/h (2 Bft)
05.10.2022 01:01 9,4 C 7,2 C 92 % 1022,4 hPa 0,0 l/m 8,0 km/h (2 Bft) S-SW 202 0 min 0,0 UV-I 0 W/m 8,2 C 8,2 C 11,3 km/h (2 Bft)
05.10.2022 01:02 9,5 C 7,8 C 92 % 1022,4 hPa 0,0 l/m 9,7 km/h (2 Bft) S-SW 202 0 min 0,0 UV-I 0 W/m 8,3 C 7,2 C 11,3 km/h (2 Bft)
05.10.2022 01:03 9,6 C 7,8 C 92 % 1022,4 hPa 0,0 l/m 9,7 km/h (2 Bft) S-SW 202 0 min 0,0 UV-I 0 W/m 8,4 C 7,3 C 11,3 km/h (2 Bft)
05.10.2022 01:04 9,6 C 7,8 C 92 % 1022,4 hPa 0,0 l/m 9,7 km/h (2 Bft) S-SW 202 0 min 0,0 UV-I 0 W/m 8,4 C 7,3 C 12,9 km/h (3 Bft)
05.10.2022 01:05 9,7 C 7,8 C 92 % 1022,4 hPa 0,0 l/m 8,0 km/h (2 Bft) S-SW 202 0 min 0,0 UV-I 0 W/m 8,5 C 8,5 C 12,9 km/h (3 Bft)
05.10.2022 01:06 9,7 C 7,8 C 92 % 1022,4 hPa 0,0 l/m 8,0 km/h (2 Bft) S-SW 202 0 min 0,0 UV-I 0 W/m 8,5 C 8,5 C 9,7 km/h (2 Bft)
05.10.2022 01:07 9,8 C 7,8 C 92 % 1022,2 hPa 0,0 l/m 6,4 km/h (2 Bft) S-SW 202 0 min 0,0 UV-I 0 W/m 8,6 C 9,8 C 9,7 km/h (2 Bft)
05.10.2022 01:08 9,7 C 7,8 C 92 % 1022,2 hPa 0,0 l/m 6,4 km/h (2 Bft) S-SW 202 0 min 0,0 UV-I 0 W/m 8,5 C 9,7 C 11,3 km/h (2 Bft)
05.10.2022 01:09 9,7 C 7,8 C 91 % 1022,2 hPa 0,0 l/m 4,8 km/h (1 Bft) S-SW 202 0 min 0,0 UV-I 0 W/m 8,3 C 9,7 C 6,4 km/h (2 Bft)
05.10.2022 01:10 9,7 C 7,8 C 91 % 1022,3 hPa 0,0 l/m 6,4 km/h (2 Bft) S-SW 202 0 min 0,0 UV-I 0 W/m 8,3 C 9,7 C 8,0 km/h (2 Bft)
05.10.2022 01:11 9,6 C 7,8 C 91 % 1022,2 hPa 0,0 l/m 6,4 km/h (2 Bft) S-SW 202 0 min 0,0 UV-I 0 W/m 8,2 C 9,6 C 6,4 km/h (2 Bft)
05.10.2022 01:12 9,6 C 7,8 C 91 % 1022,2 hPa 0,0 l/m 6,4 km/h (2 Bft) S-SW 202 0 min 0,0 UV-I 0 W/m 8,2 C 9,6 C 9,7 km/h (2 Bft)
05.10.2022 01:13 9,6 C 7,8 C 91 % 1022,1 hPa 0,0 l/m 4,8 km/h (1 Bft) SW 225 0 min 0,0 UV-I 0 W/m 8,2 C 9,6 C 6,4 km/h (2 Bft)
05.10.2022 01:14 9,5 C 7,8 C 91 % 1022,2 hPa 0,0 l/m 4,8 km/h (1 Bft) SW 225 0 min 0,0 UV-I 0 W/m 8,1 C 9,5 C 9,7 km/h (2 Bft)
05.10.2022 01:15 9,5 C 7,8 C 91 % 1022,2 hPa 0,0 l/m 4,8 km/h (1 Bft) SW 225 0 min 0,0 UV-I 0 W/m 8,1 C 9,5 C 6,4 km/h (2 Bft)
05.10.2022 01:16 9,5 C 7,8 C 91 % 1022,2 hPa 0,0 l/m 4,8 km/h (1 Bft) S-SW 202 0 min 0,0 UV-I 0 W/m 8,1 C 9,5 C 8,0 km/h (2 Bft)
05.10.2022 01:17 9,6 C 7,8 C 91 % 1022,3 hPa 0,0 l/m 8,0 km/h (2 Bft) S-SW 202 0 min 0,0 UV-I 0 W/m 8,2 C 8,4 C 9,7 km/h (2 Bft)
05.10.2022 01:18 9,6 C 7,8 C 91 % 1022,2 hPa 0,0 l/m 6,4 km/h (2 Bft) SW 225 0 min 0,0 UV-I 0 W/m 8,2 C 9,6 C 9,7 km/h (2 Bft)
05.10.2022 01:19 9,6 C 7,8 C 91 % 1022,2 hPa 0,0 l/m 6,4 km/h (2 Bft) SW 225 0 min 0,0 UV-I 0 W/m 8,2 C 9,6 C 9,7 km/h (2 Bft)
05.10.2022 01:20 9,6 C 7,8 C 91 % 1022,2 hPa 0,0 l/m 6,4 km/h (2 Bft) S-SW 202 0 min 0,0 UV-I 0 W/m 8,2 C 9,6 C 8,0 km/h (2 Bft)
05.10.2022 01:21 9,6 C 7,8 C 91 % 1022,2 hPa 0,0 l/m 6,4 km/h (2 Bft) SW 225 0 min 0,0 UV-I 0 W/m 8,2 C 9,6 C 8,0 km/h (2 Bft)
05.10.2022 01:22 9,6 C 7,8 C 91 % 1022,2 hPa 0,0 l/m 6,4 km/h (2 Bft) S-SW 202 0 min 0,0 UV-I 0 W/m 8,2 C 9,6 C 8,0 km/h (2 Bft)
05.10.2022 01:23 9,6 C 7,8 C 91 % 1022,1 hPa 0,0 l/m 6,4 km/h (2 Bft) S-SW 202 0 min 0,0 UV-I 0 W/m 8,2 C 9,6 C 8,0 km/h (2 Bft)
05.10.2022 01:24 9,5 C 7,8 C 91 % 1022,1 hPa 0,0 l/m 6,4 km/h (2 Bft) S-SW 202 0 min 0,0 UV-I 0 W/m 8,1 C 9,5 C 9,7 km/h (2 Bft)
05.10.2022 01:25 9,6 C 7,8 C 91 % 1022,1 hPa 0,0 l/m 6,4 km/h (2 Bft) S-SW 202 0 min 0,0 UV-I 0 W/m 8,2 C 9,6 C 8,0 km/h (2 Bft)
05.10.2022 01:26 9,5 C 7,8 C 91 % 1022,1 hPa 0,0 l/m 4,8 km/h (1 Bft) S-SW 202 0 min 0,0 UV-I 0 W/m 8,1 C 9,5 C 8,0 km/h (2 Bft)
05.10.2022 01:27 9,5 C 7,8 C 91 % 1022,1 hPa 0,0 l/m 3,2 km/h (1 Bft) S-SW 202 0 min 0,0 UV-I 0 W/m 8,1 C 9,5 C 6,4 km/h (2 Bft)
05.10.2022 01:28 9,4 C 7,2 C 90 % 1022,1 hPa 0,0 l/m 6,4 km/h (2 Bft) S-SW 202 0 min 0,0 UV-I 0 W/m 7,8 C 9,4 C 9,7 km/h (2 Bft)
05.10.2022 01:29 9,4 C 7,2 C 90 % 1022,1 hPa 0,0 l/m 6,4 km/h (2 Bft) S-SW 202 0 min 0,0 UV-I 0 W/m 7,8 C 9,4 C 8,0 km/h (2 Bft)
05.10.2022 01:30 9,4 C 7,2 C 90 % 1022,0 hPa 0,0 l/m 8,0 km/h (2 Bft) S-SW 202 0 min 0,0 UV-I 0 W/m 7,8 C 8,2 C 9,7 km/h (2 Bft)
05.10.2022 01:31 9,4 C 7,2 C 91 % 1022,1 hPa 0,0 l/m 6,4 km/h (2 Bft) S 180 0 min 0,0 UV-I 0 W/m 8,0 C 9,4 C 8,0 km/h (2 Bft)
05.10.2022 01:32 9,4 C 7,2 C 91 % 1022,1 hPa 0,0 l/m 8,0 km/h (2 Bft) S 180 0 min 0,0 UV-I 0 W/m 8,0 C 8,2 C 14,5 km/h (3 Bft)
05.10.2022 01:33 9,4 C 7,2 C 91 % 1022,1 hPa 0,0 l/m 9,7 km/h (2 Bft) S-SO 157 0 min 0,0 UV-I 0 W/m 8,0 C 7,1 C 12,9 km/h (3 Bft)
05.10.2022 01:34 9,6 C 7,8 C 91 % 1022,1 hPa 0,0 l/m 9,7 km/h (2 Bft) S 180 0 min 0,0 UV-I 0 W/m 8,2 C 7,3 C 12,9 km/h (3 Bft)
05.10.2022 01:35 9,7 C 7,8 C 91 % 1022,0 hPa 0,0 l/m 11,3 km/h (2 Bft) S-SO 157 0 min 0,0 UV-I 0 W/m 8,3 C 6,5 C 14,5 km/h (3 Bft)
05.10.2022 01:36 9,8 C 8,3 C 92 % 1022,0 hPa 0,0 l/m 9,7 km/h (2 Bft) S 180 0 min 0,0 UV-I 0 W/m 8,6 C 7,6 C 14,5 km/h (3 Bft)
05.10.2022 01:37 10,0 C 8,3 C 91 % 1022,1 hPa 0,0 l/m 9,7 km/h (2 Bft) S 180 0 min 0,0 UV-I 0 W/m 8,6 C 7,8 C 14,5 km/h (3 Bft)
05.10.2022 01:38 10,1 C 8,3 C 91 % 1022,0 hPa 0,0 l/m 9,7 km/h (2 Bft) S 180 0 min 0,0 UV-I 0 W/m 8,7 C 7,9 C 19,3 km/h (3 Bft)
05.10.2022 01:39 10,2 C 8,3 C 91 % 1022,0 hPa 0,0 l/m 9,7 km/h (2 Bft) S 180 0 min 0,0 UV-I 0 W/m 8,8 C 8,0 C 17,7 km/h (3 Bft)
05.10.2022 01:40 10,2 C 8,9 C 91 % 1022,0 hPa 0,0 l/m 11,3 km/h (2 Bft) S 180 0 min 0,0 UV-I 0 W/m 8,8 C 7,1 C 19,3 km/h (3 Bft)
05.10.2022 01:41 10,3 C 8,9 C 91 % 1022,0 hPa 0,0 l/m 11,3 km/h (2 Bft) S 180 0 min 0,0 UV-I 0 W/m 8,9 C 7,2 C 19,3 km/h (3 Bft)
05.10.2022 01:42 10,4 C 8,9 C 91 % 1021,9 hPa 0,0 l/m 8,0 km/h (2 Bft) S 180 0 min 0,0 UV-I 0 W/m 9,0 C 9,3 C 11,3 km/h (2 Bft)
05.10.2022 01:43 10,4 C 8,9 C 90 % 1022,0 hPa 0,0 l/m 8,0 km/h (2 Bft) S 180 0 min 0,0 UV-I 0 W/m 8,8 C 9,3 C 11,3 km/h (2 Bft)
05.10.2022 01:44 10,4 C 8,9 C 90 % 1022,1 hPa 0,0 l/m 8,0 km/h (2 Bft) S 180 0 min 0,0 UV-I 0 W/m 8,8 C 9,3 C 12,9 km/h (3 Bft)
05.10.2022 01:45 10,5 C 8,9 C 90 % 1022,0 hPa 0,0 l/m 11,3 km/h (2 Bft) S 180 0 min 0,0 UV-I 0 W/m 8,9 C 7,4 C 17,7 km/h (3 Bft)
05.10.2022 01:46 10,5 C 8,9 C 90 % 1022,1 hPa 0,0 l/m 8,0 km/h (2 Bft) S 180 0 min 0,0 UV-I 0 W/m 8,9 C 9,4 C 14,5 km/h (3 Bft)
05.10.2022 01:47 10,5 C 8,9 C 90 % 1022,2 hPa 0,0 l/m 8,0 km/h (2 Bft) S-SW 202 0 min 0,0 UV-I 0 W/m 8,9 C 9,4 C 11,3 km/h (2 Bft)
05.10.2022 01:48 10,4 C 8,9 C 90 % 1022,0 hPa 0,0 l/m 8,0 km/h (2 Bft) S 180 0 min 0,0 UV-I 0 W/m 8,8 C 9,3 C 16,1 km/h (3 Bft)
05.10.2022 01:49 10,4 C 8,9 C 90 % 1022,1 hPa 0,0 l/m 6,4 km/h (2 Bft) S 180 0 min 0,0 UV-I 0 W/m 8,8 C 10,4 C 11,3 km/h (2 Bft)
05.10.2022 01:50 10,4 C 8,3 C 90 % 1022,0 hPa 0,0 l/m 8,0 km/h (2 Bft) S 180 0 min 0,0 UV-I 0 W/m 8,8 C 9,3 C 11,3 km/h (2 Bft)
05.10.2022 01:51 10,4 C 8,9 C 90 % 1022,1 hPa 0,0 l/m 8,0 km/h (2 Bft) S 180 0 min 0,0 UV-I 0 W/m 8,8 C 9,3 C 11,3 km/h (2 Bft)
05.10.2022 01:52 10,4 C 8,9 C 90 % 1022,0 hPa 0,0 l/m 6,4 km/h (2 Bft) S 180 0 min 0,0 UV-I 0 W/m 8,8 C 10,4 C 9,7 km/h (2 Bft)
05.10.2022 01:53 10,4 C 8,9 C 90 % 1021,9 hPa 0,0 l/m 6,4 km/h (2 Bft) S 180 0 min 0,0 UV-I 0 W/m 8,8 C 10,4 C 9,7 km/h (2 Bft)
05.10.2022 01:54 10,4 C 8,9 C 90 % 1022,0 hPa 0,0 l/m 8,0 km/h (2 Bft) S 180 0 min 0,0 UV-I 0 W/m 8,8 C 9,3 C 11,3 km/h (2 Bft)
05.10.2022 01:55 10,4 C 8,9 C 90 % 1022,0 hPa 0,0 l/m 6,4 km/h (2 Bft) S 180 0 min 0,0 UV-I 0 W/m 8,8 C 10,4 C 9,7 km/h (2 Bft)
05.10.2022 01:56 10,4 C 8,9 C 90 % 1021,9 hPa 0,0 l/m 6,4 km/h (2 Bft) S 180 0 min 0,0 UV-I 0 W/m 8,8 C 10,4 C 11,3 km/h (2 Bft)
05.10.2022 01:57 10,4 C 8,9 C 90 % 1022,0 hPa 0,0 l/m 8,0 km/h (2 Bft) S 180 0 min 0,0 UV-I 0 W/m 8,8 C 9,3 C 12,9 km/h (3 Bft)
05.10.2022 01:58 10,4 C 8,9 C 89 % 1022,0 hPa 0,0 l/m 4,8 km/h (1 Bft) S 180 0 min 0,0 UV-I 0 W/m 8,7 C 10,4 C 8,0 km/h (2 Bft)
05.10.2022 01:59 10,3 C 8,3 C 90 % 1022,0 hPa 0,0 l/m 6,4 km/h (2 Bft) S 180 0 min 0,0 UV-I 0 W/m 8,7 C 10,3 C 8,0 km/h (2 Bft)
05.10.2022 02:00 10,3 C 8,3 C 89 % 1022,0 hPa 0,0 l/m 8,0 km/h (2 Bft) S 180 0 min 0,0 UV-I 0 W/m 8,6 C 9,2 C 14,5 km/h (3 Bft)
05.10.2022 02:01 10,3 C 8,3 C 90 % 1022,1 hPa 0,0 l/m 9,7 km/h (2 Bft) S-SW 202 0 min 0,0 UV-I 0 W/m 8,7 C 8,1 C 12,9 km/h (3 Bft)
05.10.2022 02:02 10,3 C 8,3 C 90 % 1022,1 hPa 0,0 l/m 8,0 km/h (2 Bft) S-SW 202 0 min 0,0 UV-I 0 W/m 8,7 C 9,2 C 9,7 km/h (2 Bft)
05.10.2022 02:03 10,2 C 8,3 C 89 % 1022,0 hPa 0,0 l/m 6,4 km/h (2 Bft) S-SW 202 0 min 0,0 UV-I 0 W/m 8,5 C 10,2 C 9,7 km/h (2 Bft)
05.10.2022 02:04 10,2 C 8,3 C 89 % 1022,0 hPa 0,0 l/m 6,4 km/h (2 Bft) S-SW 202 0 min 0,0 UV-I 0 W/m 8,5 C 10,2 C 8,0 km/h (2 Bft)
05.10.2022 02:05 10,1 C 8,3 C 90 % 1022,0 hPa 0,0 l/m 4,8 km/h (1 Bft) S-SW 202 0 min 0,0 UV-I 0 W/m 8,5 C 10,1 C 8,0 km/h (2 Bft)
05.10.2022 02:06 10,0 C 8,3 C 90 % 1021,9 hPa 0,0 l/m 6,4 km/h (2 Bft) S-SW 202 0 min 0,0 UV-I 0 W/m 8,4 C 10,0 C 11,3 km/h (2 Bft)
05.10.2022 02:07 9,9 C 8,3 C 89 % 1022,0 hPa 0,0 l/m 8,0 km/h (2 Bft) S-SW 202 0 min 0,0 UV-I 0 W/m 8,2 C 8,7 C 9,7 km/h (2 Bft)
05.10.2022 02:08 9,8 C 8,3 C 89 % 1022,0 hPa 0,0 l/m 9,7 km/h (2 Bft) S-SW 202 0 min 0,0 UV-I 0 W/m 8,1 C 7,6 C 11,3 km/h (2 Bft)
05.10.2022 02:09 9,8 C 8,3 C 89 % 1021,9 hPa 0,0 l/m 8,0 km/h (2 Bft) S-SW 202 0 min 0,0 UV-I 0 W/m 8,1 C 8,6 C 9,7 km/h (2 Bft)
05.10.2022 02:10 9,7 C 8,3 C 90 % 1021,9 hPa 0,0 l/m 8,0 km/h (2 Bft) S-SW 202 0 min 0,0 UV-I 0 W/m 8,1 C 8,5 C 9,7 km/h (2 Bft)
05.10.2022 02:11 9,6 C 7,8 C 90 % 1021,9 hPa 0,0 l/m 8,0 km/h (2 Bft) SW 225 0 min 0,0 UV-I 0 W/m 8,0 C 8,4 C 9,7 km/h (2 Bft)
05.10.2022 02:12 9,6 C 7,8 C 90 % 1021,9 hPa 0,0 l/m 6,4 km/h (2 Bft) S-SW 202 0 min 0,0 UV-I 0 W/m 8,0 C 9,6 C 8,0 km/h (2 Bft)
05.10.2022 02:13 9,5 C 7,8 C 90 % 1021,9 hPa 0,0 l/m 6,4 km/h (2 Bft) S-SW 202 0 min 0,0 UV-I 0 W/m 7,9 C 9,5 C 11,3 km/h (2 Bft)
05.10.2022 02:14 9,4 C 7,8 C 90 % 1021,9 hPa 0,0 l/m 6,4 km/h (2 Bft) SW 225 0 min 0,0 UV-I 0 W/m 7,8 C 9,4 C 8,0 km/h (2 Bft)
05.10.2022 02:15 9,4 C 7,8 C 90 % 1021,9 hPa 0,0 l/m 6,4 km/h (2 Bft) S-SW 202 0 min 0,0 UV-I 0 W/m 7,8 C 9,4 C 9,7 km/h (2 Bft)
05.10.2022 02:16 9,3 C 7,8 C 90 % 1021,9 hPa 0,0 l/m 6,4 km/h (2 Bft) S-SW 202 0 min 0,0 UV-I 0 W/m 7,7 C 9,3 C 8,0 km/h (2 Bft)
05.10.2022 02:17 9,3 C 7,8 C 90 % 1021,8 hPa 0,0 l/m 6,4 km/h (2 Bft) S-SW 202 0 min 0,0 UV-I 0 W/m 7,7 C 9,3 C 8,0 km/h (2 Bft)
05.10.2022 02:18 9,3 C 7,8 C 90 % 1021,9 hPa 0,0 l/m 6,4 km/h (2 Bft) S-SW 202 0 min 0,0 UV-I 0 W/m 7,7 C 9,3 C 8,0 km/h (2 Bft)
05.10.2022 02:19 9,2 C 7,8 C 90 % 1021,8 hPa 0,0 l/m 6,4 km/h (2 Bft) SW 225 0 min 0,0 UV-I 0 W/m 7,6 C 9,2 C 8,0 km/h (2 Bft)
05.10.2022 02:20 9,1 C 7,8 C 90 % 1021,8 hPa 0,0 l/m 6,4 km/h (2 Bft) S-SW 202 0 min 0,0 UV-I 0 W/m 7,5 C 9,1 C 9,7 km/h (2 Bft)
05.10.2022 02:21 9,1 C 7,2 C 90 % 1021,8 hPa 0,0 l/m 8,0 km/h (2 Bft) S-SW 202 0 min 0,0 UV-I 0 W/m 7,5 C 7,9 C 9,7 km/h (2 Bft)
05.10.2022 02:22 9,0 C 7,2 C 90 % 1021,9 hPa 0,0 l/m 6,4 km/h (2 Bft) SW 225 0 min 0,0 UV-I 0 W/m 7,4 C 9,0 C 9,7 km/h (2 Bft)
05.10.2022 02:23 9,0 C 7,2 C 90 % 1021,8 hPa 0,0 l/m 8,0 km/h (2 Bft) S-SW 202 0 min 0,0 UV-I 0 W/m 7,4 C 7,8 C 11,3 km/h (2 Bft)
05.10.2022 02:24 9,0 C 7,2 C 90 % 1021,8 hPa 0,0 l/m 6,4 km/h (2 Bft) S-SW 202 0 min 0,0 UV-I 0 W/m 7,4 C 9,0 C 8,0 km/h (2 Bft)
05.10.2022 02:25 8,9 C 7,2 C 90 % 1021,8 hPa 0,0 l/m 8,0 km/h (2 Bft) S-SW 202 0 min 0,0 UV-I 0 W/m 7,4 C 7,7 C 9,7 km/h (2 Bft)
05.10.2022 02:26 8,9 C 7,2 C 90 % 1021,8 hPa 0,0 l/m 4,8 km/h (1 Bft) S-SW 202 0 min 0,0 UV-I 0 W/m 7,4 C 8,9 C 9,7 km/h (2 Bft)
05.10.2022 02:27 8,9 C 7,2 C 91 % 1021,7 hPa 0,0 l/m 6,4 km/h (2 Bft) S-SW 202 0 min 0,0 UV-I 0 W/m 7,5 C 8,9 C 8,0 km/h (2 Bft)
05.10.2022 02:28 8,9 C 7,2 C 91 % 1021,7 hPa 0,0 l/m 6,4 km/h (2 Bft) S-SW 202 0 min 0,0 UV-I 0 W/m 7,5 C 8,9 C 8,0 km/h (2 Bft)
05.10.2022 02:29 8,9 C 7,2 C 91 % 1021,7 hPa 0,0 l/m 6,4 km/h (2 Bft) SW 225 0 min 0,0 UV-I 0 W/m 7,5 C 8,9 C 9,7 km/h (2 Bft)
05.10.2022 02:30 8,9 C 7,2 C 91 % 1021,7 hPa 0,0 l/m 8,0 km/h (2 Bft) S-SW 202 0 min 0,0 UV-I 0 W/m 7,5 C 7,7 C 11,3 km/h (2 Bft)
05.10.2022 02:31 8,9 C 7,2 C 91 % 1021,7 hPa 0,0 l/m 6,4 km/h (2 Bft) SW 225 0 min 0,0 UV-I 0 W/m 7,5 C 8,9 C 9,7 km/h (2 Bft)
05.10.2022 02:32 8,9 C 7,2 C 91 % 1021,6 hPa 0,0 l/m 8,0 km/h (2 Bft) S-SW 202 0 min 0,0 UV-I 0 W/m 7,5 C 7,7 C 11,3 km/h (2 Bft)
05.10.2022 02:33 8,9 C 7,2 C 91 % 1021,7 hPa 0,0 l/m 8,0 km/h (2 Bft) S-SW 202 0 min 0,0 UV-I 0 W/m 7,5 C 7,7 C 9,7 km/h (2 Bft)
05.10.2022 02:34 8,9 C 7,8 C 91 % 1021,6 hPa 0,0 l/m 8,0 km/h (2 Bft) SW 225 0 min 0,0 UV-I 0 W/m 7,5 C 7,7 C 12,9 km/h (3 Bft)
05.10.2022 02:35 9,0 C 7,8 C 91 % 1021,7 hPa 0,0 l/m 9,7 km/h (2 Bft) S-SW 202 0 min 0,0 UV-I 0 W/m 7,6 C 6,7 C 12,9 km/h (3 Bft)
05.10.2022 02:36 9,0 C 7,8 C 91 % 1021,6 hPa 0,0 l/m 9,7 km/h (2 Bft) SW 225 0 min 0,0 UV-I 0 W/m 7,6 C 6,7 C 12,9 km/h (3 Bft)
05.10.2022 02:37 9,0 C 7,8 C 91 % 1021,7 hPa 0,0 l/m 9,7 km/h (2 Bft) S-SW 202 0 min 0,0 UV-I 0 W/m 7,6 C 6,7 C 12,9 km/h (3 Bft)
05.10.2022 02:38 9,1 C 7,8 C 91 % 1021,6 hPa 0,0 l/m 9,7 km/h (2 Bft) S-SW 202 0 min 0,0 UV-I 0 W/m 7,7 C 6,8 C 11,3 km/h (2 Bft)
05.10.2022 02:39 9,1 C 7,8 C 91 % 1021,5 hPa 0,0 l/m 9,7 km/h (2 Bft) S 180 0 min 0,0 UV-I 0 W/m 7,7 C 6,8 C 12,9 km/h (3 Bft)
05.10.2022 02:40 9,1 C 7,8 C 91 % 1021,5 hPa 0,0 l/m 9,7 km/h (2 Bft) S-SW 202 0 min 0,0 UV-I 0 W/m 7,7 C 6,8 C 14,5 km/h (3 Bft)
05.10.2022 02:41 9,1 C 7,8 C 91 % 1021,6 hPa 0,0 l/m 11,3 km/h (2 Bft) S-SW 202 0 min 0,0 UV-I 0 W/m 7,7 C 5,9 C 14,5 km/h (3 Bft)
05.10.2022 02:42 9,1 C 8,3 C 91 % 1021,5 hPa 0,0 l/m 11,3 km/h (2 Bft) S-SW 202 0 min 0,0 UV-I 0 W/m 7,7 C 5,9 C 16,1 km/h (3 Bft)
05.10.2022 02:43 9,2 C 8,3 C 91 % 1021,5 hPa 0,0 l/m 9,7 km/h (2 Bft) S-SW 202 0 min 0,0 UV-I 0 W/m 7,8 C 6,9 C 14,5 km/h (3 Bft)
05.10.2022 02:44 9,2 C 8,3 C 91 % 1021,5 hPa 0,0 l/m 9,7 km/h (2 Bft) S-SW 202 0 min 0,0 UV-I 0 W/m 7,8 C 6,9 C 11,3 km/h (2 Bft)
05.10.2022 02:45 9,2 C 8,3 C 91 % 1021,5 hPa 0,0 l/m 9,7 km/h (2 Bft) S-SW 202 0 min 0,0 UV-I 0 W/m 7,8 C 6,9 C 11,3 km/h (2 Bft)
05.10.2022 02:46 9,2 C 8,3 C 91 % 1021,4 hPa 0,0 l/m 8,0 km/h (2 Bft) S 180 0 min 0,0 UV-I 0 W/m 7,8 C 8,0 C 9,7 km/h (2 Bft)
05.10.2022 02:47 9,2 C 8,3 C 91 % 1021,4 hPa 0,0 l/m 9,7 km/h (2 Bft) S 180 0 min 0,0 UV-I 0 W/m 7,8 C 6,9 C 12,9 km/h (3 Bft)
05.10.2022 02:48 9,3 C 8,3 C 92 % 1021,4 hPa 0,0 l/m 9,7 km/h (2 Bft) S 180 0 min 0,0 UV-I 0 W/m 8,1 C 7,0 C 16,1 km/h (3 Bft)
05.10.2022 02:49 9,3 C 8,3 C 92 % 1021,3 hPa 0,0 l/m 8,0 km/h (2 Bft) S 180 0 min 0,0 UV-I 0 W/m 8,1 C 8,1 C 17,7 km/h (3 Bft)
05.10.2022 02:50 9,3 C 8,3 C 92 % 1021,3 hPa 0,0 l/m 9,7 km/h (2 Bft) S 180 0 min 0,0 UV-I 0 W/m 8,1 C 7,0 C 14,5 km/h (3 Bft)
05.10.2022 02:51 9,3 C 8,3 C 92 % 1021,3 hPa 0,0 l/m 8,0 km/h (2 Bft) S 180 0 min 0,0 UV-I 0 W/m 8,1 C 8,1 C 14,5 km/h (3 Bft)
05.10.2022 02:52 9,4 C 8,3 C 92 % 1021,3 hPa 0,0 l/m 11,3 km/h (2 Bft) S 180 0 min 0,0 UV-I 0 W/m 8,2 C 6,2 C 19,3 km/h (3 Bft)
05.10.2022 02:53 9,4 C 8,3 C 92 % 1021,3 hPa 0,0 l/m 8,0 km/h (2 Bft) S 180 0 min 0,0 UV-I 0 W/m 8,2 C 8,2 C 12,9 km/h (3 Bft)
05.10.2022 02:54 9,4 C 8,3 C 92 % 1021,3 hPa 0,0 l/m 11,3 km/h (2 Bft) S 180 0 min 0,0 UV-I 0 W/m 8,2 C 6,2 C 17,7 km/h (3 Bft)
05.10.2022 02:55 9,6 C 8,9 C 92 % 1021,2 hPa 0,0 l/m 11,3 km/h (2 Bft) S 180 0 min 0,0 UV-I 0 W/m 8,4 C 6,4 C 14,5 km/h (3 Bft)
05.10.2022 02:56 9,6 C 8,9 C 92 % 1021,3 hPa 0,0 l/m 11,3 km/h (2 Bft) S-SW 202 0 min 0,0 UV-I 0 W/m 8,4 C 6,4 C 16,1 km/h (3 Bft)
05.10.2022 02:57 9,7 C 8,9 C 92 % 1021,2 hPa 0,0 l/m 12,9 km/h (3 Bft) S 180 0 min 0,0 UV-I 0 W/m 8,5 C 5,7 C 24,1 km/h (4 Bft)
05.10.2022 02:58 9,7 C 8,9 C 92 % 1021,3 hPa 0,0 l/m 11,3 km/h (2 Bft) S-SW 202 0 min 0,0 UV-I 0 W/m 8,5 C 6,5 C 20,9 km/h (4 Bft)
05.10.2022 02:59 9,8 C 8,9 C 92 % 1021,3 hPa 0,0 l/m 11,3 km/h (2 Bft) S 180 0 min 0,0 UV-I 0 W/m 8,6 C 6,6 C 16,1 km/h (3 Bft)
05.10.2022 03:00 9,8 C 8,9 C 92 % 1021,3 hPa 0,0 l/m 12,9 km/h (3 Bft) S 180 0 min 0,0 UV-I 0 W/m 8,6 C 5,8 C 17,7 km/h (3 Bft)
05.10.2022 03:01 9,9 C 8,9 C 92 % 1021,3 hPa 0,0 l/m 11,3 km/h (2 Bft) S-SW 202 0 min 0,0 UV-I 0 W/m 8,7 C 6,8 C 14,5 km/h (3 Bft)
05.10.2022 03:02 9,9 C 8,9 C 92 % 1021,3 hPa 0,0 l/m 16,1 km/h (3 Bft) S-SW 202 0 min 0,0 UV-I 0 W/m 8,7 C 4,6 C 22,5 km/h (4 Bft)
05.10.2022 03:03 10,0 C 8,9 C 92 % 1021,4 hPa 0,0 l/m 11,3 km/h (2 Bft) S 180 0 min 0,0 UV-I 0 W/m 8,8 C 6,9 C 22,5 km/h (4 Bft)
05.10.2022 03:04 10,1 C 9,4 C 92 % 1021,4 hPa 0,0 l/m 12,9 km/h (3 Bft) S-SW 202 0 min 0,0 UV-I 0 W/m 8,9 C 6,2 C 17,7 km/h (3 Bft)
05.10.2022 03:05 10,1 C 8,9 C 92 % 1021,3 hPa 0,0 l/m 11,3 km/h (2 Bft) S 180 0 min 0,0 UV-I 0 W/m 8,9 C 7,0 C 17,7 km/h (3 Bft)
05.10.2022 03:06 10,1 C 8,9 C 92 % 1021,2 hPa 0,0 l/m 16,1 km/h (3 Bft) S-SW 202 0 min 0,0 UV-I 0 W/m 8,9 C 4,8 C 25,7 km/h (4 Bft)
05.10.2022 03:07 10,1 C 9,4 C 92 % 1021,2 hPa 0,0 l/m 12,9 km/h (3 Bft) S-SW 202 0 min 0,0 UV-I 0 W/m 8,9 C 6,2 C 16,1 km/h (3 Bft)
05.10.2022 03:08 10,2 C 9,4 C 92 % 1021,2 hPa 0,0 l/m 16,1 km/h (3 Bft) S 180 0 min 0,0 UV-I 0 W/m 9,0 C 4,9 C 24,1 km/h (4 Bft)
05.10.2022 03:09 10,2 C 9,4 C 92 % 1021,2 hPa 0,0 l/m 8,0 km/h (2 Bft) S 180 0 min 0,0 UV-I 0 W/m 9,0 C 9,1 C 24,1 km/h (4 Bft)
05.10.2022 03:10 10,3 C 9,4 C 92 % 1021,2 hPa 0,0 l/m 16,1 km/h (3 Bft) S-SW 202 0 min 0,0 UV-I 0 W/m 9,1 C 5,1 C 27,4 km/h (4 Bft)
05.10.2022 03:11 10,3 C 9,4 C 92 % 1021,2 hPa 0,0 l/m 16,1 km/h (3 Bft) S 180 0 min 0,0 UV-I 0 W/m 9,1 C 5,1 C 29,0 km/h (5 Bft)
05.10.2022 03:12 10,4 C 9,4 C 92 % 1021,2 hPa 0,0 l/m 14,5 km/h (3 Bft) S 180 0 min 0,0 UV-I 0 W/m 9,2 C 5,8 C 17,7 km/h (3 Bft)
05.10.2022 03:13 10,4 C 9,4 C 92 % 1021,2 hPa 0,0 l/m 14,5 km/h (3 Bft) S 180 0 min 0,0 UV-I 0 W/m 9,2 C 5,8 C 19,3 km/h (3 Bft)
05.10.2022 03:14 10,4 C 10,0 C 92 % 1021,1 hPa 0,0 l/m 16,1 km/h (3 Bft) S-SW 202 0 min 0,0 UV-I 0 W/m 9,2 C 5,2 C 22,5 km/h (4 Bft)
05.10.2022 03:15 10,5 C 10,0 C 92 % 1021,2 hPa 0,0 l/m 17,7 km/h (3 Bft) S 180 0 min 0,0 UV-I 0 W/m 9,3 C 4,7 C 22,5 km/h (4 Bft)
05.10.2022 03:16 10,5 C 10,0 C 92 % 1021,1 hPa 0,0 l/m 12,9 km/h (3 Bft) S-SW 202 0 min 0,0 UV-I 0 W/m 9,3 C 6,7 C 19,3 km/h (3 Bft)
05.10.2022 03:17 10,5 C 10,0 C 92 % 1021,1 hPa 0,0 l/m 12,9 km/h (3 Bft) S 180 0 min 0,0 UV-I 0 W/m 9,3 C 6,7 C 17,7 km/h (3 Bft)
05.10.2022 03:18 10,5 C 10,0 C 92 % 1021,0 hPa 0,0 l/m 16,1 km/h (3 Bft) SW 225 0 min 0,0 UV-I 0 W/m 9,3 C 5,3 C 27,4 km/h (4 Bft)
05.10.2022 03:19 10,5 C 10,0 C 92 % 1021,1 hPa 0,0 l/m 17,7 km/h (3 Bft) S-SW 202 0 min 0,0 UV-I 0 W/m 9,3 C 4,7 C 29,0 km/h (5 Bft)
05.10.2022 03:20 10,6 C 10,0 C 92 % 1021,1 hPa 0,0 l/m 22,5 km/h (4 Bft) S-SW 202 0 min 0,0 UV-I 0 W/m 9,4 C 3,3 C 30,6 km/h (5 Bft)
05.10.2022 03:21 10,6 C 10,0 C 92 % 1021,1 hPa 0,0 l/m 17,7 km/h (3 Bft) S-SW 202 0 min 0,0 UV-I 0 W/m 9,4 C 4,8 C 30,6 km/h (5 Bft)
05.10.2022 03:22 10,6 C 10,0 C 92 % 1021,1 hPa 0,0 l/m 22,5 km/h (4 Bft) S-SW 202 0 min 0,0 UV-I 0 W/m 9,4 C 3,3 C 30,6 km/h (5 Bft)
05.10.2022 03:23 10,6 C 10,0 C 92 % 1021,1 hPa 0,0 l/m 12,9 km/h (3 Bft) S 180 0 min 0,0 UV-I 0 W/m 9,4 C 6,8 C 19,3 km/h (3 Bft)
05.10.2022 03:24 10,6 C 10,0 C 92 % 1021,1 hPa 0,0 l/m 16,1 km/h (3 Bft) S 180 0 min 0,0 UV-I 0 W/m 9,4 C 5,4 C 22,5 km/h (4 Bft)
05.10.2022 03:25 10,6 C 10,0 C 92 % 1021,1 hPa 0,0 l/m 17,7 km/h (3 Bft) S-SW 202 0 min 0,0 UV-I 0 W/m 9,4 C 4,8 C 22,5 km/h (4 Bft)
05.10.2022 03:26 10,6 C 10,0 C 92 % 1021,1 hPa 0,0 l/m 16,1 km/h (3 Bft) S-SW 202 0 min 0,0 UV-I 0 W/m 9,4 C 5,4 C 22,5 km/h (4 Bft)
05.10.2022 03:27 10,6 C 10,0 C 92 % 1021,2 hPa 0,0 l/m 9,7 km/h (2 Bft) S-SW 202 0 min 0,0 UV-I 0 W/m 9,4 C 8,4 C 16,1 km/h (3 Bft)
05.10.2022 03:28 10,5 C 10,0 C 92 % 1021,2 hPa 0,0 l/m 14,5 km/h (3 Bft) S-SW 202 0 min 0,0 UV-I 0 W/m 9,3 C 5,9 C 16,1 km/h (3 Bft)
05.10.2022 03:29 10,5 C 10,0 C 92 % 1021,2 hPa 0,0 l/m 20,9 km/h (4 Bft) S-SW 202 0 min 0,0 UV-I 0 W/m 9,3 C 3,7 C 25,7 km/h (4 Bft)
05.10.2022 03:30 10,4 C 10,0 C 92 % 1021,2 hPa 0,0 l/m 16,1 km/h (3 Bft) S-SW 202 0 min 0,0 UV-I 0 W/m 9,2 C 5,2 C 22,5 km/h (4 Bft)
05.10.2022 03:31 10,4 C 10,0 C 92 % 1021,2 hPa 0,0 l/m 14,5 km/h (3 Bft) S-SW 202 0 min 0,0 UV-I 0 W/m 9,2 C 5,8 C 24,1 km/h (4 Bft)
05.10.2022 03:32 10,4 C 9,4 C 92 % 1021,2 hPa 0,0 l/m 14,5 km/h (3 Bft) S-SO 157 0 min 0,0 UV-I 0 W/m 9,2 C 5,8 C 25,7 km/h (4 Bft)
05.10.2022 03:33 10,4 C 9,4 C 92 % 1021,1 hPa 0,0 l/m 14,5 km/h (3 Bft) S 180 0 min 0,0 UV-I 0 W/m 9,2 C 5,8 C 25,7 km/h (4 Bft)
05.10.2022 03:34 10,3 C 9,4 C 92 % 1021,3 hPa 0,0 l/m 14,5 km/h (3 Bft) S-SW 202 0 min 0,0 UV-I 0 W/m 9,1 C 5,7 C 22,5 km/h (4 Bft)
05.10.2022 03:35 10,3 C 9,4 C 92 % 1021,2 hPa 0,0 l/m 17,7 km/h (3 Bft) S-SW 202 0 min 0,0 UV-I 0 W/m 9,1 C 4,5 C 27,4 km/h (4 Bft)
05.10.2022 03:36 10,3 C 9,4 C 92 % 1021,3 hPa 0,0 l/m 17,7 km/h (3 Bft) S-SW 202 0 min 0,0 UV-I 0 W/m 9,1 C 4,5 C 25,7 km/h (4 Bft)
05.10.2022 03:37 10,3 C 9,4 C 92 % 1021,2 hPa 0,0 l/m 16,1 km/h (3 Bft) S-SW 202 0 min 0,0 UV-I 0 W/m 9,1 C 5,1 C 22,5 km/h (4 Bft)
05.10.2022 03:38 10,3 C 9,4 C 92 % 1021,3 hPa 0,0 l/m 19,3 km/h (3 Bft) S 180 0 min 0,0 UV-I 0 W/m 9,1 C 3,9 C 27,4 km/h (4 Bft)
05.10.2022 03:39 10,3 C 9,4 C 92 % 1021,3 hPa 0,0 l/m 19,3 km/h (3 Bft) S-SW 202 0 min 0,0 UV-I 0 W/m 9,1 C 3,9 C 27,4 km/h (4 Bft)
05.10.2022 03:40 10,2 C 9,4 C 92 % 1021,3 hPa 0,0 l/m 14,5 km/h (3 Bft) SW 225 0 min 0,0 UV-I 0 W/m 9,0 C 5,6 C 19,3 km/h (3 Bft)
05.10.2022 03:41 10,2 C 9,4 C 92 % 1021,3 hPa 0,0 l/m 12,9 km/h (3 Bft) S-SW 202 0 min 0,0 UV-I 0 W/m 9,0 C 6,3 C 19,3 km/h (3 Bft)
05.10.2022 03:42 10,2 C 9,4 C 92 % 1021,3 hPa 0,0 l/m 14,5 km/h (3 Bft) S-SW 202 0 min 0,0 UV-I 0 W/m 9,0 C 5,6 C 22,5 km/h (4 Bft)
05.10.2022 03:43 10,2 C 9,4 C 92 % 1021,3 hPa 0,0 l/m 12,9 km/h (3 Bft) S 180 0 min 0,0 UV-I 0 W/m 9,0 C 6,3 C 22,5 km/h (4 Bft)
05.10.2022 03:44 10,2 C 9,4 C 92 % 1021,3 hPa 0,0 l/m 12,9 km/h (3 Bft) S-SW 202 0 min 0,0 UV-I 0 W/m 9,0 C 6,3 C 19,3 km/h (3 Bft)
05.10.2022 03:45 10,2 C 9,4 C 92 % 1021,3 hPa 0,0 l/m 12,9 km/h (3 Bft) S-SW 202 0 min 0,0 UV-I 0 W/m 9,0 C 6,3 C 17,7 km/h (3 Bft)
05.10.2022 03:46 10,2 C 9,4 C 92 % 1021,3 hPa 0,0 l/m 16,1 km/h (3 Bft) S-SW 202 0 min 0,0 UV-I 0 W/m 9,0 C 4,9 C 22,5 km/h (4 Bft)
05.10.2022 03:47 10,2 C 9,4 C 92 % 1021,3 hPa 0,0 l/m 17,7 km/h (3 Bft) S-SW 202 0 min 0,0 UV-I 0 W/m 9,0 C 4,3 C 25,7 km/h (4 Bft)
05.10.2022 03:48 10,1 C 9,4 C 92 % 1021,4 hPa 0,0 l/m 16,1 km/h (3 Bft) S-SW 202 0 min 0,0 UV-I 0 W/m 8,9 C 4,8 C 22,5 km/h (4 Bft)
05.10.2022 03:49 10,1 C 9,4 C 92 % 1021,3 hPa 0,0 l/m 19,3 km/h (3 Bft) S-SW 202 0 min 0,0 UV-I 0 W/m 8,9 C 3,6 C 29,0 km/h (5 Bft)
05.10.2022 03:50 10,1 C 9,4 C 92 % 1021,4 hPa 0,0 l/m 16,1 km/h (3 Bft) SW 225 0 min 0,0 UV-I 0 W/m 8,9 C 4,8 C 22,5 km/h (4 Bft)
05.10.2022 03:51 10,1 C 9,4 C 92 % 1021,4 hPa 0,0 l/m 14,5 km/h (3 Bft) S-SW 202 0 min 0,0 UV-I 0 W/m 8,9 C 5,5 C 20,9 km/h (4 Bft)
05.10.2022 03:52 10,1 C 9,4 C 92 % 1021,4 hPa 0,0 l/m 16,1 km/h (3 Bft) S-SW 202 0 min 0,0 UV-I 0 W/m 8,9 C 4,8 C 19,3 km/h (3 Bft)
05.10.2022 03:53 9,9 C 9,4 C 92 % 1021,3 hPa 0,0 l/m 12,9 km/h (3 Bft) S-SW 202 0 min 0,0 UV-I 0 W/m 8,7 C 6,0 C 20,9 km/h (4 Bft)
05.10.2022 03:54 9,9 C 9,4 C 92 % 1021,3 hPa 0,0 l/m 16,1 km/h (3 Bft) S 180 0 min 0,0 UV-I 0 W/m 8,7 C 4,6 C 25,7 km/h (4 Bft)
05.10.2022 03:55 9,9 C 9,4 C 92 % 1021,4 hPa 0,0 l/m 19,3 km/h (3 Bft) S-SW 202 0 min 0,0 UV-I 0 W/m 8,7 C 3,4 C 29,0 km/h (5 Bft)
05.10.2022 03:56 9,9 C 9,4 C 92 % 1021,4 hPa 0,0 l/m 17,7 km/h (3 Bft) S-SW 202 0 min 0,0 UV-I 0 W/m 8,7 C 4,0 C 24,1 km/h (4 Bft)
05.10.2022 03:57 9,9 C 9,4 C 92 % 1021,3 hPa 0,0 l/m 19,3 km/h (3 Bft) S-SW 202 0 min 0,0 UV-I 0 W/m 8,7 C 3,4 C 30,6 km/h (5 Bft)
05.10.2022 03:58 9,9 C 9,4 C 92 % 1021,4 hPa 0,0 l/m 16,1 km/h (3 Bft) S 180 0 min 0,0 UV-I 0 W/m 8,7 C 4,6 C 24,1 km/h (4 Bft)
05.10.2022 03:59 9,8 C 9,4 C 92 % 1021,4 hPa 0,0 l/m 14,5 km/h (3 Bft) S 180 0 min 0,0 UV-I 0 W/m 8,6 C 5,1 C 22,5 km/h (4 Bft)
05.10.2022 04:00 9,9 C 9,4 C 92 % 1021,3 hPa 0,0 l/m 16,1 km/h (3 Bft) S 180 0 min 0,0 UV-I 0 W/m 8,7 C 4,6 C 24,1 km/h (4 Bft)
05.10.2022 04:01 9,8 C 9,4 C 92 % 1021,3 hPa 0,0 l/m 16,1 km/h (3 Bft) S 180 0 min 0,0 UV-I 0 W/m 8,6 C 4,4 C 19,3 km/h (3 Bft)
05.10.2022 04:02 9,9 C 9,4 C 92 % 1021,3 hPa 0,0 l/m 12,9 km/h (3 Bft) S-SW 202 0 min 0,0 UV-I 0 W/m 8,7 C 6,0 C 22,5 km/h (4 Bft)
05.10.2022 04:03 9,9 C 9,4 C 92 % 1021,4 hPa 0,0 l/m 12,9 km/h (3 Bft) S-SW 202 0 min 0,0 UV-I 0 W/m 8,7 C 6,0 C 22,5 km/h (4 Bft)
05.10.2022 04:04 9,9 C 9,4 C 92 % 1021,4 hPa 0,0 l/m 19,3 km/h (3 Bft) S-SW 202 0 min 0,0 UV-I 0 W/m 8,7 C 3,4 C 27,4 km/h (4 Bft)
05.10.2022 04:05 9,9 C 9,4 C 92 % 1021,3 hPa 0,0 l/m 16,1 km/h (3 Bft) S-SW 202 0 min 0,0 UV-I 0 W/m 8,7 C 4,6 C 19,3 km/h (3 Bft)
05.10.2022 04:06 9,9 C 9,4 C 92 % 1021,3 hPa 0,0 l/m 16,1 km/h (3 Bft) S-SW 202 0 min 0,0 UV-I 0 W/m 8,7 C 4,6 C 20,9 km/h (4 Bft)
05.10.2022 04:07 9,9 C 9,4 C 92 % 1021,3 hPa 0,0 l/m 11,3 km/h (2 Bft) S 180 0 min 0,0 UV-I 0 W/m 8,7 C 6,8 C 17,7 km/h (3 Bft)
05.10.2022 04:08 9,9 C 9,4 C 92 % 1021,3 hPa 0,0 l/m 11,3 km/h (2 Bft) SW 225 0 min 0,0 UV-I 0 W/m 8,7 C 6,8 C 14,5 km/h (3 Bft)
05.10.2022 04:09 9,9 C 9,4 C 92 % 1021,3 hPa 0,0 l/m 12,9 km/h (3 Bft) S-SW 202 0 min 0,0 UV-I 0 W/m 8,7 C 6,0 C 17,7 km/h (3 Bft)
05.10.2022 04:10 9,9 C 9,4 C 92 % 1021,3 hPa 0,0 l/m 12,9 km/h (3 Bft) SW 225 0 min 0,0 UV-I 0 W/m 8,7 C 6,0 C 17,7 km/h (3 Bft)
05.10.2022 04:11 9,9 C 9,4 C 92 % 1021,3 hPa 0,0 l/m 12,9 km/h (3 Bft) S-SW 202 0 min 0,0 UV-I 0 W/m 8,7 C 6,0 C 19,3 km/h (3 Bft)
05.10.2022 04:12 9,9 C 9,4 C 92 % 1021,3 hPa 0,0 l/m 12,9 km/h (3 Bft) S 180 0 min 0,0 UV-I 0 W/m 8,7 C 6,0 C 19,3 km/h (3 Bft)
05.10.2022 04:13 9,9 C 9,4 C 92 % 1021,3 hPa 0,0 l/m 11,3 km/h (2 Bft) S-SW 202 0 min 0,0 UV-I 0 W/m 8,7 C 6,8 C 19,3 km/h (3 Bft)
05.10.2022 04:14 9,9 C 9,4 C 92 % 1021,2 hPa 0,0 l/m 11,3 km/h (2 Bft) S-SW 202 0 min 0,0 UV-I 0 W/m 8,7 C 6,8 C 16,1 km/h (3 Bft)
05.10.2022 04:15 9,9 C 9,4 C 92 % 1021,1 hPa 0,0 l/m 8,0 km/h (2 Bft) S-SW 202 0 min 0,0 UV-I 0 W/m 8,7 C 8,7 C 9,7 km/h (2 Bft)
05.10.2022 04:16 9,9 C 9,4 C 92 % 1021,2 hPa 0,0 l/m 8,0 km/h (2 Bft) S-SW 202 0 min 0,0 UV-I 0 W/m 8,7 C 8,7 C 16,1 km/h (3 Bft)
05.10.2022 04:17 9,9 C 9,4 C 92 % 1021,2 hPa 0,0 l/m 14,5 km/h (3 Bft) S 180 0 min 0,0 UV-I 0 W/m 8,7 C 5,2 C 22,5 km/h (4 Bft)
05.10.2022 04:18 9,9 C 9,4 C 92 % 1021,1 hPa 0,0 l/m 14,5 km/h (3 Bft) S 180 0 min 0,0 UV-I 0 W/m 8,7 C 5,2 C 19,3 km/h (3 Bft)
05.10.2022 04:19 9,9 C 9,4 C 92 % 1021,1 hPa 0,0 l/m 12,9 km/h (3 Bft) S 180 0 min 0,0 UV-I 0 W/m 8,7 C 6,0 C 16,1 km/h (3 Bft)
05.10.2022 04:20 9,9 C 9,4 C 92 % 1021,1 hPa 0,0 l/m 16,1 km/h (3 Bft) S-SW 202 0 min 0,0 UV-I 0 W/m 8,7 C 4,6 C 24,1 km/h (4 Bft)
05.10.2022 04:21 9,9 C 9,4 C 92 % 1021,0 hPa 0,0 l/m 14,5 km/h (3 Bft) S 180 0 min 0,0 UV-I 0 W/m 8,7 C 5,2 C 19,3 km/h (3 Bft)
05.10.2022 04:22 9,9 C 9,4 C 92 % 1021,0 hPa 0,0 l/m 14,5 km/h (3 Bft) S-SW 202 0 min 0,0 UV-I 0 W/m 8,7 C 5,2 C 20,9 km/h (4 Bft)
05.10.2022 04:23 9,9 C 9,4 C 92 % 1021,1 hPa 0,0 l/m 12,9 km/h (3 Bft) S-SW 202 0 min 0,0 UV-I 0 W/m 8,7 C 6,0 C 19,3 km/h (3 Bft)
05.10.2022 04:24 9,9 C 9,4 C 92 % 1021,0 hPa 0,0 l/m 11,3 km/h (2 Bft) S-SW 202 0 min 0,0 UV-I 0 W/m 8,7 C 6,8 C 16,1 km/h (3 Bft)
05.10.2022 04:25 9,9 C 9,4 C 92 % 1021,0 hPa 0,0 l/m 9,7 km/h (2 Bft) S-SW 202 0 min 0,0 UV-I 0 W/m 8,7 C 7,7 C 14,5 km/h (3 Bft)
05.10.2022 04:26 9,9 C 9,4 C 92 % 1020,9 hPa 0,0 l/m 14,5 km/h (3 Bft) S-SW 202 0 min 0,0 UV-I 0 W/m 8,7 C 5,2 C 24,1 km/h (4 Bft)
05.10.2022 04:27 9,9 C 9,4 C 92 % 1021,0 hPa 0,0 l/m 14,5 km/h (3 Bft) S 180 0 min 0,0 UV-I 0 W/m 8,7 C 5,2 C 22,5 km/h (4 Bft)
05.10.2022 04:28 9,9 C 9,4 C 92 % 1020,9 hPa 0,0 l/m 11,3 km/h (2 Bft) S 180 0 min 0,0 UV-I 0 W/m 8,7 C 6,8 C 16,1 km/h (3 Bft)
05.10.2022 04:29 9,9 C 9,4 C 92 % 1020,9 hPa 0,0 l/m 12,9 km/h (3 Bft) S 180 0 min 0,0 UV-I 0 W/m 8,7 C 6,0 C 16,1 km/h (3 Bft)
05.10.2022 04:30 9,9 C 9,4 C 92 % 1020,9 hPa 0,0 l/m 11,3 km/h (2 Bft) S-SW 202 0 min 0,0 UV-I 0 W/m 8,7 C 6,8 C 19,3 km/h (3 Bft)
05.10.2022 04:31 9,9 C 9,4 C 92 % 1020,9 hPa 0,0 l/m 8,0 km/h (2 Bft) S 180 0 min 0,0 UV-I 0 W/m 8,7 C 8,7 C 12,9 km/h (3 Bft)
05.10.2022 04:32 9,9 C 9,4 C 92 % 1020,9 hPa 0,0 l/m 16,1 km/h (3 Bft) S 180 0 min 0,0 UV-I 0 W/m 8,7 C 4,6 C 24,1 km/h (4 Bft)
05.10.2022 04:33 9,9 C 9,4 C 92 % 1020,8 hPa 0,0 l/m 17,7 km/h (3 Bft) S 180 0 min 0,0 UV-I 0 W/m 8,7 C 4,0 C 24,1 km/h (4 Bft)
05.10.2022 04:34 9,9 C 9,4 C 92 % 1020,8 hPa 0,0 l/m 17,7 km/h (3 Bft) S-SW 202 0 min 0,0 UV-I 0 W/m 8,7 C 4,0 C 24,1 km/h (4 Bft)
05.10.2022 04:35 9,9 C 9,4 C 92 % 1020,9 hPa 0,0 l/m 12,9 km/h (3 Bft) S 180 0 min 0,0 UV-I 0 W/m 8,7 C 6,0 C 19,3 km/h (3 Bft)
05.10.2022 04:36 9,9 C 9,4 C 92 % 1020,7 hPa 0,0 l/m 12,9 km/h (3 Bft) S-SW 202 0 min 0,0 UV-I 0 W/m 8,7 C 6,0 C 19,3 km/h (3 Bft)
05.10.2022 04:37 9,9 C 9,4 C 92 % 1020,8 hPa 0,0 l/m 16,1 km/h (3 Bft) S 180 0 min 0,0 UV-I 0 W/m 8,7 C 4,6 C 27,4 km/h (4 Bft)
05.10.2022 04:38 9,9 C 9,4 C 92 % 1020,8 hPa 0,0 l/m 17,7 km/h (3 Bft) S 180 0 min 0,0 UV-I 0 W/m 8,7 C 4,0 C 25,7 km/h (4 Bft)
05.10.2022 04:39 9,9 C 9,4 C 92 % 1020,8 hPa 0,0 l/m 19,3 km/h (3 Bft) S 180 0 min 0,0 UV-I 0 W/m 8,7 C 3,4 C 25,7 km/h (4 Bft)
05.10.2022 04:40 9,9 C 9,4 C 92 % 1020,7 hPa 0,0 l/m 16,1 km/h (3 Bft) S-SW 202 0 min 0,0 UV-I 0 W/m 8,7 C 4,6 C 20,9 km/h (4 Bft)
05.10.2022 04:41 9,9 C 9,4 C 91 % 1020,7 hPa 0,0 l/m 17,7 km/h (3 Bft) S 180 0 min 0,0 UV-I 0 W/m 8,5 C 4,0 C 25,7 km/h (4 Bft)
05.10.2022 04:42 9,9 C 9,4 C 91 % 1020,8 hPa 0,0 l/m 19,3 km/h (3 Bft) S-SW 202 0 min 0,0 UV-I 0 W/m 8,5 C 3,4 C 27,4 km/h (4 Bft)
05.10.2022 04:43 9,9 C 9,4 C 91 % 1020,8 hPa 0,0 l/m 19,3 km/h (3 Bft) S 180 0 min 0,0 UV-I 0 W/m 8,5 C 3,4 C 32,2 km/h (5 Bft)
05.10.2022 04:44 9,9 C 9,4 C 91 % 1020,7 hPa 0,0 l/m 14,5 km/h (3 Bft) S-SW 202 0 min 0,0 UV-I 0 W/m 8,5 C 5,2 C 22,5 km/h (4 Bft)
05.10.2022 04:45 9,9 C 9,4 C 91 % 1020,7 hPa 0,0 l/m 8,0 km/h (2 Bft) S 180 0 min 0,0 UV-I 0 W/m 8,5 C 8,7 C 12,9 km/h (3 Bft)
05.10.2022 04:46 9,9 C 9,4 C 91 % 1020,6 hPa 0,0 l/m 12,9 km/h (3 Bft) S 180 0 min 0,0 UV-I 0 W/m 8,5 C 6,0 C 17,7 km/h (3 Bft)
05.10.2022 04:47 9,9 C 9,4 C 91 % 1020,7 hPa 0,0 l/m 11,3 km/h (2 Bft) S 180 0 min 0,0 UV-I 0 W/m 8,5 C 6,8 C 17,7 km/h (3 Bft)
05.10.2022 04:48 9,9 C 9,4 C 91 % 1020,7 hPa 0,0 l/m 12,9 km/h (3 Bft) S 180 0 min 0,0 UV-I 0 W/m 8,5 C 6,0 C 17,7 km/h (3 Bft)
05.10.2022 04:49 9,9 C 9,4 C 91 % 1020,7 hPa 0,0 l/m 17,7 km/h (3 Bft) S 180 0 min 0,0 UV-I 0 W/m 8,5 C 4,0 C 22,5 km/h (4 Bft)
05.10.2022 04:50 9,9 C 9,4 C 91 % 1020,7 hPa 0,0 l/m 9,7 km/h (2 Bft) S 180 0 min 0,0 UV-I 0 W/m 8,5 C 7,7 C 14,5 km/h (3 Bft)
05.10.2022 04:51 9,9 C 9,4 C 91 % 1020,7 hPa 0,0 l/m 9,7 km/h (2 Bft) S 180 0 min 0,0 UV-I 0 W/m 8,5 C 7,7 C 16,1 km/h (3 Bft)
05.10.2022 04:52 9,9 C 9,4 C 91 % 1020,6 hPa 0,0 l/m 9,7 km/h (2 Bft) S-SW 202 0 min 0,0 UV-I 0 W/m 8,5 C 7,7 C 12,9 km/h (3 Bft)
05.10.2022 04:53 9,9 C 9,4 C 91 % 1020,6 hPa 0,0 l/m 14,5 km/h (3 Bft) S 180 0 min 0,0 UV-I 0 W/m 8,5 C 5,2 C 30,6 km/h (5 Bft)
05.10.2022 04:54 10,0 C 9,4 C 91 % 1020,6 hPa 0,0 l/m 12,9 km/h (3 Bft) S-SW 202 0 min 0,0 UV-I 0 W/m 8,6 C 6,1 C 17,7 km/h (3 Bft)
05.10.2022 04:55 10,0 C 9,4 C 91 % 1020,7 hPa 0,0 l/m 16,1 km/h (3 Bft) S-SW 202 0 min 0,0 UV-I 0 W/m 8,6 C 4,7 C 24,1 km/h (4 Bft)
05.10.2022 04:56 10,0 C 9,4 C 91 % 1020,7 hPa 0,0 l/m 12,9 km/h (3 Bft) S 180 0 min 0,0 UV-I 0 W/m 8,6 C 6,1 C 19,3 km/h (3 Bft)
05.10.2022 04:57 10,0 C 9,4 C 91 % 1020,6 hPa 0,0 l/m 12,9 km/h (3 Bft) S 180 0 min 0,0 UV-I 0 W/m 8,6 C 6,1 C 22,5 km/h (4 Bft)
05.10.2022 04:58 10,1 C 9,4 C 91 % 1020,6 hPa 0,0 l/m 14,5 km/h (3 Bft) S 180 0 min 0,0 UV-I 0 W/m 8,7 C 5,5 C 19,3 km/h (3 Bft)
05.10.2022 04:59 10,0 C 9,4 C 91 % 1020,8 hPa 0,0 l/m 16,1 km/h (3 Bft) S-SW 202 0 min 0,0 UV-I 0 W/m 8,6 C 4,7 C 20,9 km/h (4 Bft)
05.10.2022 05:00 10,1 C 9,4 C 91 % 1020,7 hPa 0,0 l/m 11,3 km/h (2 Bft) S 180 0 min 0,0 UV-I 0 W/m 8,7 C 7,0 C 17,7 km/h (3 Bft)
05.10.2022 05:01 10,1 C 9,4 C 91 % 1020,6 hPa 0,0 l/m 12,9 km/h (3 Bft) S-SW 202 0 min 0,0 UV-I 0 W/m 8,7 C 6,2 C 17,7 km/h (3 Bft)
05.10.2022 05:02 10,0 C 9,4 C 91 % 1020,7 hPa 0,0 l/m 9,7 km/h (2 Bft) S-SW 202 0 min 0,0 UV-I 0 W/m 8,6 C 7,8 C 17,7 km/h (3 Bft)
05.10.2022 05:03 10,0 C 9,4 C 91 % 1020,6 hPa 0,0 l/m 11,3 km/h (2 Bft) S 180 0 min 0,0 UV-I 0 W/m 8,6 C 6,9 C 17,7 km/h (3 Bft)
05.10.2022 05:04 10,1 C 9,4 C 91 % 1020,7 hPa 0,0 l/m 14,5 km/h (3 Bft) S-SW 202 0 min 0,0 UV-I 0 W/m 8,7 C 5,5 C 24,1 km/h (4 Bft)
05.10.2022 05:05 10,0 C 9,4 C 91 % 1020,6 hPa 0,0 l/m 12,9 km/h (3 Bft) S-SW 202 0 min 0,0 UV-I 0 W/m 8,6 C 6,1 C 19,3 km/h (3 Bft)
05.10.2022 05:06 10,1 C 9,4 C 91 % 1020,5 hPa 0,0 l/m 16,1 km/h (3 Bft) S-SW 202 0 min 0,0 UV-I 0 W/m 8,7 C 4,8 C 24,1 km/h (4 Bft)
05.10.2022 05:07 10,0 C 9,4 C 91 % 1020,6 hPa 0,0 l/m 9,7 km/h (2 Bft) S-SW 202 0 min 0,0 UV-I 0 W/m 8,6 C 7,8 C 17,7 km/h (3 Bft)
05.10.2022 05:08 10,0 C 9,4 C 91 % 1020,7 hPa 0,0 l/m 12,9 km/h (3 Bft) S 180 0 min 0,0 UV-I 0 W/m 8,6 C 6,1 C 25,7 km/h (4 Bft)
05.10.2022 05:09 10,1 C 9,4 C 91 % 1020,6 hPa 0,0 l/m 12,9 km/h (3 Bft) S-SW 202 0 min 0,0 UV-I 0 W/m 8,7 C 6,2 C 19,3 km/h (3 Bft)
05.10.2022 05:10 10,1 C 9,4 C 92 % 1020,6 hPa 0,0 l/m 14,5 km/h (3 Bft) S 180 0 min 0,0 UV-I 0 W/m 8,9 C 5,5 C 24,1 km/h (4 Bft)
05.10.2022 05:11 10,1 C 9,4 C 92 % 1020,7 hPa 0,0 l/m 14,5 km/h (3 Bft) S-SW 202 0 min 0,0 UV-I 0 W/m 8,9 C 5,5 C 22,5 km/h (4 Bft)
05.10.2022 05:12 10,1 C 9,4 C 92 % 1020,6 hPa 0,0 l/m 16,1 km/h (3 Bft) S-SW 202 0 min 0,0 UV-I 0 W/m 8,9 C 4,8 C 17,7 km/h (3 Bft)
05.10.2022 05:13 10,1 C 9,4 C 92 % 1020,6 hPa 0,0 l/m 12,9 km/h (3 Bft) S-SW 202 0 min 0,0 UV-I 0 W/m 8,9 C 6,2 C 20,9 km/h (4 Bft)
05.10.2022 05:14 10,1 C 9,4 C 92 % 1020,6 hPa 0,0 l/m 16,1 km/h (3 Bft) S 180 0 min 0,0 UV-I 0 W/m 8,9 C 4,8 C 24,1 km/h (4 Bft)
05.10.2022 05:15 10,1 C 9,4 C 92 % 1020,6 hPa 0,0 l/m 12,9 km/h (3 Bft) S-SW 202 0 min 0,0 UV-I 0 W/m 8,9 C 6,2 C 16,1 km/h (3 Bft)
05.10.2022 05:16 10,1 C 9,4 C 92 % 1020,8 hPa 0,0 l/m 14,5 km/h (3 Bft) S-SW 202 0 min 0,0 UV-I 0 W/m 8,9 C 5,5 C 17,7 km/h (3 Bft)
05.10.2022 05:17 10,1 C 9,4 C 91 % 1020,6 hPa 0,0 l/m 9,7 km/h (2 Bft) S 180 0 min 0,0 UV-I 0 W/m 8,7 C 7,9 C 14,5 km/h (3 Bft)
05.10.2022 05:18 10,1 C 9,4 C 91 % 1020,7 hPa 0,0 l/m 12,9 km/h (3 Bft) S 180 0 min 0,0 UV-I 0 W/m 8,7 C 6,2 C 17,7 km/h (3 Bft)
05.10.2022 05:19 10,1 C 9,4 C 91 % 1020,7 hPa 0,0 l/m 14,5 km/h (3 Bft) S-SW 202 0 min 0,0 UV-I 0 W/m 8,7 C 5,5 C 22,5 km/h (4 Bft)
05.10.2022 05:20 10,1 C 9,4 C 91 % 1020,7 hPa 0,0 l/m 14,5 km/h (3 Bft) S-SW 202 0 min 0,0 UV-I 0 W/m 8,7 C 5,5 C 20,9 km/h (4 Bft)
05.10.2022 05:21 10,1 C 9,4 C 92 % 1020,6 hPa 0,0 l/m 16,1 km/h (3 Bft) S-SW 202 0 min 0,0 UV-I 0 W/m 8,9 C 4,8 C 19,3 km/h (3 Bft)
05.10.2022 05:22 10,1 C 9,4 C 92 % 1020,6 hPa 0,0 l/m 12,9 km/h (3 Bft) S 180 0 min 0,0 UV-I 0 W/m 8,9 C 6,2 C 17,7 km/h (3 Bft)
05.10.2022 05:23 10,1 C 9,4 C 92 % 1020,6 hPa 0,0 l/m 8,0 km/h (2 Bft) S 180 0 min 0,0 UV-I 0 W/m 8,9 C 9,0 C 12,9 km/h (3 Bft)
05.10.2022 05:24 10,1 C 9,4 C 92 % 1020,6 hPa 0,0 l/m 6,4 km/h (2 Bft) S 180 0 min 0,0 UV-I 0 W/m 8,9 C 10,1 C 16,1 km/h (3 Bft)
05.10.2022 05:25 10,1 C 9,4 C 92 % 1020,6 hPa 0,0 l/m 8,0 km/h (2 Bft) S 180 0 min 0,0 UV-I 0 W/m 8,9 C 9,0 C 16,1 km/h (3 Bft)
05.10.2022 05:26 10,1 C 9,4 C 92 % 1020,5 hPa 0,0 l/m 8,0 km/h (2 Bft) S 180 0 min 0,0 UV-I 0 W/m 8,9 C 9,0 C 16,1 km/h (3 Bft)
05.10.2022 05:27 10,1 C 9,4 C 92 % 1020,6 hPa 0,0 l/m 9,7 km/h (2 Bft) SW 225 0 min 0,0 UV-I 0 W/m 8,9 C 7,9 C 12,9 km/h (3 Bft)
05.10.2022 05:28 10,1 C 9,4 C 92 % 1020,6 hPa 0,0 l/m 8,0 km/h (2 Bft) S-SO 157 0 min 0,0 UV-I 0 W/m 8,9 C 9,0 C 11,3 km/h (2 Bft)
05.10.2022 05:29 10,1 C 9,4 C 92 % 1020,5 hPa 0,0 l/m 9,7 km/h (2 Bft) S 180 0 min 0,0 UV-I 0 W/m 8,9 C 7,9 C 14,5 km/h (3 Bft)
05.10.2022 05:30 10,1 C 9,4 C 92 % 1020,6 hPa 0,0 l/m 9,7 km/h (2 Bft) S 180 0 min 0,0 UV-I 0 W/m 8,9 C 7,9 C 22,5 km/h (4 Bft)
05.10.2022 05:31 10,1 C 9,4 C 92 % 1020,6 hPa 0,0 l/m 8,0 km/h (2 Bft) S 180 0 min 0,0 UV-I 0 W/m 8,9 C 9,0 C 14,5 km/h (3 Bft)
05.10.2022 05:32 10,1 C 9,4 C 92 % 1020,6 hPa 0,0 l/m 9,7 km/h (2 Bft) S-SW 202 0 min 0,0 UV-I 0 W/m 8,9 C 7,9 C 17,7 km/h (3 Bft)
05.10.2022 05:33 10,1 C 9,4 C 92 % 1020,5 hPa 0,0 l/m 9,7 km/h (2 Bft) S 180 0 min 0,0 UV-I 0 W/m 8,9 C 7,9 C 14,5 km/h (3 Bft)
05.10.2022 05:34 10,1 C 9,4 C 92 % 1020,6 hPa 0,0 l/m 8,0 km/h (2 Bft) S-SW 202 0 min 0,0 UV-I 0 W/m 8,9 C 9,0 C 12,9 km/h (3 Bft)
05.10.2022 05:35 10,1 C 9,4 C 92 % 1020,5 hPa 0,0 l/m 11,3 km/h (2 Bft) S 180 0 min 0,0 UV-I 0 W/m 8,9 C 7,0 C 19,3 km/h (3 Bft)
05.10.2022 05:36 10,0 C 9,4 C 92 % 1020,6 hPa 0,0 l/m 14,5 km/h (3 Bft) S 180 0 min 0,0 UV-I 0 W/m 8,8 C 5,3 C 22,5 km/h (4 Bft)
05.10.2022 05:37 10,0 C 9,4 C 92 % 1020,6 hPa 0,0 l/m 9,7 km/h (2 Bft) S 180 0 min 0,0 UV-I 0 W/m 8,8 C 7,8 C 16,1 km/h (3 Bft)
05.10.2022 05:38 10,1 C 9,4 C 92 % 1020,6 hPa 0,0 l/m 14,5 km/h (3 Bft) S-SW 202 0 min 0,0 UV-I 0 W/m 8,9 C 5,5 C 20,9 km/h (4 Bft)
05.10.2022 05:39 10,0 C 9,4 C 92 % 1020,5 hPa 0,0 l/m 11,3 km/h (2 Bft) S-SW 202 0 min 0,0 UV-I 0 W/m 8,8 C 6,9 C 14,5 km/h (3 Bft)
05.10.2022 05:40 10,0 C 9,4 C 92 % 1020,6 hPa 0,0 l/m 8,0 km/h (2 Bft) S 180 0 min 0,0 UV-I 0 W/m 8,8 C 8,9 C 11,3 km/h (2 Bft)
05.10.2022 05:41 10,0 C 9,4 C 92 % 1020,5 hPa 0,0 l/m 8,0 km/h (2 Bft) S-SW 202 0 min 0,0 UV-I 0 W/m 8,8 C 8,9 C 11,3 km/h (2 Bft)
05.10.2022 05:42 10,0 C 9,4 C 92 % 1020,6 hPa 0,0 l/m 8,0 km/h (2 Bft) S-SW 202 0 min 0,0 UV-I 0 W/m 8,8 C 8,9 C 11,3 km/h (2 Bft)
05.10.2022 05:43 10,0 C 9,4 C 92 % 1020,6 hPa 0,0 l/m 11,3 km/h (2 Bft) S-SW 202 0 min 0,0 UV-I 0 W/m 8,8 C 6,9 C 12,9 km/h (3 Bft)
05.10.2022 05:44 9,9 C 9,4 C 92 % 1020,5 hPa 0,0 l/m 8,0 km/h (2 Bft) SW 225 0 min 0,0 UV-I 0 W/m 8,7 C 8,7 C 14,5 km/h (3 Bft)
05.10.2022 05:45 10,0 C 9,4 C 92 % 1020,6 hPa 0,0 l/m 9,7 km/h (2 Bft) S-SW 202 0 min 0,0 UV-I 0 W/m 8,8 C 7,8 C 12,9 km/h (3 Bft)
05.10.2022 05:46 10,1 C 9,4 C 92 % 1020,5 hPa 0,0 l/m 8,0 km/h (2 Bft) S 180 0 min 0,0 UV-I 0 W/m 8,9 C 9,0 C 12,9 km/h (3 Bft)
05.10.2022 05:47 10,1 C 9,4 C 92 % 1020,5 hPa 0,0 l/m 11,3 km/h (2 Bft) S-SW 202 0 min 0,0 UV-I 0 W/m 8,9 C 7,0 C 17,7 km/h (3 Bft)
05.10.2022 05:48 10,1 C 9,4 C 92 % 1020,5 hPa 0,0 l/m 8,0 km/h (2 Bft) S-SW 202 0 min 0,0 UV-I 0 W/m 8,9 C 9,0 C 12,9 km/h (3 Bft)
05.10.2022 05:49 10,1 C 9,4 C 92 % 1020,5 hPa 0,0 l/m 9,7 km/h (2 Bft) S 180 0 min 0,0 UV-I 0 W/m 8,9 C 7,9 C 12,9 km/h (3 Bft)
05.10.2022 05:50 10,1 C 9,4 C 92 % 1020,6 hPa 0,0 l/m 14,5 km/h (3 Bft) S 180 0 min 0,0 UV-I 0 W/m 8,9 C 5,5 C 20,9 km/h (4 Bft)
05.10.2022 05:51 10,1 C 9,4 C 92 % 1020,4 hPa 0,0 l/m 12,9 km/h (3 Bft) S-SW 202 0 min 0,0 UV-I 0 W/m 8,9 C 6,2 C 16,1 km/h (3 Bft)
05.10.2022 05:52 10,1 C 9,4 C 92 % 1020,5 hPa 0,0 l/m 12,9 km/h (3 Bft) S 180 0 min 0,0 UV-I 0 W/m 8,9 C 6,2 C 16,1 km/h (3 Bft)
05.10.2022 05:53 10,1 C 9,4 C 92 % 1020,5 hPa 0,0 l/m 11,3 km/h (2 Bft) S 180 0 min 0,0 UV-I 0 W/m 8,9 C 7,0 C 16,1 km/h (3 Bft)
05.10.2022 05:54 10,1 C 9,4 C 92 % 1020,4 hPa 0,0 l/m 11,3 km/h (2 Bft) S 180 0 min 0,0 UV-I 0 W/m 8,9 C 7,0 C 16,1 km/h (3 Bft)
05.10.2022 05:55 10,1 C 9,4 C 92 % 1020,4 hPa 0,0 l/m 11,3 km/h (2 Bft) S 180 0 min 0,0 UV-I 0 W/m 8,9 C 7,0 C 16,1 km/h (3 Bft)
05.10.2022 05:56 10,1 C 9,4 C 92 % 1020,5 hPa 0,0 l/m 11,3 km/h (2 Bft) S-SW 202 0 min 0,0 UV-I 0 W/m 8,9 C 7,0 C 14,5 km/h (3 Bft)
05.10.2022 05:57 10,1 C 9,4 C 92 % 1020,5 hPa 0,0 l/m 8,0 km/h (2 Bft) S 180 0 min 0,0 UV-I 0 W/m 8,9 C 9,0 C 14,5 km/h (3 Bft)
05.10.2022 05:58 10,1 C 9,4 C 92 % 1020,4 hPa 0,0 l/m 11,3 km/h (2 Bft) S 180 0 min 0,0 UV-I 0 W/m 8,9 C 7,0 C 14,5 km/h (3 Bft)
05.10.2022 05:59 10,1 C 9,4 C 92 % 1020,5 hPa 0,0 l/m 14,5 km/h (3 Bft) S-SW 202 0 min 0,0 UV-I 0 W/m 8,9 C 5,5 C 19,3 km/h (3 Bft)
05.10.2022 06:00 10,1 C 9,4 C 92 % 1020,4 hPa 0,0 l/m 8,0 km/h (2 Bft) S-SW 202 0 min 0,0 UV-I 0 W/m 8,9 C 9,0 C 14,5 km/h (3 Bft)
05.10.2022 06:01 10,1 C 9,4 C 92 % 1020,4 hPa 0,0 l/m 11,3 km/h (2 Bft) S-SW 202 0 min 0,0 UV-I 0 W/m 8,9 C 7,0 C 14,5 km/h (3 Bft)
05.10.2022 06:02 10,1 C 9,4 C 92 % 1020,4 hPa 0,0 l/m 9,7 km/h (2 Bft) S-SW 202 0 min 0,0 UV-I 0 W/m 8,9 C 7,9 C 11,3 km/h (2 Bft)
05.10.2022 06:03 10,1 C 9,4 C 92 % 1020,4 hPa 0,0 l/m 8,0 km/h (2 Bft) S-SW 202 0 min 0,0 UV-I 0 W/m 8,9 C 9,0 C 9,7 km/h (2 Bft)
05.10.2022 06:04 10,1 C 9,4 C 92 % 1020,4 hPa 0,0 l/m 12,9 km/h (3 Bft) S-SW 202 0 min 0,0 UV-I 0 W/m 8,9 C 6,2 C 17,7 km/h (3 Bft)
05.10.2022 06:05 10,1 C 9,4 C 92 % 1020,3 hPa 0,0 l/m 9,7 km/h (2 Bft) S-SW 202 0 min 0,0 UV-I 0 W/m 8,9 C 7,9 C 12,9 km/h (3 Bft)
05.10.2022 06:06 10,1 C 9,4 C 92 % 1020,3 hPa 0,0 l/m 9,7 km/h (2 Bft) S-SW 202 0 min 0,0 UV-I 0 W/m 8,9 C 7,9 C 14,5 km/h (3 Bft)
05.10.2022 06:07 10,1 C 9,4 C 92 % 1020,2 hPa 0,0 l/m 11,3 km/h (2 Bft) S-SW 202 0 min 0,0 UV-I 0 W/m 8,9 C 7,0 C 12,9 km/h (3 Bft)
05.10.2022 06:08 10,1 C 9,4 C 92 % 1020,4 hPa 0,0 l/m 12,9 km/h (3 Bft) S 180 0 min 0,0 UV-I 0 W/m 8,9 C 6,2 C 16,1 km/h (3 Bft)
05.10.2022 06:09 10,1 C 9,4 C 92 % 1020,3 hPa 0,0 l/m 11,3 km/h (2 Bft) S 180 0 min 0,0 UV-I 0 W/m 8,9 C 7,0 C 19,3 km/h (3 Bft)
05.10.2022 06:10 10,1 C 9,4 C 92 % 1020,2 hPa 0,0 l/m 11,3 km/h (2 Bft) S 180 0 min 0,0 UV-I 0 W/m 8,9 C 7,0 C 17,7 km/h (3 Bft)
05.10.2022 06:11 10,1 C 9,4 C 92 % 1020,4 hPa 0,0 l/m 8,0 km/h (2 Bft) S 180 0 min 0,0 UV-I 0 W/m 8,9 C 9,0 C 14,5 km/h (3 Bft)
05.10.2022 06:12 10,1 C 9,4 C 92 % 1020,3 hPa 0,0 l/m 12,9 km/h (3 Bft) S 180 0 min 0,0 UV-I 0 W/m 8,9 C 6,2 C 20,9 km/h (4 Bft)
05.10.2022 06:13 10,1 C 9,4 C 92 % 1020,2 hPa 0,0 l/m 11,3 km/h (2 Bft) S 180 0 min 0,0 UV-I 0 W/m 8,9 C 7,0 C 16,1 km/h (3 Bft)
05.10.2022 06:14 10,1 C 9,4 C 92 % 1020,2 hPa 0,0 l/m 12,9 km/h (3 Bft) SW 225 0 min 0,0 UV-I 0 W/m 8,9 C 6,2 C 17,7 km/h (3 Bft)
05.10.2022 06:15 10,1 C 9,4 C 92 % 1020,1 hPa 0,0 l/m 11,3 km/h (2 Bft) S-SW 202 0 min 0,0 UV-I 0 W/m 8,9 C 7,0 C 16,1 km/h (3 Bft)
05.10.2022 06:16 10,1 C 9,4 C 92 % 1020,2 hPa 0,0 l/m 9,7 km/h (2 Bft) S-SW 202 0 min 0,0 UV-I 0 W/m 8,9 C 7,9 C 12,9 km/h (3 Bft)
05.10.2022 06:17 10,1 C 9,4 C 92 % 1020,2 hPa 0,0 l/m 9,7 km/h (2 Bft) S 180 0 min 0,0 UV-I 0 W/m 8,9 C 7,9 C 12,9 km/h (3 Bft)
05.10.2022 06:18 10,1 C 9,4 C 92 % 1020,1 hPa 0,0 l/m 9,7 km/h (2 Bft) S-SW 202 0 min 0,0 UV-I 0 W/m 8,9 C 7,9 C 14,5 km/h (3 Bft)
05.10.2022 06:19 10,1 C 9,4 C 92 % 1020,1 hPa 0,0 l/m 11,3 km/h (2 Bft) S-SW 202 0 min 0,0 UV-I 0 W/m 8,9 C 7,0 C 14,5 km/h (3 Bft)
05.10.2022 06:20 10,1 C 9,4 C 92 % 1020,2 hPa 0,0 l/m 14,5 km/h (3 Bft) S-SW 202 0 min 0,0 UV-I 0 W/m 8,9 C 5,5 C 20,9 km/h (4 Bft)
05.10.2022 06:21 10,1 C 9,4 C 92 % 1020,1 hPa 0,0 l/m 11,3 km/h (2 Bft) S-SW 202 0 min 0,0 UV-I 0 W/m 8,9 C 7,0 C 16,1 km/h (3 Bft)
05.10.2022 06:22 10,1 C 9,4 C 92 % 1020,2 hPa 0,0 l/m 9,7 km/h (2 Bft) S 180 0 min 0,0 UV-I 0 W/m 8,9 C 7,9 C 19,3 km/h (3 Bft)
05.10.2022 06:23 10,1 C 9,4 C 92 % 1020,1 hPa 0,0 l/m 11,3 km/h (2 Bft) S-SW 202 0 min 0,0 UV-I 0 W/m 8,9 C 7,0 C 14,5 km/h (3 Bft)
05.10.2022 06:24 10,1 C 9,4 C 92 % 1020,1 hPa 0,0 l/m 11,3 km/h (2 Bft) S 180 0 min 0,0 UV-I 0 W/m 8,9 C 7,0 C 17,7 km/h (3 Bft)
05.10.2022 06:25 10,1 C 9,4 C 92 % 1020,1 hPa 0,0 l/m 14,5 km/h (3 Bft) S 180 0 min 0,0 UV-I 0 W/m 8,9 C 5,5 C 19,3 km/h (3 Bft)
05.10.2022 06:26 10,1 C 9,4 C 92 % 1020,0 hPa 0,0 l/m 14,5 km/h (3 Bft) S 180 0 min 0,0 UV-I 0 W/m 8,9 C 5,5 C 19,3 km/h (3 Bft)
05.10.2022 06:27 10,1 C 9,4 C 92 % 1020,1 hPa 0,0 l/m 11,3 km/h (2 Bft) S-SW 202 0 min 0,0 UV-I 0 W/m 8,9 C 7,0 C 16,1 km/h (3 Bft)
05.10.2022 06:28 10,1 C 9,4 C 92 % 1020,1 hPa 0,0 l/m 8,0 km/h (2 Bft) SW 225 0 min 0,0 UV-I 0 W/m 8,9 C 9,0 C 11,3 km/h (2 Bft)
05.10.2022 06:29 10,1 C 9,4 C 92 % 1020,1 hPa 0,0 l/m 9,7 km/h (2 Bft) S-SW 202 0 min 0,0 UV-I 0 W/m 8,9 C 7,9 C 14,5 km/h (3 Bft)
05.10.2022 06:30 10,1 C 9,4 C 92 % 1020,0 hPa 0,0 l/m 8,0 km/h (2 Bft) S 180 0 min 0,0 UV-I 0 W/m 8,9 C 9,0 C 12,9 km/h (3 Bft)
05.10.2022 06:31 10,1 C 8,9 C 92 % 1020,1 hPa 0,0 l/m 11,3 km/h (2 Bft) S-SW 202 0 min 0,0 UV-I 0 W/m 8,9 C 7,0 C 16,1 km/h (3 Bft)
05.10.2022 06:32 10,1 C 8,9 C 92 % 1020,0 hPa 0,0 l/m 9,7 km/h (2 Bft) S-SW 202 0 min 0,0 UV-I 0 W/m 8,9 C 7,9 C 14,5 km/h (3 Bft)
05.10.2022 06:33 10,1 C 8,9 C 92 % 1020,0 hPa 0,0 l/m 9,7 km/h (2 Bft) S 180 0 min 0,0 UV-I 0 W/m 8,9 C 7,9 C 12,9 km/h (3 Bft)
05.10.2022 06:34 10,1 C 8,9 C 92 % 1020,1 hPa 0,0 l/m 9,7 km/h (2 Bft) S-SW 202 0 min 0,0 UV-I 0 W/m 8,9 C 7,9 C 16,1 km/h (3 Bft)
05.10.2022 06:35 10,1 C 8,9 C 92 % 1020,1 hPa 0,0 l/m 11,3 km/h (2 Bft) S 180 0 min 0,0 UV-I 0 W/m 8,9 C 7,0 C 16,1 km/h (3 Bft)
05.10.2022 06:36 10,0 C 8,9 C 92 % 1020,1 hPa 0,0 l/m 9,7 km/h (2 Bft) S 180 0 min 0,0 UV-I 0 W/m 8,8 C 7,8 C 14,5 km/h (3 Bft)
05.10.2022 06:37 10,0 C 8,9 C 92 % 1020,1 hPa 0,0 l/m 8,0 km/h (2 Bft) S 180 0 min 0,0 UV-I 0 W/m 8,8 C 8,9 C 12,9 km/h (3 Bft)
05.10.2022 06:38 9,9 C 8,9 C 92 % 1020,1 hPa 0,0 l/m 9,7 km/h (2 Bft) S-SW 202 0 min 0,0 UV-I 0 W/m 8,7 C 7,7 C 16,1 km/h (3 Bft)
05.10.2022 06:39 10,0 C 8,9 C 92 % 1020,1 hPa 0,0 l/m 8,0 km/h (2 Bft) S-SW 202 0 min 0,0 UV-I 0 W/m 8,8 C 8,9 C 12,9 km/h (3 Bft)
05.10.2022 06:40 9,9 C 8,9 C 92 % 1020,1 hPa 0,0 l/m 6,4 km/h (2 Bft) S-SW 202 0 min 0,0 UV-I 0 W/m 8,7 C 9,9 C 8,0 km/h (2 Bft)
05.10.2022 06:41 9,9 C 8,9 C 92 % 1020,1 hPa 0,0 l/m 12,9 km/h (3 Bft) S-SW 202 0 min 0,0 UV-I 0 W/m 8,7 C 6,0 C 19,3 km/h (3 Bft)
05.10.2022 06:42 10,0 C 8,9 C 92 % 1020,1 hPa 0,0 l/m 11,3 km/h (2 Bft) S 180 0 min 0,0 UV-I 0 W/m 8,8 C 6,9 C 14,5 km/h (3 Bft)
05.10.2022 06:43 9,9 C 8,9 C 92 % 1020,0 hPa 0,0 l/m 11,3 km/h (2 Bft) S 180 0 min 0,0 UV-I 0 W/m 8,7 C 6,8 C 19,3 km/h (3 Bft)
05.10.2022 06:44 10,0 C 9,4 C 92 % 1020,1 hPa 0,0 l/m 9,7 km/h (2 Bft) S-SW 202 0 min 0,0 UV-I 0 W/m 8,8 C 7,8 C 14,5 km/h (3 Bft)
05.10.2022 06:45 10,0 C 9,4 C 92 % 1020,1 hPa 0,0 l/m 12,9 km/h (3 Bft) S-SW 202 0 min 0,0 UV-I 0 W/m 8,8 C 6,1 C 17,7 km/h (3 Bft)
05.10.2022 06:46 10,1 C 9,4 C 92 % 1020,0 hPa 0,0 l/m 9,7 km/h (2 Bft) S 180 0 min 0,0 UV-I 0 W/m 8,9 C 7,9 C 17,7 km/h (3 Bft)
05.10.2022 06:47 10,1 C 9,4 C 92 % 1020,1 hPa 0,0 l/m 11,3 km/h (2 Bft) S-SW 202 0 min 0,0 UV-I 0 W/m 8,9 C 7,0 C 19,3 km/h (3 Bft)
05.10.2022 06:48 10,1 C 9,4 C 92 % 1020,0 hPa 0,0 l/m 9,7 km/h (2 Bft) S-SO 157 0 min 0,0 UV-I 0 W/m 8,9 C 7,9 C 16,1 km/h (3 Bft)
05.10.2022 06:49 10,1 C 9,4 C 92 % 1020,0 hPa 0,0 l/m 8,0 km/h (2 Bft) S 180 0 min 0,0 UV-I 0 W/m 8,9 C 9,0 C 12,9 km/h (3 Bft)
05.10.2022 06:50 10,1 C 9,4 C 92 % 1019,9 hPa 0,0 l/m 11,3 km/h (2 Bft) S 180 0 min 0,0 UV-I 0 W/m 8,9 C 7,0 C 22,5 km/h (4 Bft)
05.10.2022 06:51 10,1 C 9,4 C 92 % 1020,0 hPa 0,0 l/m 11,3 km/h (2 Bft) S-SO 157 0 min 0,0 UV-I 0 W/m 8,9 C 7,0 C 17,7 km/h (3 Bft)
05.10.2022 06:52 10,1 C 9,4 C 92 % 1020,0 hPa 0,0 l/m 9,7 km/h (2 Bft) S-SW 202 0 min 0,0 UV-I 0 W/m 8,9 C 7,9 C 14,5 km/h (3 Bft)
05.10.2022 06:53 10,1 C 9,4 C 92 % 1020,0 hPa 0,0 l/m 8,0 km/h (2 Bft) S 180 0 min 0,0 UV-I 0 W/m 8,9 C 9,0 C 12,9 km/h (3 Bft)
05.10.2022 06:54 10,0 C 8,9 C 92 % 1019,9 hPa 0,0 l/m 9,7 km/h (2 Bft) S 180 0 min 0,0 UV-I 0 W/m 8,8 C 7,8 C 17,7 km/h (3 Bft)
05.10.2022 06:55 10,1 C 8,9 C 92 % 1019,9 hPa 0,0 l/m 11,3 km/h (2 Bft) S 180 0 min 0,0 UV-I 0 W/m 8,9 C 7,0 C 19,3 km/h (3 Bft)
05.10.2022 06:56 10,0 C 8,9 C 92 % 1019,9 hPa 0,0 l/m 8,0 km/h (2 Bft) S-SW 202 0 min 0,0 UV-I 0 W/m 8,8 C 8,9 C 11,3 km/h (2 Bft)
05.10.2022 06:57 10,0 C 8,9 C 92 % 1019,9 hPa 0,0 l/m 14,5 km/h (3 Bft) S-SW 202 0 min 0,0 UV-I 0 W/m 8,8 C 5,3 C 19,3 km/h (3 Bft)
05.10.2022 06:58 10,0 C 8,9 C 92 % 1020,0 hPa 0,0 l/m 8,0 km/h (2 Bft) S 180 0 min 0,0 UV-I 0 W/m 8,8 C 8,9 C 12,9 km/h (3 Bft)
05.10.2022 06:59 10,0 C 8,9 C 92 % 1019,9 hPa 0,0 l/m 11,3 km/h (2 Bft) S-SW 202 0 min 0,0 UV-I 0 W/m 8,8 C 6,9 C 16,1 km/h (3 Bft)
05.10.2022 07:00 9,9 C 8,9 C 92 % 1020,0 hPa 0,0 l/m 8,0 km/h (2 Bft) S 180 0 min 0,0 UV-I 0 W/m 8,7 C 8,7 C 17,7 km/h (3 Bft)
05.10.2022 07:01 10,0 C 8,9 C 92 % 1019,9 hPa 0,0 l/m 14,5 km/h (3 Bft) S-SW 202 0 min 0,0 UV-I 0 W/m 8,8 C 5,3 C 19,3 km/h (3 Bft)
05.10.2022 07:02 10,0 C 8,9 C 92 % 1019,9 hPa 0,0 l/m 9,7 km/h (2 Bft) S-SO 157 0 min 0,0 UV-I 0 W/m 8,8 C 7,8 C 16,1 km/h (3 Bft)
05.10.2022 07:03 10,1 C 8,9 C 92 % 1019,9 hPa 0,0 l/m 8,0 km/h (2 Bft) S 180 0 min 0,0 UV-I 0 W/m 8,9 C 9,0 C 16,1 km/h (3 Bft)
05.10.2022 07:04 10,0 C 8,9 C 92 % 1019,9 hPa 0,0 l/m 12,9 km/h (3 Bft) S 180 0 min 0,0 UV-I 0 W/m 8,8 C 6,1 C 20,9 km/h (4 Bft)
05.10.2022 07:05 10,0 C 8,9 C 92 % 1020,0 hPa 0,0 l/m 8,0 km/h (2 Bft) S-SW 202 0 min 0,0 UV-I 0 W/m 8,8 C 8,9 C 12,9 km/h (3 Bft)
05.10.2022 07:06 10,0 C 8,9 C 92 % 1019,9 hPa 0,0 l/m 11,3 km/h (2 Bft) S 180 0 min 0,0 UV-I 0 W/m 8,8 C 6,9 C 14,5 km/h (3 Bft)
05.10.2022 07:07 10,0 C 8,9 C 92 % 1020,0 hPa 0,0 l/m 14,5 km/h (3 Bft) S 180 0 min 0,0 UV-I 0 W/m 8,8 C 5,3 C 19,3 km/h (3 Bft)
05.10.2022 07:08 10,0 C 8,9 C 92 % 1020,0 hPa 0,0 l/m 11,3 km/h (2 Bft) S 180 0 min 0,0 UV-I 0 W/m 8,8 C 6,9 C 17,7 km/h (3 Bft)
05.10.2022 07:09 10,1 C 8,9 C 92 % 1019,9 hPa 0,0 l/m 12,9 km/h (3 Bft) S-SW 202 0 min 0,0 UV-I 0 W/m 8,9 C 6,2 C 20,9 km/h (4 Bft)
05.10.2022 07:10 10,1 C 8,9 C 92 % 1019,9 hPa 0,0 l/m 11,3 km/h (2 Bft) S-SW 202 0 min 0,0 UV-I 0 W/m 8,9 C 7,0 C 19,3 km/h (3 Bft)
05.10.2022 07:11 10,1 C 8,9 C 92 % 1019,9 hPa 0,0 l/m 11,3 km/h (2 Bft) S-SW 202 0 min 0,0 UV-I 0 W/m 8,9 C 7,0 C 16,1 km/h (3 Bft)
05.10.2022 07:12 10,1 C 9,4 C 92 % 1019,9 hPa 0,0 l/m 11,3 km/h (2 Bft) S-SW 202 0 min 0,0 UV-I 0 W/m 8,9 C 7,0 C 17,7 km/h (3 Bft)
05.10.2022 07:13 10,1 C 9,4 C 92 % 1019,9 hPa 0,0 l/m 14,5 km/h (3 Bft) S-SW 202 0 min 0,0 UV-I 0 W/m 8,9 C 5,5 C 22,5 km/h (4 Bft)
05.10.2022 07:14 10,1 C 9,4 C 92 % 1020,0 hPa 0,0 l/m 11,3 km/h (2 Bft) S 180 0 min 0,0 UV-I 0 W/m 8,9 C 7,0 C 19,3 km/h (3 Bft)
05.10.2022 07:15 10,2 C 9,4 C 92 % 1019,8 hPa 0,0 l/m 12,9 km/h (3 Bft) S-SW 202 0 min 0,0 UV-I 0 W/m 9,0 C 6,3 C 19,3 km/h (3 Bft)
05.10.2022 07:16 10,1 C 9,4 C 92 % 1020,0 hPa 0,0 l/m 9,7 km/h (2 Bft) S-SW 202 0 min 0,0 UV-I 0 W/m 8,9 C 7,9 C 12,9 km/h (3 Bft)
05.10.2022 07:17 10,1 C 9,4 C 92 % 1019,9 hPa 0,0 l/m 8,0 km/h (2 Bft) S-SW 202 0 min 0,0 UV-I 0 W/m 8,9 C 9,0 C 14,5 km/h (3 Bft)
05.10.2022 07:18 10,1 C 8,9 C 92 % 1019,9 hPa 0,0 l/m 9,7 km/h (2 Bft) S 180 0 min 0,0 UV-I 0 W/m 8,9 C 7,9 C 12,9 km/h (3 Bft)
05.10.2022 07:19 10,1 C 9,4 C 92 % 1020,0 hPa 0,0 l/m 9,7 km/h (2 Bft) S-SW 202 0 min 0,0 UV-I 0 W/m 8,9 C 7,9 C 16,1 km/h (3 Bft)
05.10.2022 07:20 10,2 C 9,4 C 92 % 1019,8 hPa 0,0 l/m 11,3 km/h (2 Bft) S 180 0 min 0,0 UV-I 0 W/m 9,0 C 7,1 C 16,1 km/h (3 Bft)
05.10.2022 07:21 10,2 C 8,9 C 92 % 1019,9 hPa 0,0 l/m 12,9 km/h (3 Bft) S-SW 202 0 min 0,0 UV-I 0 W/m 9,0 C 6,3 C 16,1 km/h (3 Bft)
05.10.2022 07:22 10,1 C 9,4 C 92 % 1019,9 hPa 0,0 l/m 17,7 km/h (3 Bft) S-SW 202 0 min 0,0 UV-I 0 W/m 8,9 C 4,2 C 20,9 km/h (4 Bft)
05.10.2022 07:23 10,2 C 9,4 C 92 % 1019,8 hPa 0,0 l/m 14,5 km/h (3 Bft) S-SW 202 0 min 0,0 UV-I 0 W/m 9,0 C 5,6 C 19,3 km/h (3 Bft)
05.10.2022 07:24 10,2 C 9,4 C 92 % 1019,9 hPa 0,0 l/m 8,0 km/h (2 Bft) S 180 0 min 0,0 UV-I 0 W/m 9,0 C 9,1 C 12,9 km/h (3 Bft)
05.10.2022 07:25 10,2 C 9,4 C 92 % 1019,9 hPa 0,0 l/m 12,9 km/h (3 Bft) S-SW 202 0 min 0,0 UV-I 0 W/m 9,0 C 6,3 C 17,7 km/h (3 Bft)
05.10.2022 07:26 10,2 C 9,4 C 92 % 1019,9 hPa 0,0 l/m 9,7 km/h (2 Bft) S-SW 202 0 min 0,0 UV-I 0 W/m 9,0 C 8,0 C 14,5 km/h (3 Bft)
05.10.2022 07:27 10,2 C 9,4 C 92 % 1019,8 hPa 0,0 l/m 12,9 km/h (3 Bft) S-SW 202 0 min 0,0 UV-I 0 W/m 9,0 C 6,3 C 17,7 km/h (3 Bft)
05.10.2022 07:28 10,2 C 9,4 C 92 % 1019,9 hPa 0,0 l/m 14,5 km/h (3 Bft) S-SW 202 0 min 0,0 UV-I 0 W/m 9,0 C 5,6 C 22,5 km/h (4 Bft)
05.10.2022 07:29 10,2 C 9,4 C 92 % 1019,9 hPa 0,0 l/m 12,9 km/h (3 Bft) S 180 0 min 0,0 UV-I 0 W/m 9,0 C 6,3 C 20,9 km/h (4 Bft)
05.10.2022 07:30 10,2 C 9,4 C 92 % 1019,8 hPa 0,0 l/m 12,9 km/h (3 Bft) S 180 0 min 0,0 UV-I 0 W/m 9,0 C 6,3 C 22,5 km/h (4 Bft)
05.10.2022 07:31 10,2 C 9,4 C 92 % 1019,8 hPa 0,0 l/m 11,3 km/h (2 Bft) S-SW 202 0 min 0,0 UV-I 0 W/m 9,0 C 7,1 C 17,7 km/h (3 Bft)
05.10.2022 07:32 10,3 C 9,4 C 92 % 1019,8 hPa 0,0 l/m 11,3 km/h (2 Bft) S-SW 202 0 min 0,0 UV-I 0 W/m 9,1 C 7,2 C 16,1 km/h (3 Bft)
05.10.2022 07:33 10,3 C 9,4 C 92 % 1019,9 hPa 0,0 l/m 11,3 km/h (2 Bft) S-SO 157 0 min 0,0 UV-I 0 W/m 9,1 C 7,2 C 17,7 km/h (3 Bft)
05.10.2022 07:34 10,2 C 9,4 C 92 % 1019,8 hPa 0,0 l/m 11,3 km/h (2 Bft) S 180 0 min 0,0 UV-I 0 W/m 9,0 C 7,1 C 20,9 km/h (4 Bft)
05.10.2022 07:35 10,2 C 9,4 C 92 % 1019,9 hPa 0,0 l/m 12,9 km/h (3 Bft) S 180 0 min 0,0 UV-I 0 W/m 9,0 C 6,3 C 17,7 km/h (3 Bft)
05.10.2022 07:36 10,2 C 9,4 C 92 % 1019,8 hPa 0,0 l/m 11,3 km/h (2 Bft) S-SW 202 0 min 0,0 UV-I 0 W/m 9,0 C 7,1 C 14,5 km/h (3 Bft)
05.10.2022 07:37 10,3 C 9,4 C 92 % 1019,9 hPa 0,0 l/m 14,5 km/h (3 Bft) S-SW 202 0 min 0,0 UV-I 0 W/m 9,1 C 5,7 C 20,9 km/h (4 Bft)
05.10.2022 07:38 10,3 C 9,4 C 92 % 1019,9 hPa 0,0 l/m 12,9 km/h (3 Bft) S 180 0 min 0,0 UV-I 0 W/m 9,1 C 6,4 C 19,3 km/h (3 Bft)
05.10.2022 07:39 10,3 C 9,4 C 92 % 1019,8 hPa 0,0 l/m 14,5 km/h (3 Bft) S-SW 202 0 min 0,0 UV-I 0 W/m 9,1 C 5,7 C 20,9 km/h (4 Bft)
05.10.2022 07:40 10,3 C 9,4 C 92 % 1019,8 hPa 0,0 l/m 12,9 km/h (3 Bft) S-SW 202 0 min 0,0 UV-I 0 W/m 9,1 C 6,4 C 19,3 km/h (3 Bft)
05.10.2022 07:41 10,3 C 9,4 C 92 % 1019,7 hPa 0,0 l/m 16,1 km/h (3 Bft) S 180 0 min 0,0 UV-I 0 W/m 9,1 C 5,1 C 24,1 km/h (4 Bft)
05.10.2022 07:42 10,4 C 9,4 C 92 % 1019,8 hPa 0,0 l/m 11,3 km/h (2 Bft) S-SW 202 0 min 0,0 UV-I 0 W/m 9,2 C 7,3 C 19,3 km/h (3 Bft)
05.10.2022 07:43 10,4 C 9,4 C 92 % 1019,9 hPa 0,0 l/m 12,9 km/h (3 Bft) S-SW 202 0 min 0,0 UV-I 0 W/m 9,2 C 6,5 C 19,3 km/h (3 Bft)
05.10.2022 07:44 10,4 C 9,4 C 92 % 1019,8 hPa 0,0 l/m 12,9 km/h (3 Bft) S 180 0 min 0,0 UV-I 0 W/m 9,2 C 6,5 C 19,3 km/h (3 Bft)
05.10.2022 07:45 10,4 C 9,4 C 92 % 1019,8 hPa 0,0 l/m 12,9 km/h (3 Bft) S-SW 202 0 min 0,0 UV-I 0 W/m 9,2 C 6,5 C 27,4 km/h (4 Bft)
05.10.2022 07:46 10,4 C 9,4 C 92 % 1019,8 hPa 0,0 l/m 17,7 km/h (3 Bft) S-SW 202 0 min 0,0 UV-I 0 W/m 9,2 C 4,6 C 22,5 km/h (4 Bft)
05.10.2022 07:47 10,4 C 9,4 C 92 % 1019,8 hPa 0,0 l/m 12,9 km/h (3 Bft) S 180 0 min 0,0 UV-I 0 W/m 9,2 C 6,5 C 22,5 km/h (4 Bft)
05.10.2022 07:51 10,4 C 9,4 C 92 % 1019,9 hPa 0,0 l/m 13,0 km/h (3 Bft) S 190 0 min 0,0 UV-I 5 W/m 9,2 C 6,5 C 22,5 km/h (4 Bft)
05.10.2022 07:54 10,5 C 9,4 C 92 % 1019,8 hPa 0,0 l/m 15,3 km/h (3 Bft) S-SW 192 0 min 0,0 UV-I 7 W/m 9,3 C 5,6 C 27,4 km/h (4 Bft)
05.10.2022 07:57 10,5 C 9,4 C 92 % 1019,9 hPa 0,0 l/m 13,8 km/h (3 Bft) S 189 0 min 0,0 UV-I 10 W/m 9,3 C 6,3 C 27,4 km/h (4 Bft)
05.10.2022 08:00 10,6 C 9,4 C 92 % 1019,9 hPa 0,0 l/m 13,8 km/h (3 Bft) S-SW 203 0 min 0,0 UV-I 11 W/m 9,4 C 6,4 C 27,4 km/h (4 Bft)
05.10.2022 08:03 10,6 C 10,0 C 91 % 1019,8 hPa 0,0 l/m 17,3 km/h (3 Bft) S 177 0 min 0,0 UV-I 12 W/m 9,2 C 5,0 C 30,6 km/h (5 Bft)
05.10.2022 08:06 10,6 C 10,0 C 91 % 1019,8 hPa 0,0 l/m 15,3 km/h (3 Bft) S 171 0 min 0,0 UV-I 15 W/m 9,2 C 5,7 C 30,6 km/h (5 Bft)
05.10.2022 08:09 10,6 C 10,0 C 91 % 1019,8 hPa 0,0 l/m 17,2 km/h (3 Bft) S 177 0 min 0,0 UV-I 18 W/m 9,2 C 5,0 C 33,8 km/h (5 Bft)
05.10.2022 08:12 10,7 C 10,0 C 91 % 1019,8 hPa 0,0 l/m 19,1 km/h (3 Bft) S 188 0 min 0,0 UV-I 19 W/m 9,3 C 4,5 C 32,2 km/h (5 Bft)
05.10.2022 08:15 10,7 C 10,0 C 91 % 1019,9 hPa 0,0 l/m 17,8 km/h (3 Bft) S 175 0 min 0,0 UV-I 23 W/m 9,3 C 4,9 C 38,6 km/h (5 Bft)
05.10.2022 08:18 10,7 C 10,0 C 91 % 1019,8 hPa 0,0 l/m 18,9 km/h (3 Bft) S-SO 167 0 min 0,0 UV-I 24 W/m 9,3 C 4,5 C 38,6 km/h (5 Bft)
05.10.2022 08:21 10,7 C 10,0 C 91 % 1019,9 hPa 0,0 l/m 17,9 km/h (3 Bft) S-SO 156 0 min 0,0 UV-I 27 W/m 9,3 C 4,9 C 33,8 km/h (5 Bft)
05.10.2022 08:24 10,7 C 10,0 C 91 % 1019,8 hPa 0,0 l/m 18,0 km/h (3 Bft) S 188 0 min 0,0 UV-I 33 W/m 9,3 C 4,9 C 29,0 km/h (5 Bft)
05.10.2022 08:27 10,8 C 10,0 C 91 % 1019,6 hPa 0,0 l/m 16,7 km/h (3 Bft) S 183 0 min 0,0 UV-I 33 W/m 9,4 C 5,4 C 30,6 km/h (5 Bft)
05.10.2022 08:30 10,8 C 10,0 C 91 % 1019,7 hPa 0,0 l/m 17,1 km/h (3 Bft) S-SW 198 0 min 0,0 UV-I 40 W/m 9,4 C 5,3 C 29,0 km/h (5 Bft)
05.10.2022 08:33 10,8 C 10,0 C 91 % 1019,8 hPa 0,0 l/m 16,0 km/h (3 Bft) S 182 0 min 0,0 UV-I 37 W/m 9,4 C 5,7 C 27,4 km/h (4 Bft)
05.10.2022 08:36 10,8 C 10,0 C 91 % 1019,7 hPa 0,0 l/m 18,4 km/h (3 Bft) S 178 0 min 0,0 UV-I 40 W/m 9,4 C 4,8 C 40,2 km/h (6 Bft)
05.10.2022 08:39 10,8 C 10,6 C 91 % 1019,7 hPa 0,0 l/m 17,5 km/h (3 Bft) S 187 0 min 0,0 UV-I 44 W/m 9,4 C 5,2 C 33,8 km/h (5 Bft)
05.10.2022 08:42 10,9 C 10,6 C 91 % 1019,8 hPa 0,0 l/m 15,0 km/h (3 Bft) S 178 0 min 0,0 UV-I 55 W/m 9,5 C 6,2 C 29,0 km/h (5 Bft)
05.10.2022 08:45 10,9 C 10,6 C 91 % 1019,6 hPa 0,0 l/m 18,1 km/h (3 Bft) S-SW 209 0 min 0,0 UV-I 57 W/m 9,5 C 5,1 C 32,2 km/h (5 Bft)
05.10.2022 08:48 11,1 C 10,6 C 91 % 1019,6 hPa 0,0 l/m 20,0 km/h (4 Bft) S 175 0 min 0,0 UV-I 58 W/m 9,7 C 4,7 C 35,4 km/h (5 Bft)
05.10.2022 08:51 11,1 C 10,6 C 91 % 1019,8 hPa 0,0 l/m 15,4 km/h (3 Bft) S-SW 200 0 min 0,0 UV-I 66 W/m 9,7 C 6,3 C 32,2 km/h (5 Bft)
05.10.2022 08:54 11,2 C 11,1 C 90 % 1019,9 hPa 0,0 l/m 17,7 km/h (3 Bft) S 177 0 min 0,0 UV-I 64 W/m 9,6 C 5,6 C 33,8 km/h (5 Bft)
05.10.2022 08:57 11,2 C 11,1 C 90 % 1019,8 hPa 0,0 l/m 17,4 km/h (3 Bft) SW 217 0 min 0,0 UV-I 60 W/m 9,6 C 5,7 C 27,4 km/h (4 Bft)
05.10.2022 09:00 11,3 C 11,1 C 90 % 1019,6 hPa 0,0 l/m 17,5 km/h (3 Bft) S-SW 202 0 min 0,0 UV-I 54 W/m 9,7 C 5,8 C 25,7 km/h (4 Bft)
05.10.2022 09:03 11,3 C 11,1 C 90 % 1019,8 hPa 0,0 l/m 16,0 km/h (3 Bft) S-SW 193 0 min 0,0 UV-I 67 W/m 9,7 C 6,3 C 37,0 km/h (5 Bft)
05.10.2022 09:06 11,3 C 11,1 C 90 % 1019,8 hPa 0,0 l/m 17,4 km/h (3 Bft) S 188 0 min 0,0 UV-I 71 W/m 9,7 C 5,8 C 25,7 km/h (4 Bft)
05.10.2022 09:09 11,4 C 11,1 C 90 % 1019,6 hPa 0,0 l/m 16,8 km/h (3 Bft) S 185 0 min 0,0 UV-I 70 W/m 9,8 C 6,2 C 27,4 km/h (4 Bft)
05.10.2022 09:12 11,4 C 11,1 C 90 % 1019,6 hPa 0,0 l/m 18,0 km/h (3 Bft) S-SO 168 0 min 0,0 UV-I 79 W/m 9,8 C 5,7 C 33,8 km/h (5 Bft)
05.10.2022 09:15 11,5 C 11,1 C 89 % 1019,7 hPa 0,2 l/m 17,4 km/h (3 Bft) S 188 0 min 0,0 UV-I 70 W/m 9,8 C 6,1 C 32,2 km/h (5 Bft)
05.10.2022 09:18 11,5 C 11,1 C 89 % 1019,7 hPa 0,0 l/m 16,8 km/h (3 Bft) S 180 0 min 0,0 UV-I 76 W/m 9,8 C 6,3 C 25,7 km/h (4 Bft)
05.10.2022 09:21 11,6 C 11,1 C 89 % 1019,6 hPa 0,0 l/m 19,0 km/h (3 Bft) S 169 0 min 0,0 UV-I 86 W/m 9,8 C 5,7 C 32,2 km/h (5 Bft)
05.10.2022 09:24 11,6 C 11,7 C 89 % 1019,7 hPa 0,0 l/m 15,9 km/h (3 Bft) S-SO 159 0 min 0,1 UV-I 88 W/m 9,8 C 6,7 C 29,0 km/h (5 Bft)
05.10.2022 09:27 11,6 C 11,7 C 89 % 1019,6 hPa 0,0 l/m 18,0 km/h (3 Bft) S 169 0 min 0,5 UV-I 93 W/m 9,8 C 6,0 C 32,2 km/h (5 Bft)
05.10.2022 09:30 11,6 C 11,7 C 89 % 1019,7 hPa 0,0 l/m 19,6 km/h (3 Bft) S-SO 165 0 min 0,3 UV-I 96 W/m 9,8 C 5,5 C 30,6 km/h (5 Bft)
05.10.2022 09:33 11,7 C 11,7 C 89 % 1019,7 hPa 0,0 l/m 21,2 km/h (4 Bft) S 184 0 min 0,5 UV-I 103 W/m 9,9 C 5,1 C 29,0 km/h (5 Bft)
05.10.2022 09:36 11,7 C 11,7 C 89 % 1019,6 hPa 0,0 l/m 20,9 km/h (4 Bft) S-SW 198 0 min 0,5 UV-I 103 W/m 9,9 C 5,2 C 32,2 km/h (5 Bft)
05.10.2022 09:39 11,8 C 11,7 C 89 % 1019,8 hPa 0,0 l/m 16,2 km/h (3 Bft) S-SW 200 0 min 0,5 UV-I 101 W/m 10,0 C 6,9 C 29,0 km/h (5 Bft)
05.10.2022 09:42 11,8 C 11,7 C 89 % 1019,8 hPa 0,0 l/m 18,1 km/h (3 Bft) S 188 0 min 0,5 UV-I 100 W/m 10,0 C 6,2 C 33,8 km/h (5 Bft)
05.10.2022 09:45 11,8 C 11,7 C 89 % 1019,6 hPa 0,0 l/m 19,9 km/h (4 Bft) S-SW 203 0 min 0,5 UV-I 97 W/m 10,0 C 5,6 C 30,6 km/h (5 Bft)
05.10.2022 09:48 11,8 C 11,7 C 89 % 1019,6 hPa 0,0 l/m 15,4 km/h (3 Bft) S-SO 167 0 min 0,4 UV-I 94 W/m 10,0 C 7,2 C 22,5 km/h (4 Bft)
05.10.2022 09:51 11,8 C 11,7 C 88 % 1019,6 hPa 0,0 l/m 18,8 km/h (3 Bft) S 179 0 min 0,5 UV-I 99 W/m 9,9 C 6,0 C 30,6 km/h (5 Bft)
05.10.2022 09:54 11,8 C 11,7 C 88 % 1019,6 hPa 0,0 l/m 15,7 km/h (3 Bft) SW 215 0 min 0,5 UV-I 98 W/m 9,9 C 7,0 C 27,4 km/h (4 Bft)
05.10.2022 09:57 11,9 C 11,7 C 88 % 1019,7 hPa 0,0 l/m 17,0 km/h (3 Bft) S-SO 155 0 min 0,5 UV-I 98 W/m 10,0 C 6,7 C 25,7 km/h (4 Bft)
05.10.2022 10:00 11,9 C 11,7 C 88 % 1019,9 hPa 0,0 l/m 21,5 km/h (4 Bft) S-SO 154 0 min 0,6 UV-I 107 W/m 10,0 C 5,3 C 33,8 km/h (5 Bft)
05.10.2022 10:03 11,9 C 11,7 C 88 % 1019,7 hPa 0,0 l/m 17,1 km/h (3 Bft) S-SW 200 0 min 0,5 UV-I 98 W/m 10,0 C 6,7 C 37,0 km/h (5 Bft)
05.10.2022 10:06 11,9 C 11,7 C 88 % 1019,8 hPa 0,0 l/m 18,8 km/h (3 Bft) SW 215 0 min 0,6 UV-I 105 W/m 10,0 C 6,1 C 30,6 km/h (5 Bft)
05.10.2022 10:09 11,9 C 11,7 C 88 % 1019,7 hPa 0,0 l/m 16,6 km/h (3 Bft) S-SW 209 0 min 0,6 UV-I 109 W/m 10,0 C 6,8 C 30,6 km/h (5 Bft)
05.10.2022 10:12 11,9 C 11,7 C 88 % 1019,8 hPa 0,0 l/m 19,2 km/h (3 Bft) S 181 0 min 0,7 UV-I 121 W/m 10,0 C 6,0 C 32,2 km/h (5 Bft)
05.10.2022 10:15 11,9 C 11,7 C 88 % 1019,8 hPa 0,0 l/m 18,6 km/h (3 Bft) S 180 0 min 0,6 UV-I 122 W/m 10,0 C 6,2 C 30,6 km/h (5 Bft)
05.10.2022 10:18 12,0 C 11,7 C 88 % 1019,9 hPa 0,0 l/m 19,4 km/h (3 Bft) S 189 0 min 0,7 UV-I 130 W/m 10,1 C 6,1 C 30,6 km/h (5 Bft)
05.10.2022 10:21 11,9 C 11,7 C 87 % 1019,9 hPa 0,0 l/m 24,0 km/h (4 Bft) S-SW 208 0 min 0,7 UV-I 106 W/m 9,8 C 4,7 C 40,2 km/h (6 Bft)
05.10.2022 10:24 11,9 C 11,7 C 87 % 1019,8 hPa 0,0 l/m 18,7 km/h (3 Bft) S 182 0 min 0,7 UV-I 114 W/m 9,8 C 6,1 C 27,4 km/h (4 Bft)
05.10.2022 10:27 11,9 C 11,7 C 87 % 1019,8 hPa 0,0 l/m 20,9 km/h (4 Bft) SW 223 0 min 0,7 UV-I 122 W/m 9,8 C 5,5 C 35,4 km/h (5 Bft)
05.10.2022 10:30 11,9 C 12,2 C 87 % 1019,8 hPa 0,0 l/m 16,5 km/h (3 Bft) S-SO 168 0 min 0,7 UV-I 120 W/m 9,8 C 6,9 C 30,6 km/h (5 Bft)
05.10.2022 10:33 12,1 C 12,2 C 88 % 1019,9 hPa 0,0 l/m 13,3 km/h (3 Bft) S-SW 205 0 min 0,7 UV-I 125 W/m 10,2 C 8,4 C 19,3 km/h (3 Bft)
05.10.2022 10:36 12,0 C 12,2 C 87 % 1019,8 hPa 0,0 l/m 20,7 km/h (4 Bft) S 183 0 min 0,8 UV-I 131 W/m 9,9 C 5,7 C 35,4 km/h (5 Bft)
05.10.2022 10:39 12,0 C 12,2 C 87 % 1019,9 hPa 0,0 l/m 17,6 km/h (3 Bft) SW 220 0 min 0,8 UV-I 132 W/m 9,9 C 6,6 C 27,4 km/h (4 Bft)
05.10.2022 10:42 12,0 C 12,2 C 87 % 1020,0 hPa 0,0 l/m 21,6 km/h (4 Bft) S 188 0 min 1,0 UV-I 149 W/m 9,9 C 5,4 C 35,4 km/h (5 Bft)
05.10.2022 10:45 12,1 C 12,2 C 87 % 1019,7 hPa 0,0 l/m 18,7 km/h (3 Bft) S 191 0 min 0,9 UV-I 140 W/m 10,0 C 6,4 C 32,2 km/h (5 Bft)
05.10.2022 10:48 12,1 C 12,2 C 87 % 1019,8 hPa 0,0 l/m 25,3 km/h (4 Bft) S 170 0 min 1,0 UV-I 169 W/m 10,0 C 4,6 C 41,8 km/h (6 Bft)
05.10.2022 10:51 12,1 C 12,8 C 87 % 1019,9 hPa 0,0 l/m 19,3 km/h (3 Bft) S 171 0 min 1,3 UV-I 212 W/m 10,0 C 6,2 C 32,2 km/h (5 Bft)
05.10.2022 10:54 12,2 C 12,8 C 87 % 1019,8 hPa 0,0 l/m 21,8 km/h (4 Bft) S-SW 200 0 min 1,3 UV-I 189 W/m 10,1 C 5,6 C 38,6 km/h (5 Bft)
05.10.2022 10:57 12,1 C 12,8 C 86 % 1019,8 hPa 0,0 l/m 21,1 km/h (4 Bft) S-SO 165 0 min 1,3 UV-I 204 W/m 9,8 C 5,7 C 35,4 km/h (5 Bft)
05.10.2022 11:00 12,3 C 12,8 C 87 % 1019,8 hPa 0,0 l/m 18,0 km/h (3 Bft) S-SW 196 0 min 1,3 UV-I 193 W/m 10,2 C 6,9 C 40,2 km/h (6 Bft)
05.10.2022 11:03 12,3 C 12,8 C 86 % 1019,7 hPa 0,0 l/m 18,4 km/h (3 Bft) SW 227 0 min 1,4 UV-I 242 W/m 10,0 C 6,7 C 30,6 km/h (5 Bft)
05.10.2022 11:09 12,3 C 13,3 C 86 % 1019,7 hPa 0,0 l/m 21,2 km/h (4 Bft) S 184 0 min 1,5 UV-I 222 W/m 10,0 C 5,9 C 37,0 km/h (5 Bft)
05.10.2022 11:12 12,3 C 12,8 C 85 % 1019,9 hPa 0,0 l/m 25,3 km/h (4 Bft) S-SW 195 0 min 1,6 UV-I 242 W/m 9,9 C 4,9 C 40,2 km/h (6 Bft)
05.10.2022 11:15 12,4 C 13,3 C 86 % 1019,9 hPa 0,0 l/m 20,4 km/h (4 Bft) SW 225 0 min 1,8 UV-I 226 W/m 10,1 C 6,3 C 32,2 km/h (5 Bft)
05.10.2022 11:18 12,4 C 13,9 C 86 % 1019,8 hPa 0,0 l/m 23,8 km/h (4 Bft) S 173 0 min 2,0 UV-I 242 W/m 10,1 C 5,4 C 33,8 km/h (5 Bft)
05.10.2022 11:21 12,6 C 14,4 C 86 % 1019,8 hPa 0,0 l/m 20,5 km/h (4 Bft) S-SW 196 0 min 1,7 UV-I 301 W/m 10,3 C 6,5 C 35,4 km/h (5 Bft)
05.10.2022 11:24 12,6 C 13,9 C 85 % 1020,0 hPa 0,0 l/m 25,2 km/h (4 Bft) S 189 0 min 2,0 UV-I 299 W/m 10,1 C 5,3 C 38,6 km/h (5 Bft)
05.10.2022 11:27 12,7 C 14,4 C 86 % 1019,8 hPa 0,0 l/m 20,3 km/h (4 Bft) S-SW 198 0 min 2,0 UV-I 373 W/m 10,4 C 6,7 C 38,6 km/h (5 Bft)
05.10.2022 11:30 12,9 C 14,4 C 85 % 1019,8 hPa 0,0 l/m 19,0 km/h (3 Bft) S 176 0 min 1,8 UV-I 339 W/m 10,4 C 7,3 C 32,2 km/h (5 Bft)
05.10.2022 11:33 12,7 C 13,9 C 84 % 1019,8 hPa 0,0 l/m 24,0 km/h (4 Bft) S 188 0 min 1,6 UV-I 272 W/m 10,1 C 5,7 C 35,4 km/h (5 Bft)
05.10.2022 11:36 12,6 C 13,3 C 85 % 1019,8 hPa 0,0 l/m 19,5 km/h (3 Bft) S 190 0 min 1,4 UV-I 209 W/m 10,1 C 6,8 C 33,8 km/h (5 Bft)
05.10.2022 11:39 12,5 C 12,8 C 85 % 1019,8 hPa 0,0 l/m 26,0 km/h (4 Bft) S 186 0 min 1,3 UV-I 208 W/m 10,0 C 5,0 C 40,2 km/h (6 Bft)
05.10.2022 11:42 12,6 C 13,3 C 85 % 1020,0 hPa 0,0 l/m 15,6 km/h (3 Bft) S-SW 192 0 min 1,4 UV-I 227 W/m 10,1 C 8,1 C 29,0 km/h (5 Bft)
05.10.2022 11:45 12,7 C 13,3 C 85 % 1019,8 hPa 0,0 l/m 18,8 km/h (3 Bft) SW 215 0 min 1,6 UV-I 257 W/m 10,2 C 7,1 C 35,4 km/h (5 Bft)
05.10.2022 11:48 12,8 C 15,0 C 85 % 1019,7 hPa 0,0 l/m 19,7 km/h (3 Bft) S-SW 213 0 min 1,9 UV-I 305 W/m 10,3 C 7,0 C 33,8 km/h (5 Bft)
05.10.2022 11:51 12,9 C 14,4 C 85 % 1019,8 hPa 0,0 l/m 20,0 km/h (4 Bft) S 181 0 min 1,9 UV-I 341 W/m 10,4 C 7,0 C 33,8 km/h (5 Bft)
05.10.2022 11:54 13,1 C 15,0 C 85 % 1019,7 hPa 0,0 l/m 20,2 km/h (4 Bft) S-SW 203 0 min 2,4 UV-I 331 W/m 10,6 C 7,2 C 35,4 km/h (5 Bft)
05.10.2022 11:57 13,2 C 16,1 C 85 % 1019,8 hPa 0,0 l/m 19,2 km/h (3 Bft) S-SW 195 0 min 2,2 UV-I 289 W/m 10,7 C 7,6 C 25,7 km/h (4 Bft)
05.10.2022 12:00 13,2 C 16,7 C 84 % 1019,5 hPa 0,0 l/m 18,1 km/h (3 Bft) S-SW 208 0 min 2,4 UV-I 276 W/m 10,6 C 8,0 C 30,6 km/h (5 Bft)
05.10.2022 12:03 13,6 C 17,8 C 85 % 1019,6 hPa 0,0 l/m 13,7 km/h (3 Bft) S-SO 163 0 min 2,4 UV-I 265 W/m 11,1 C 10,0 C 24,1 km/h (4 Bft)
05.10.2022 12:07 13,6 C 18,3 C 83 % 1019,7 hPa 0,0 l/m 18,4 km/h (3 Bft) S-SW 205 0 min 2,6 UV-I 265 W/m 10,8 C 8,4 C 27,4 km/h (4 Bft)
05.10.2022 12:09 13,3 C 16,1 C 84 % 1019,7 hPa 0,0 l/m 25,2 km/h (4 Bft) S 190 0 min 2,1 UV-I 317 W/m 10,7 C 6,3 C 40,2 km/h (6 Bft)
05.10.2022 12:12 13,1 C 15,0 C 84 % 1019,6 hPa 0,0 l/m 21,4 km/h (4 Bft) S 183 0 min 2,1 UV-I 285 W/m 10,5 C 6,9 C 32,2 km/h (5 Bft)
05.10.2022 12:15 12,9 C 14,4 C 85 % 1019,8 hPa 0,0 l/m 21,6 km/h (4 Bft) S-SO 159 0 min 2,0 UV-I 242 W/m 10,4 C 6,6 C 40,2 km/h (6 Bft)
05.10.2022 12:18 12,8 C 13,9 C 85 % 1019,7 hPa 0,0 l/m 18,4 km/h (3 Bft) S 169 0 min 1,6 UV-I 236 W/m 10,3 C 7,4 C 29,0 km/h (5 Bft)
05.10.2022 12:21 12,8 C 13,9 C 86 % 1019,8 hPa 0,0 l/m 17,1 km/h (3 Bft) S 173 0 min 1,7 UV-I 256 W/m 10,5 C 7,8 C 37,0 km/h (5 Bft)
05.10.2022 12:24 12,7 C 13,3 C 85 % 1019,8 hPa 0,0 l/m 21,3 km/h (4 Bft) S 180 0 min 1,5 UV-I 231 W/m 10,2 C 6,4 C 35,4 km/h (5 Bft)
05.10.2022 12:27 12,6 C 13,3 C 86 % 1019,8 hPa 0,0 l/m 21,0 km/h (4 Bft) S-SW 192 0 min 1,6 UV-I 251 W/m 10,3 C 6,4 C 35,4 km/h (5 Bft)
05.10.2022 12:30 12,6 C 13,9 C 86 % 1019,8 hPa 0,0 l/m 23,4 km/h (4 Bft) S 184 0 min 2,1 UV-I 306 W/m 10,3 C 5,7 C 43,5 km/h (6 Bft)
05.10.2022 12:33 12,8 C 14,4 C 86 % 1019,8 hPa 0,0 l/m 22,4 km/h (4 Bft) S 186 0 min 2,0 UV-I 326 W/m 10,5 C 6,3 C 37,0 km/h (5 Bft)
05.10.2022 12:36 12,8 C 14,4 C 85 % 1019,8 hPa 0,0 l/m 20,2 km/h (4 Bft) SW 215 0 min 1,9 UV-I 336 W/m 10,3 C 6,8 C 33,8 km/h (5 Bft)
05.10.2022 12:39 12,8 C 14,4 C 85 % 1019,8 hPa 0,0 l/m 20,0 km/h (4 Bft) S 169 0 min 2,3 UV-I 321 W/m 10,3 C 6,9 C 38,6 km/h (5 Bft)
05.10.2022 12:42 13,0 C 15,6 C 85 % 1019,8 hPa 0,0 l/m 19,8 km/h (3 Bft) S 174 0 min 2,7 UV-I 309 W/m 10,5 C 7,2 C 33,8 km/h (5 Bft)
05.10.2022 12:45 13,2 C 16,7 C 85 % 1019,7 hPa 0,0 l/m 19,4 km/h (3 Bft) S-SW 209 0 min 2,9 UV-I 314 W/m 10,7 C 7,6 C 32,2 km/h (5 Bft)
05.10.2022 12:48 13,2 C 16,1 C 84 % 1019,8 hPa 0,0 l/m 24,3 km/h (4 Bft) S 179 0 min 2,6 UV-I 332 W/m 10,6 C 6,3 C 38,6 km/h (5 Bft)
05.10.2022 12:51 13,3 C 16,1 C 84 % 1019,6 hPa 0,0 l/m 17,9 km/h (3 Bft) SW 219 0 min 2,5 UV-I 371 W/m 10,7 C 8,2 C 29,0 km/h (5 Bft)
05.10.2022 12:54 13,5 C 17,8 C 84 % 1019,6 hPa 0,0 l/m 18,3 km/h (3 Bft) SW 215 0 min 2,8 UV-I 382 W/m 10,8 C 8,3 C 35,4 km/h (5 Bft)
05.10.2022 12:57 13,6 C 18,3 C 84 % 1019,6 hPa 0,0 l/m 23,1 km/h (4 Bft) S-SO 159 0 min 3,1 UV-I 346 W/m 10,9 C 7,1 C 41,8 km/h (6 Bft)
05.10.2022 13:00 13,3 C 17,2 C 83 % 1019,7 hPa 0,0 l/m 26,9 km/h (4 Bft) S 180 0 min 2,6 UV-I 326 W/m 10,5 C 5,9 C 43,5 km/h (6 Bft)
05.10.2022 13:03 13,6 C 18,3 C 84 % 1019,5 hPa 0,0 l/m 20,5 km/h (4 Bft) S 184 3 min 2,9 UV-I 414 W/m 10,9 C 7,8 C 32,2 km/h (5 Bft)
05.10.2022 13:07 13,8 C 17,2 C 83 % 1019,6 hPa 0,0 l/m 21,1 km/h (4 Bft) S 191 4 min 2,8 UV-I 430 W/m 11,0 C 7,9 C 49,9 km/h (6 Bft)
05.10.2022 13:09 13,7 C 17,2 C 84 % 1019,6 hPa 0,0 l/m 20,4 km/h (4 Bft) S-SO 153 0 min 2,6 UV-I 338 W/m 11,0 C 8,0 C 29,0 km/h (5 Bft)
05.10.2022 13:12 13,6 C 16,7 C 84 % 1019,6 hPa 0,0 l/m 22,4 km/h (4 Bft) S 171 0 min 2,6 UV-I 302 W/m 10,9 C 7,3 C 35,4 km/h (5 Bft)
05.10.2022 13:15 13,7 C 17,8 C 84 % 1019,6 hPa 0,0 l/m 20,8 km/h (4 Bft) S-SW 207 0 min 3,0 UV-I 257 W/m 11,0 C 7,9 C 32,2 km/h (5 Bft)
05.10.2022 13:18 13,7 C 16,7 C 84 % 1019,6 hPa 0,0 l/m 23,1 km/h (4 Bft) S 184 0 min 2,6 UV-I 304 W/m 11,0 C 7,3 C 38,6 km/h (5 Bft)
05.10.2022 13:21 13,7 C 16,7 C 84 % 1019,6 hPa 0,0 l/m 23,7 km/h (4 Bft) S-SW 213 0 min 2,6 UV-I 374 W/m 11,0 C 7,1 C 46,7 km/h (6 Bft)
05.10.2022 13:24 13,7 C 16,7 C 84 % 1019,6 hPa 0,0 l/m 18,8 km/h (3 Bft) S-SW 203 0 min 2,5 UV-I 350 W/m 11,0 C 8,4 C 35,4 km/h (5 Bft)
05.10.2022 13:27 14,1 C 18,3 C 85 % 1019,7 hPa 0,0 l/m 21,3 km/h (4 Bft) S-SW 198 3 min 3,1 UV-I 654 W/m 11,6 C 8,2 C 38,6 km/h (5 Bft)
05.10.2022 13:30 14,0 C 18,3 C 83 % 1019,6 hPa 0,0 l/m 25,1 km/h (4 Bft) S 188 3 min 3,0 UV-I 789 W/m 11,2 C 7,2 C 40,2 km/h (6 Bft)
05.10.2022 13:33 14,0 C 18,3 C 84 % 1019,7 hPa 0,0 l/m 24,9 km/h (4 Bft) S 191 3 min 2,9 UV-I 789 W/m 11,3 C 7,3 C 40,2 km/h (6 Bft)
05.10.2022 13:36 14,1 C 18,3 C 84 % 1019,5 hPa 0,0 l/m 24,2 km/h (4 Bft) W-SW 249 3 min 3,0 UV-I 750 W/m 11,4 C 7,6 C 35,4 km/h (5 Bft)
05.10.2022 13:39 14,1 C 17,2 C 83 % 1019,5 hPa 0,0 l/m 21,4 km/h (4 Bft) S 191 3 min 2,7 UV-I 518 W/m 11,3 C 8,2 C 38,6 km/h (5 Bft)
05.10.2022 13:42 14,2 C 18,9 C 84 % 1019,5 hPa 0,0 l/m 17,5 km/h (3 Bft) S-SW 194 0 min 3,1 UV-I 358 W/m 11,5 C 9,4 C 33,8 km/h (5 Bft)
05.10.2022 13:45 14,2 C 17,2 C 83 % 1019,3 hPa 0,0 l/m 22,4 km/h (4 Bft) S 175 3 min 2,4 UV-I 470 W/m 11,4 C 8,1 C 37,0 km/h (5 Bft)
05.10.2022 13:48 14,3 C 18,3 C 83 % 1019,3 hPa 0,0 l/m 21,5 km/h (4 Bft) S 180 3 min 3,3 UV-I 436 W/m 11,5 C 8,5 C 33,8 km/h (5 Bft)
05.10.2022 13:51 14,2 C 18,9 C 83 % 1019,2 hPa 0,0 l/m 22,4 km/h (4 Bft) S-SO 150 0 min 2,7 UV-I 326 W/m 11,4 C 8,1 C 37,0 km/h (5 Bft)
05.10.2022 13:54 14,3 C 18,9 C 83 % 1019,3 hPa 0,0 l/m 19,1 km/h (3 Bft) S 186 3 min 3,1 UV-I 402 W/m 11,5 C 9,1 C 30,6 km/h (5 Bft)
05.10.2022 13:57 14,6 C 20,0 C 83 % 1019,3 hPa 0,0 l/m 23,8 km/h (4 Bft) S-SO 155 3 min 3,3 UV-I 627 W/m 11,7 C 8,3 C 48,3 km/h (6 Bft)
05.10.2022 14:00 14,6 C 18,3 C 82 % 1019,0 hPa 0,0 l/m 24,3 km/h (4 Bft) S 185 3 min 2,8 UV-I 615 W/m 11,6 C 8,2 C 40,2 km/h (6 Bft)
05.10.2022 14:03 14,7 C 19,4 C 83 % 1018,9 hPa 0,0 l/m 18,9 km/h (3 Bft) S 169 3 min 2,8 UV-I 610 W/m 11,8 C 9,7 C 40,2 km/h (6 Bft)
05.10.2022 14:06 14,7 C 20,0 C 82 % 1018,8 hPa 0,0 l/m 24,4 km/h (4 Bft) S 181 3 min 3,4 UV-I 636 W/m 11,7 C 8,3 C 43,5 km/h (6 Bft)
05.10.2022 14:09 14,7 C 17,8 C 81 % 1019,0 hPa 0,0 l/m 23,1 km/h (4 Bft) S 186 3 min 2,7 UV-I 621 W/m 11,5 C 8,6 C 40,2 km/h (6 Bft)
05.10.2022 14:12 14,6 C 17,8 C 82 % 1018,9 hPa 0,0 l/m 20,1 km/h (4 Bft) S-SW 205 3 min 2,7 UV-I 611 W/m 11,6 C 9,2 C 32,2 km/h (5 Bft)
05.10.2022 14:15 14,6 C 18,9 C 82 % 1018,9 hPa 0,0 l/m 22,8 km/h (4 Bft) S-SO 164 0 min 2,7 UV-I 346 W/m 11,6 C 8,5 C 37,0 km/h (5 Bft)
05.10.2022 14:18 14,9 C 20,6 C 81 % 1018,8 hPa 0,0 l/m 21,8 km/h (4 Bft) S 176 3 min 3,0 UV-I 630 W/m 11,7 C 9,2 C 51,5 km/h (7 Bft)
05.10.2022 14:21 14,8 C 19,4 C 81 % 1018,9 hPa 0,0 l/m 25,4 km/h (4 Bft) S-SW 194 3 min 2,9 UV-I 630 W/m 11,6 C 8,3 C 41,8 km/h (6 Bft)
05.10.2022 14:24 14,8 C 18,3 C 80 % 1018,8 hPa 0,0 l/m 25,0 km/h (4 Bft) S 173 3 min 2,7 UV-I 553 W/m 11,4 C 8,3 C 43,5 km/h (6 Bft)
05.10.2022 14:27 14,9 C 17,8 C 80 % 1018,7 hPa 0,0 l/m 22,3 km/h (4 Bft) S 186 3 min 2,5 UV-I 456 W/m 11,5 C 9,1 C 45,1 km/h (6 Bft)
05.10.2022 14:30 14,9 C 18,3 C 81 % 1018,6 hPa 0,0 l/m 20,8 km/h (4 Bft) S 182 0 min 2,5 UV-I 328 W/m 11,7 C 9,4 C 38,6 km/h (5 Bft)
05.10.2022 14:33 15,1 C 19,4 C 80 % 1018,7 hPa 0,0 l/m 21,2 km/h (4 Bft) S-SO 159 3 min 2,7 UV-I 573 W/m 11,7 C 9,6 C 33,8 km/h (5 Bft)
05.10.2022 14:36 15,2 C 20,6 C 79 % 1018,7 hPa 0,0 l/m 22,1 km/h (4 Bft) S 171 3 min 3,1 UV-I 419 W/m 11,6 C 9,5 C 41,8 km/h (6 Bft)
05.10.2022 14:39 15,3 C 20,6 C 80 % 1018,7 hPa 0,0 l/m 17,4 km/h (3 Bft) S-SW 210 3 min 2,8 UV-I 592 W/m 11,9 C 10,8 C 40,2 km/h (6 Bft)
05.10.2022 14:42 15,3 C 21,1 C 79 % 1018,6 hPa 0,0 l/m 21,8 km/h (4 Bft) S 175 3 min 2,7 UV-I 594 W/m 11,7 C 9,7 C 38,6 km/h (5 Bft)
05.10.2022 14:45 15,1 C 18,3 C 79 % 1018,5 hPa 0,0 l/m 24,6 km/h (4 Bft) S-SW 205 0 min 2,2 UV-I 394 W/m 11,5 C 8,8 C 38,6 km/h (5 Bft)
05.10.2022 14:48 15,2 C 20,6 C 80 % 1018,5 hPa 0,0 l/m 18,9 km/h (3 Bft) S-SW 211 0 min 2,7 UV-I 193 W/m 11,8 C 10,3 C 29,0 km/h (5 Bft)
05.10.2022 14:51 15,5 C 21,7 C 79 % 1018,5 hPa 0,0 l/m 18,9 km/h (3 Bft) S-SW 204 3 min 2,7 UV-I 602 W/m 11,9 C 10,7 C 32,2 km/h (5 Bft)
05.10.2022 14:54 15,6 C 21,1 C 79 % 1018,4 hPa 0,0 l/m 19,4 km/h (3 Bft) S 176 3 min 2,7 UV-I 592 W/m 12,0 C 10,7 C 30,6 km/h (5 Bft)
05.10.2022 14:57 15,6 C 20,0 C 79 % 1018,4 hPa 0,0 l/m 17,7 km/h (3 Bft) S-SW 198 0 min 2,5 UV-I 348 W/m 12,0 C 11,1 C 27,4 km/h (4 Bft)
05.10.2022 15:00 15,7 C 21,7 C 80 % 1018,3 hPa 0,0 l/m 20,0 km/h (4 Bft) SW 222 3 min 2,8 UV-I 517 W/m 12,3 C 10,7 C 40,2 km/h (6 Bft)
05.10.2022 15:03 15,8 C 21,1 C 79 % 1018,3 hPa 0,0 l/m 18,4 km/h (3 Bft) S-SO 163 3 min 2,7 UV-I 517 W/m 12,2 C 11,2 C 38,6 km/h (5 Bft)
05.10.2022 15:06 15,8 C 21,1 C 78 % 1018,2 hPa 0,0 l/m 19,0 km/h (3 Bft) S-SW 198 3 min 2,7 UV-I 515 W/m 12,0 C 11,0 C 38,6 km/h (5 Bft)
05.10.2022 15:09 15,9 C 21,7 C 79 % 1018,1 hPa 0,0 l/m 20,7 km/h (4 Bft) S-SW 197 3 min 2,6 UV-I 505 W/m 12,3 C 10,7 C 38,6 km/h (5 Bft)
05.10.2022 15:12 15,9 C 22,2 C 79 % 1018,1 hPa 0,0 l/m 17,1 km/h (3 Bft) SW 229 3 min 2,6 UV-I 512 W/m 12,3 C 11,7 C 33,8 km/h (5 Bft)
05.10.2022 15:15 15,8 C 21,1 C 79 % 1018,0 hPa 0,0 l/m 20,1 km/h (4 Bft) S-SW 202 3 min 2,6 UV-I 513 W/m 12,2 C 10,8 C 35,4 km/h (5 Bft)
05.10.2022 15:18 15,8 C 20,6 C 79 % 1018,0 hPa 0,0 l/m 19,0 km/h (3 Bft) S-SO 163 3 min 2,5 UV-I 500 W/m 12,2 C 11,0 C 30,6 km/h (5 Bft)
05.10.2022 15:21 15,9 C 21,1 C 80 % 1018,0 hPa 0,0 l/m 17,7 km/h (3 Bft) SW 235 3 min 2,5 UV-I 478 W/m 12,5 C 11,5 C 29,0 km/h (5 Bft)
05.10.2022 15:24 16,2 C 22,2 C 79 % 1018,0 hPa 0,0 l/m 15,4 km/h (3 Bft) S-SO 150 3 min 2,4 UV-I 492 W/m 12,6 C 12,5 C 25,7 km/h (4 Bft)
05.10.2022 15:27 16,3 C 21,7 C 79 % 1017,9 hPa 0,0 l/m 19,9 km/h (4 Bft) S 189 3 min 2,4 UV-I 489 W/m 12,6 C 11,4 C 32,2 km/h (5 Bft)
05.10.2022 15:30 16,3 C 21,7 C 78 % 1018,0 hPa 0,0 l/m 23,7 km/h (4 Bft) S-SW 196 3 min 2,4 UV-I 487 W/m 12,5 C 10,6 C 41,8 km/h (6 Bft)
05.10.2022 15:33 16,3 C 21,7 C 78 % 1018,0 hPa 0,0 l/m 23,8 km/h (4 Bft) SW 219 3 min 2,3 UV-I 495 W/m 12,5 C 10,6 C 37,0 km/h (5 Bft)
05.10.2022 15:36 16,3 C 21,7 C 79 % 1018,1 hPa 0,0 l/m 21,0 km/h (4 Bft) S 174 3 min 2,3 UV-I 481 W/m 12,6 C 11,2 C 38,6 km/h (5 Bft)
05.10.2022 15:39 16,2 C 21,1 C 79 % 1018,0 hPa 0,0 l/m 22,4 km/h (4 Bft) S-SW 196 3 min 2,3 UV-I 490 W/m 12,6 C 10,8 C 33,8 km/h (5 Bft)
05.10.2022 15:42 16,2 C 20,0 C 79 % 1017,9 hPa 0,0 l/m 18,3 km/h (3 Bft) S 190 0 min 1,7 UV-I 307 W/m 12,6 C 11,7 C 30,6 km/h (5 Bft)
05.10.2022 15:45 16,3 C 21,1 C 79 % 1017,9 hPa 0,0 l/m 22,3 km/h (4 Bft) S-SW 202 0 min 2,0 UV-I 251 W/m 12,6 C 10,9 C 38,6 km/h (5 Bft)
05.10.2022 15:48 16,4 C 21,1 C 78 % 1017,9 hPa 0,0 l/m 28,7 km/h (4 Bft) S-SW 192 3 min 2,2 UV-I 479 W/m 12,6 C 9,9 C 46,7 km/h (6 Bft)
05.10.2022 15:51 16,5 C 21,1 C 78 % 1017,8 hPa 0,0 l/m 27,3 km/h (4 Bft) S-SW 198 3 min 2,1 UV-I 459 W/m 12,6 C 10,2 C 45,1 km/h (6 Bft)
05.10.2022 15:54 16,6 C 21,7 C 78 % 1017,8 hPa 0,0 l/m 26,6 km/h (4 Bft) S-SW 192 3 min 2,1 UV-I 457 W/m 12,7 C 10,5 C 45,1 km/h (6 Bft)
05.10.2022 15:57 16,5 C 20,6 C 78 % 1017,9 hPa 0,0 l/m 23,4 km/h (4 Bft) S-SW 202 3 min 2,0 UV-I 458 W/m 12,6 C 10,9 C 48,3 km/h (6 Bft)
05.10.2022 16:00 16,5 C 21,1 C 78 % 1017,9 hPa 0,0 l/m 24,7 km/h (4 Bft) S 182 3 min 1,9 UV-I 432 W/m 12,6 C 10,7 C 45,1 km/h (6 Bft)
05.10.2022 16:03 16,3 C 19,4 C 79 % 1017,8 hPa 0,0 l/m 20,7 km/h (4 Bft) S 186 3 min 1,5 UV-I 473 W/m 12,6 C 11,3 C 35,4 km/h (5 Bft)
05.10.2022 16:06 16,2 C 18,3 C 79 % 1017,8 hPa 0,0 l/m 21,1 km/h (4 Bft) S 170 3 min 1,5 UV-I 475 W/m 12,6 C 11,0 C 33,8 km/h (5 Bft)
05.10.2022 16:09 16,2 C 19,4 C 80 % 1017,7 hPa 0,0 l/m 20,2 km/h (4 Bft) S-SO 167 0 min 1,4 UV-I 243 W/m 12,7 C 11,2 C 35,4 km/h (5 Bft)
05.10.2022 16:12 16,4 C 20,0 C 80 % 1017,7 hPa 0,0 l/m 22,4 km/h (4 Bft) S 184 3 min 1,6 UV-I 436 W/m 12,9 C 11,0 C 37,0 km/h (5 Bft)
05.10.2022 16:15 16,4 C 19,4 C 79 % 1017,6 hPa 0,0 l/m 24,1 km/h (4 Bft) S 178 0 min 1,5 UV-I 138 W/m 12,7 C 10,7 C 43,5 km/h (6 Bft)
05.10.2022 16:18 16,4 C 20,0 C 79 % 1017,8 hPa 0,0 l/m 23,9 km/h (4 Bft) SO 142 0 min 1,7 UV-I 154 W/m 12,7 C 10,7 C 38,6 km/h (5 Bft)
05.10.2022 16:21 16,6 C 20,6 C 79 % 1017,7 hPa 0,0 l/m 23,4 km/h (4 Bft) S 180 3 min 1,5 UV-I 406 W/m 12,9 C 11,1 C 41,8 km/h (6 Bft)
05.10.2022 16:24 16,6 C 18,9 C 79 % 1017,8 hPa 0,0 l/m 23,8 km/h (4 Bft) S-SW 202 0 min 1,2 UV-I 216 W/m 12,9 C 11,0 C 40,2 km/h (6 Bft)
05.10.2022 16:27 16,5 C 18,3 C 79 % 1017,7 hPa 0,0 l/m 23,0 km/h (4 Bft) S 185 0 min 1,2 UV-I 170 W/m 12,8 C 11,0 C 37,0 km/h (5 Bft)
05.10.2022 16:30 16,7 C 19,4 C 80 % 1017,6 hPa 0,0 l/m 21,2 km/h (4 Bft) S 185 3 min 1,4 UV-I 428 W/m 13,2 C 11,7 C 35,4 km/h (5 Bft)
05.10.2022 16:33 16,8 C 20,6 C 79 % 1017,7 hPa 0,0 l/m 17,4 km/h (3 Bft) S 173 0 min 1,4 UV-I 364 W/m 13,1 C 12,7 C 29,0 km/h (5 Bft)
05.10.2022 16:36 16,8 C 20,0 C 79 % 1017,7 hPa 0,0 l/m 19,9 km/h (4 Bft) S 174 0 min 1,3 UV-I 237 W/m 13,1 C 12,1 C 27,4 km/h (4 Bft)
05.10.2022 16:39 16,8 C 19,4 C 79 % 1017,8 hPa 0,0 l/m 25,6 km/h (4 Bft) SO 133 0 min 1,4 UV-I 355 W/m 13,1 C 10,9 C 45,1 km/h (6 Bft)
05.10.2022 16:42 16,8 C 20,0 C 79 % 1017,6 hPa 0,0 l/m 21,2 km/h (4 Bft) S-SO 168 0 min 1,3 UV-I 328 W/m 13,1 C 11,8 C 38,6 km/h (5 Bft)
05.10.2022 16:45 16,8 C 21,1 C 79 % 1017,7 hPa 0,0 l/m 23,9 km/h (4 Bft) S-SW 204 0 min 1,3 UV-I 341 W/m 13,1 C 11,3 C 40,2 km/h (6 Bft)
05.10.2022 16:48 16,8 C 21,1 C 79 % 1017,6 hPa 0,0 l/m 20,9 km/h (4 Bft) S-SW 204 0 min 1,2 UV-I 324 W/m 13,1 C 11,9 C 41,8 km/h (6 Bft)
05.10.2022 16:51 16,8 C 21,7 C 80 % 1017,6 hPa 0,0 l/m 18,6 km/h (3 Bft) SO 144 0 min 1,2 UV-I 315 W/m 13,3 C 12,4 C 33,8 km/h (5 Bft)
05.10.2022 16:54 16,9 C 21,7 C 80 % 1017,6 hPa 0,0 l/m 14,6 km/h (3 Bft) S 182 0 min 1,2 UV-I 238 W/m 13,4 C 13,6 C 20,9 km/h (4 Bft)
05.10.2022 16:57 16,9 C 22,2 C 80 % 1017,6 hPa 0,0 l/m 11,6 km/h (2 Bft) SW 214 0 min 1,1 UV-I 235 W/m 13,4 C 14,6 C 17,7 km/h (3 Bft)
05.10.2022 17:00 16,9 C 21,7 C 80 % 1017,7 hPa 0,0 l/m 12,3 km/h (3 Bft) S 169 0 min 1,0 UV-I 283 W/m 13,4 C 14,4 C 19,3 km/h (3 Bft)
05.10.2022 17:03 16,8 C 21,7 C 80 % 1017,7 hPa 0,0 l/m 16,3 km/h (3 Bft) S-SO 159 0 min 1,0 UV-I 288 W/m 13,3 C 13,0 C 29,0 km/h (5 Bft)
05.10.2022 17:06 16,9 C 22,2 C 80 % 1017,7 hPa 0,0 l/m 14,4 km/h (3 Bft) S 177 0 min 1,0 UV-I 279 W/m 13,4 C 13,7 C 33,8 km/h (5 Bft)
05.10.2022 17:09 16,9 C 22,2 C 81 % 1017,7 hPa 0,0 l/m 13,3 km/h (3 Bft) S 188 0 min 1,0 UV-I 270 W/m 13,6 C 14,0 C 22,5 km/h (4 Bft)
05.10.2022 17:12 16,9 C 22,2 C 81 % 1017,6 hPa 0,0 l/m 10,8 km/h (2 Bft) S-SW 202 0 min 0,9 UV-I 262 W/m 13,6 C 14,9 C 17,7 km/h (3 Bft)
05.10.2022 17:15 17,1 C 22,2 C 80 % 1017,7 hPa 0,0 l/m 13,8 km/h (3 Bft) S-SO 166 0 min 0,9 UV-I 255 W/m 13,6 C 14,1 C 24,1 km/h (4 Bft)
05.10.2022 17:18 17,3 C 21,7 C 79 % 1017,8 hPa 0,0 l/m 16,3 km/h (3 Bft) S 171 0 min 0,9 UV-I 247 W/m 13,6 C 13,6 C 29,0 km/h (5 Bft)
05.10.2022 17:21 17,4 C 21,7 C 79 % 1017,7 hPa 0,0 l/m 13,8 km/h (3 Bft) S 181 0 min 0,8 UV-I 240 W/m 13,7 C 14,5 C 27,4 km/h (4 Bft)
05.10.2022 17:24 17,6 C 18,9 C 78 % 1017,6 hPa 0,0 l/m 15,6 km/h (3 Bft) SW 217 0 min 0,8 UV-I 233 W/m 13,7 C 14,2 C 24,1 km/h (4 Bft)
05.10.2022 17:27 17,7 C 18,3 C 77 % 1017,7 hPa 0,0 l/m 14,5 km/h (3 Bft) S 186 0 min 0,7 UV-I 225 W/m 13,6 C 14,6 C 25,7 km/h (4 Bft)
05.10.2022 17:30 17,8 C 17,8 C 76 % 1017,7 hPa 0,0 l/m 17,1 km/h (3 Bft) S 181 0 min 0,7 UV-I 215 W/m 13,5 C 14,0 C 32,2 km/h (5 Bft)
05.10.2022 17:33 17,8 C 18,3 C 75 % 1017,8 hPa 0,0 l/m 15,4 km/h (3 Bft) S 188 0 min 0,7 UV-I 206 W/m 13,3 C 14,5 C 25,7 km/h (4 Bft)
05.10.2022 17:36 17,8 C 20,6 C 75 % 1017,7 hPa 0,0 l/m 19,0 km/h (3 Bft) S-SW 213 0 min 0,6 UV-I 196 W/m 13,3 C 13,6 C 32,2 km/h (5 Bft)
05.10.2022 17:39 17,8 C 20,6 C 74 % 1017,8 hPa 0,0 l/m 20,9 km/h (4 Bft) S 188 0 min 0,6 UV-I 186 W/m 13,1 C 13,2 C 32,2 km/h (5 Bft)
05.10.2022 17:42 17,8 C 20,6 C 74 % 1017,7 hPa 0,0 l/m 20,0 km/h (4 Bft) S-SW 205 0 min 0,6 UV-I 177 W/m 13,1 C 13,4 C 32,2 km/h (5 Bft)
05.10.2022 17:45 17,8 C 20,6 C 73 % 1017,9 hPa 0,0 l/m 17,5 km/h (3 Bft) S-SW 196 0 min 0,5 UV-I 168 W/m 12,9 C 13,9 C 25,7 km/h (4 Bft)
05.10.2022 17:48 17,8 C 20,6 C 73 % 1018,0 hPa 0,0 l/m 20,4 km/h (4 Bft) S-SO 159 0 min 0,5 UV-I 159 W/m 12,9 C 13,3 C 32,2 km/h (5 Bft)
05.10.2022 17:51 17,8 C 20,6 C 73 % 1018,0 hPa 0,0 l/m 18,3 km/h (3 Bft) S-SW 196 0 min 0,5 UV-I 148 W/m 12,9 C 13,7 C 27,4 km/h (4 Bft)
05.10.2022 17:54 17,6 C 19,4 C 72 % 1018,0 hPa 0,0 l/m 21,3 km/h (4 Bft) S 173 0 min 0,2 UV-I 122 W/m 12,5 C 12,8 C 30,6 km/h (5 Bft)
05.10.2022 17:57 17,4 C 17,2 C 73 % 1018,2 hPa 0,0 l/m 19,1 km/h (3 Bft) S-SW 203 0 min 0,0 UV-I 48 W/m 12,5 C 13,0 C 29,0 km/h (5 Bft)
05.10.2022 18:00 17,3 C 17,2 C 73 % 1018,1 hPa 0,0 l/m 19,8 km/h (3 Bft) S-SW 205 0 min 0,0 UV-I 37 W/m 12,4 C 12,8 C 30,6 km/h (5 Bft)
05.10.2022 18:03 17,2 C 17,2 C 74 % 1018,3 hPa 0,0 l/m 17,0 km/h (3 Bft) S-SW 205 0 min 0,0 UV-I 37 W/m 12,5 C 13,3 C 24,1 km/h (4 Bft)
05.10.2022 18:06 17,0 C 16,1 C 74 % 1018,2 hPa 0,0 l/m 18,9 km/h (3 Bft) S 188 0 min 0,0 UV-I 29 W/m 12,3 C 12,6 C 30,6 km/h (5 Bft)
05.10.2022 18:09 17,0 C 16,1 C 74 % 1018,3 hPa 0,0 l/m 20,3 km/h (4 Bft) S 186 0 min 0,0 UV-I 25 W/m 12,3 C 12,3 C 32,2 km/h (5 Bft)
05.10.2022 18:12 16,9 C 16,1 C 75 % 1018,4 hPa 0,0 l/m 20,3 km/h (4 Bft) S-SW 211 0 min 0,0 UV-I 31 W/m 12,4 C 12,1 C 32,2 km/h (5 Bft)
05.10.2022 18:15 16,9 C 16,1 C 75 % 1018,5 hPa 0,0 l/m 18,2 km/h (3 Bft) S 176 0 min 0,0 UV-I 24 W/m 12,4 C 12,6 C 27,4 km/h (4 Bft)
05.10.2022 18:18 16,9 C 16,1 C 75 % 1018,5 hPa 0,0 l/m 18,1 km/h (3 Bft) S-SW 202 0 min 0,0 UV-I 24 W/m 12,4 C 12,7 C 40,2 km/h (6 Bft)
05.10.2022 18:21 16,9 C 16,1 C 75 % 1018,5 hPa 0,0 l/m 23,9 km/h (4 Bft) S-SW 194 0 min 0,0 UV-I 19 W/m 12,4 C 11,4 C 37,0 km/h (5 Bft)
05.10.2022 18:24 17,0 C 16,1 C 75 % 1018,6 hPa 0,0 l/m 25,4 km/h (4 Bft) S 177 0 min 0,0 UV-I 20 W/m 12,5 C 11,2 C 46,7 km/h (6 Bft)
05.10.2022 18:27 17,0 C 16,1 C 75 % 1018,7 hPa 0,0 l/m 23,9 km/h (4 Bft) S-SW 200 0 min 0,0 UV-I 17 W/m 12,5 C 11,5 C 38,6 km/h (5 Bft)
05.10.2022 18:30 16,9 C 16,1 C 75 % 1018,7 hPa 0,0 l/m 17,5 km/h (3 Bft) SW 223 0 min 0,0 UV-I 19 W/m 12,4 C 12,8 C 27,4 km/h (4 Bft)
05.10.2022 18:33 16,9 C 16,1 C 75 % 1018,7 hPa 0,0 l/m 18,5 km/h (3 Bft) SW 219 0 min 0,0 UV-I 17 W/m 12,4 C 12,6 C 30,6 km/h (5 Bft)
05.10.2022 18:36 16,8 C 16,1 C 75 % 1018,9 hPa 0,0 l/m 17,5 km/h (3 Bft) S-SW 213 0 min 0,0 UV-I 13 W/m 12,3 C 12,7 C 27,4 km/h (4 Bft)
05.10.2022 18:39 16,8 C 16,1 C 76 % 1018,9 hPa 0,0 l/m 16,5 km/h (3 Bft) S-SW 198 0 min 0,0 UV-I 11 W/m 12,5 C 12,9 C 25,7 km/h (4 Bft)
05.10.2022 18:42 16,7 C 16,1 C 76 % 1019,0 hPa 0,0 l/m 18,3 km/h (3 Bft) S-SO 163 0 min 0,0 UV-I 11 W/m 12,4 C 12,4 C 38,6 km/h (5 Bft)
05.10.2022 18:45 16,7 C 15,6 C 76 % 1019,1 hPa 0,0 l/m 16,7 km/h (3 Bft) S-SW 202 0 min 0,0 UV-I 11 W/m 12,4 C 12,8 C 27,4 km/h (4 Bft)
05.10.2022 18:48 16,7 C 15,6 C 76 % 1019,1 hPa 0,0 l/m 17,7 km/h (3 Bft) S-SW 202 0 min 0,0 UV-I 10 W/m 12,4 C 12,5 C 27,4 km/h (4 Bft)
05.10.2022 18:51 16,6 C 15,6 C 76 % 1019,1 hPa 0,0 l/m 17,3 km/h (3 Bft) S-SW 194 0 min 0,0 UV-I 7 W/m 12,3 C 12,5 C 27,4 km/h (4 Bft)
05.10.2022 18:54 16,6 C 15,6 C 76 % 1019,1 hPa 0,0 l/m 15,9 km/h (3 Bft) S-SW 208 0 min 0,0 UV-I 5 W/m 12,3 C 12,9 C 25,7 km/h (4 Bft)
05.10.2022 18:57 16,6 C 15,6 C 76 % 1019,2 hPa 0,0 l/m 18,0 km/h (3 Bft) SW 225 0 min 0,0 UV-I 2 W/m 12,3 C 12,3 C 35,4 km/h (5 Bft)
05.10.2022 19:00 16,5 C 15,6 C 76 % 1019,2 hPa 0,0 l/m 16,2 km/h (3 Bft) S-SW 210 0 min 0,0 UV-I 0 W/m 12,3 C 12,7 C 25,7 km/h (4 Bft)
05.10.2022 19:03 16,4 C 15,6 C 77 % 1019,2 hPa 0,0 l/m 13,8 km/h (3 Bft) S-SW 193 0 min 0,0 UV-I 0 W/m 12,4 C 13,3 C 22,5 km/h (4 Bft)
05.10.2022 19:06 16,4 C 15,6 C 77 % 1019,2 hPa 0,0 l/m 19,9 km/h (4 Bft) S-SW 195 0 min 0,0 UV-I 0 W/m 12,4 C 11,6 C 29,0 km/h (5 Bft)
05.10.2022 19:09 16,3 C 15,0 C 77 % 1019,4 hPa 0,0 l/m 15,1 km/h (3 Bft) SW 221 0 min 0,0 UV-I 0 W/m 12,3 C 12,7 C 24,1 km/h (4 Bft)
05.10.2022 19:12 16,3 C 15,0 C 77 % 1019,5 hPa 0,0 l/m 14,2 km/h (3 Bft) S 190 0 min 0,0 UV-I 0 W/m 12,3 C 13,0 C 20,9 km/h (4 Bft)
05.10.2022 19:15 16,3 C 15,0 C 77 % 1019,6 hPa 0,0 l/m 15,3 km/h (3 Bft) S 173 0 min 0,0 UV-I 0 W/m 12,3 C 12,7 C 24,1 km/h (4 Bft)
05.10.2022 19:18 16,2 C 15,0 C 77 % 1019,7 hPa 0,0 l/m 18,2 km/h (3 Bft) SW 226 0 min 0,0 UV-I 0 W/m 12,2 C 11,7 C 37,0 km/h (5 Bft)
05.10.2022 19:21 16,3 C 15,6 C 76 % 1019,6 hPa 0,0 l/m 19,7 km/h (3 Bft) S 190 0 min 0,0 UV-I 0 W/m 12,1 C 11,5 C 30,6 km/h (5 Bft)
05.10.2022 19:24 16,2 C 15,0 C 76 % 1019,4 hPa 0,0 l/m 15,3 km/h (3 Bft) SW 223 0 min 0,0 UV-I 0 W/m 12,0 C 12,6 C 32,2 km/h (5 Bft)
05.10.2022 19:27 16,1 C 15,0 C 77 % 1019,7 hPa 0,0 l/m 16,2 km/h (3 Bft) SW 221 0 min 0,0 UV-I 0 W/m 12,1 C 12,2 C 29,0 km/h (5 Bft)
05.10.2022 19:30 16,1 C 15,0 C 77 % 1019,8 hPa 0,0 l/m 18,3 km/h (3 Bft) S-SW 201 0 min 0,0 UV-I 0 W/m 12,1 C 11,6 C 30,6 km/h (5 Bft)
05.10.2022 19:33 15,9 C 15,0 C 77 % 1019,9 hPa 0,0 l/m 16,9 km/h (3 Bft) S 176 0 min 0,0 UV-I 0 W/m 11,9 C 11,7 C 30,6 km/h (5 Bft)
05.10.2022 19:36 15,8 C 15,0 C 77 % 1019,9 hPa 0,0 l/m 15,8 km/h (3 Bft) S-SW 198 0 min 0,0 UV-I 0 W/m 11,8 C 11,9 C 25,7 km/h (4 Bft)
05.10.2022 19:39 15,8 C 14,4 C 76 % 1019,8 hPa 0,0 l/m 16,9 km/h (3 Bft) S-SW 195 0 min 0,0 UV-I 0 W/m 11,6 C 11,6 C 33,8 km/h (5 Bft)
05.10.2022 19:42 15,7 C 14,4 C 76 % 1019,9 hPa 0,0 l/m 13,7 km/h (3 Bft) S-SW 202 0 min 0,0 UV-I 0 W/m 11,5 C 12,5 C 24,1 km/h (4 Bft)
05.10.2022 19:45 15,7 C 14,4 C 76 % 1020,0 hPa 0,0 l/m 18,7 km/h (3 Bft) S-SO 150 0 min 0,0 UV-I 0 W/m 11,5 C 11,0 C 27,4 km/h (4 Bft)
05.10.2022 19:48 15,7 C 15,0 C 76 % 1020,4 hPa 0,0 l/m 19,4 km/h (3 Bft) S-SO 162 0 min 0,0 UV-I 0 W/m 11,5 C 10,8 C 33,8 km/h (5 Bft)
05.10.2022 19:51 15,7 C 14,4 C 76 % 1020,1 hPa 0,0 l/m 14,7 km/h (3 Bft) S-SW 209 0 min 0,0 UV-I 0 W/m 11,5 C 12,1 C 22,5 km/h (4 Bft)
05.10.2022 19:54 15,6 C 14,4 C 76 % 1020,2 hPa 0,0 l/m 15,2 km/h (3 Bft) S 184 0 min 0,0 UV-I 0 W/m 11,4 C 11,9 C 27,4 km/h (4 Bft)
05.10.2022 19:57 15,6 C 14,4 C 77 % 1020,3 hPa 0,0 l/m 14,0 km/h (3 Bft) S-SW 204 0 min 0,0 UV-I 0 W/m 11,6 C 12,2 C 27,4 km/h (4 Bft)
05.10.2022 20:00 15,6 C 14,4 C 77 % 1020,3 hPa 0,0 l/m 14,0 km/h (3 Bft) S-SW 213 0 min 0,0 UV-I 0 W/m 11,6 C 12,2 C 29,0 km/h (5 Bft)
05.10.2022 20:03 15,6 C 15,0 C 77 % 1020,5 hPa 0,0 l/m 18,3 km/h (3 Bft) SW 229 0 min 0,0 UV-I 0 W/m 11,6 C 11,0 C 30,6 km/h (5 Bft)
05.10.2022 20:06 15,7 C 15,0 C 77 % 1020,4 hPa 0,0 l/m 16,4 km/h (3 Bft) S-SW 207 0 min 0,0 UV-I 0 W/m 11,7 C 11,6 C 27,4 km/h (4 Bft)
05.10.2022 20:09 15,7 C 15,0 C 77 % 1020,4 hPa 0,0 l/m 19,5 km/h (3 Bft) S 188 0 min 0,0 UV-I 0 W/m 11,7 C 10,8 C 33,8 km/h (5 Bft)
05.10.2022 20:12 15,7 C 15,0 C 77 % 1020,6 hPa 0,0 l/m 20,6 km/h (4 Bft) SW 217 0 min 0,0 UV-I 0 W/m 11,7 C 10,5 C 32,2 km/h (5 Bft)
05.10.2022 20:15 15,7 C 15,0 C 78 % 1020,7 hPa 0,0 l/m 15,4 km/h (3 Bft) SW 223 0 min 0,0 UV-I 0 W/m 11,9 C 11,9 C 24,1 km/h (4 Bft)
05.10.2022 20:18 15,6 C 14,4 C 78 % 1020,7 hPa 0,0 l/m 8,9 km/h (2 Bft) S-SW 211 0 min 0,0 UV-I 0 W/m 11,8 C 14,3 C 16,1 km/h (3 Bft)
05.10.2022 20:21 15,4 C 14,4 C 79 % 1020,7 hPa 0,0 l/m 10,6 km/h (2 Bft) S-SW 208 0 min 0,0 UV-I 0 W/m 11,8 C 13,3 C 17,7 km/h (3 Bft)
05.10.2022 20:24 15,4 C 14,4 C 79 % 1020,7 hPa 0,0 l/m 13,2 km/h (3 Bft) S-SW 194 0 min 0,0 UV-I 0 W/m 11,8 C 12,3 C 19,3 km/h (3 Bft)
05.10.2022 20:27 15,3 C 14,4 C 79 % 1020,8 hPa 0,0 l/m 9,9 km/h (2 Bft) S-SW 207 0 min 0,0 UV-I 0 W/m 11,7 C 13,5 C 17,7 km/h (3 Bft)
05.10.2022 20:30 15,3 C 14,4 C 80 % 1020,9 hPa 0,0 l/m 10,7 km/h (2 Bft) S-SW 213 0 min 0,0 UV-I 0 W/m 11,9 C 13,1 C 16,1 km/h (3 Bft)
05.10.2022 20:33 15,2 C 14,4 C 80 % 1020,8 hPa 0,0 l/m 6,5 km/h (2 Bft) SW 233 0 min 0,0 UV-I 0 W/m 11,8 C 15,2 C 14,5 km/h (3 Bft)
05.10.2022 20:36 15,2 C 13,9 C 80 % 1021,0 hPa 0,0 l/m 10,1 km/h (2 Bft) W-SW 249 0 min 0,0 UV-I 0 W/m 11,8 C 13,3 C 29,0 km/h (5 Bft)
05.10.2022 20:39 15,1 C 13,9 C 80 % 1021,0 hPa 0,0 l/m 14,4 km/h (3 Bft) S 178 0 min 0,0 UV-I 0 W/m 11,7 C 11,5 C 25,7 km/h (4 Bft)
05.10.2022 20:42 15,1 C 13,9 C 80 % 1020,9 hPa 0,0 l/m 11,9 km/h (2 Bft) S-SW 198 0 min 0,0 UV-I 0 W/m 11,7 C 12,4 C 19,3 km/h (3 Bft)
05.10.2022 20:45 14,9 C 13,9 C 80 % 1020,9 hPa 0,0 l/m 13,1 km/h (3 Bft) S-SW 194 0 min 0,0 UV-I 0 W/m 11,5 C 11,7 C 24,1 km/h (4 Bft)
05.10.2022 20:48 14,9 C 13,9 C 80 % 1021,0 hPa 0,0 l/m 16,2 km/h (3 Bft) S-SW 196 0 min 0,0 UV-I 0 W/m 11,5 C 10,7 C 27,4 km/h (4 Bft)
05.10.2022 20:51 14,9 C 13,9 C 79 % 1021,0 hPa 0,0 l/m 13,9 km/h (3 Bft) SW 216 0 min 0,0 UV-I 0 W/m 11,3 C 11,4 C 25,7 km/h (4 Bft)
05.10.2022 20:54 14,9 C 13,9 C 79 % 1021,0 hPa 0,0 l/m 14,2 km/h (3 Bft) S 178 0 min 0,0 UV-I 0 W/m 11,3 C 11,3 C 20,9 km/h (4 Bft)
05.10.2022 20:57 14,8 C 13,9 C 79 % 1020,9 hPa 0,0 l/m 12,6 km/h (3 Bft) S-SW 206 0 min 0,0 UV-I 0 W/m 11,2 C 11,8 C 19,3 km/h (3 Bft)
05.10.2022 21:00 14,7 C 13,9 C 78 % 1020,9 hPa 0,0 l/m 13,6 km/h (3 Bft) S-SO 149 0 min 0,0 UV-I 0 W/m 10,9 C 11,3 C 24,1 km/h (4 Bft)
05.10.2022 21:03 14,7 C 13,9 C 78 % 1021,0 hPa 0,0 l/m 14,6 km/h (3 Bft) S-SW 202 0 min 0,0 UV-I 0 W/m 10,9 C 11,0 C 22,5 km/h (4 Bft)
05.10.2022 21:07 14,6 C 13,9 C 78 % 1021,2 hPa 0,0 l/m 13,6 km/h (3 Bft) S 190 0 min 0,0 UV-I 0 W/m 10,8 C 11,2 C 22,5 km/h (4 Bft)
05.10.2022 21:09 14,6 C 13,9 C 78 % 1021,1 hPa 0,0 l/m 12,4 km/h (3 Bft) S-SW 200 0 min 0,0 UV-I 0 W/m 10,8 C 11,7 C 17,7 km/h (3 Bft)
05.10.2022 21:14 14,6 C 13,9 C 78 % 1021,3 hPa 0,0 l/m 11,3 km/h (2 Bft) S-SW 204 0 min 0,0 UV-I 0 W/m 10,8 C 12,1 C 19,3 km/h (3 Bft)
05.10.2022 21:15 14,6 C 13,9 C 78 % 1021,2 hPa 0,0 l/m 13,0 km/h (3 Bft) S 182 0 min 0,0 UV-I 0 W/m 10,8 C 11,4 C 16,1 km/h (3 Bft)
05.10.2022 21:16 14,6 C 13,9 C 78 % 1021,2 hPa 0,0 l/m 10,2 km/h (2 Bft) S-SW 203 0 min 0,0 UV-I 0 W/m 10,8 C 12,6 C 12,9 km/h (3 Bft)
05.10.2022 21:17 14,6 C 13,9 C 78 % 1021,3 hPa 0,0 l/m 9,7 km/h (2 Bft) S-SW 202 0 min 0,0 UV-I 0 W/m 10,8 C 12,8 C 12,9 km/h (3 Bft)
05.10.2022 21:18 14,6 C 13,9 C 78 % 1021,3 hPa 0,0 l/m 8,0 km/h (2 Bft) S-SW 202 0 min 0,0 UV-I 0 W/m 10,8 C 13,7 C 12,9 km/h (3 Bft)
05.10.2022 21:21 14,5 C 13,9 C 78 % 1021,3 hPa 0,0 l/m 11,4 km/h (2 Bft) SW 219 0 min 0,0 UV-I 0 W/m 10,7 C 11,9 C 16,1 km/h (3 Bft)
05.10.2022 21:24 14,5 C 13,9 C 78 % 1021,3 hPa 0,0 l/m 9,1 km/h (2 Bft) S 175 0 min 0,0 UV-I 0 W/m 10,7 C 13,0 C 16,1 km/h (3 Bft)
05.10.2022 21:27 14,5 C 13,9 C 78 % 1021,3 hPa 0,0 l/m 9,7 km/h (2 Bft) S 190 0 min 0,0 UV-I 0 W/m 10,7 C 12,7 C 16,1 km/h (3 Bft)
05.10.2022 21:30 14,4 C 13,3 C 79 % 1021,4 hPa 0,0 l/m 9,9 km/h (2 Bft) S-SO 162 0 min 0,0 UV-I 0 W/m 10,8 C 12,5 C 19,3 km/h (3 Bft)
05.10.2022 21:33 14,3 C 13,3 C 79 % 1021,4 hPa 0,0 l/m 11,6 km/h (2 Bft) S 182 0 min 0,0 UV-I 0 W/m 10,7 C 11,6 C 19,3 km/h (3 Bft)
05.10.2022 21:36 14,3 C 13,9 C 79 % 1021,4 hPa 0,0 l/m 10,6 km/h (2 Bft) S 173 0 min 0,0 UV-I 0 W/m 10,7 C 12,1 C 17,7 km/h (3 Bft)
05.10.2022 21:39 14,3 C 13,3 C 79 % 1021,5 hPa 0,0 l/m 11,5 km/h (2 Bft) S-SW 202 0 min 0,0 UV-I 0 W/m 10,7 C 11,7 C 17,7 km/h (3 Bft)
05.10.2022 21:42 14,3 C 13,3 C 79 % 1021,5 hPa 0,0 l/m 11,3 km/h (2 Bft) S-SW 203 0 min 0,0 UV-I 0 W/m 10,7 C 11,8 C 19,3 km/h (3 Bft)
05.10.2022 21:45 14,3 C 13,9 C 79 % 1021,5 hPa 0,0 l/m 10,9 km/h (2 Bft) SW 221 0 min 0,0 UV-I 0 W/m 10,7 C 11,9 C 16,1 km/h (3 Bft)
05.10.2022 21:48 14,3 C 13,9 C 79 % 1021,5 hPa 0,0 l/m 11,7 km/h (2 Bft) S-SW 194 0 min 0,0 UV-I 0 W/m 10,7 C 11,6 C 19,3 km/h (3 Bft)
05.10.2022 21:51 14,3 C 13,9 C 79 % 1021,6 hPa 0,0 l/m 12,1 km/h (2 Bft) S 188 0 min 0,0 UV-I 0 W/m 10,7 C 11,4 C 22,5 km/h (4 Bft)
05.10.2022 21:54 14,3 C 13,9 C 79 % 1021,4 hPa 0,0 l/m 13,4 km/h (3 Bft) S-SW 192 0 min 0,0 UV-I 0 W/m 10,7 C 10,9 C 24,1 km/h (4 Bft)
05.10.2022 21:57 14,3 C 13,9 C 79 % 1021,5 hPa 0,0 l/m 12,1 km/h (2 Bft) S-SW 213 0 min 0,0 UV-I 0 W/m 10,7 C 11,4 C 19,3 km/h (3 Bft)
05.10.2022 22:00 14,3 C 13,9 C 79 % 1021,7 hPa 0,0 l/m 15,7 km/h (3 Bft) S 174 0 min 0,0 UV-I 0 W/m 10,7 C 10,1 C 25,7 km/h (4 Bft)
05.10.2022 22:03 14,4 C 13,9 C 79 % 1021,6 hPa 0,0 l/m 13,7 km/h (3 Bft) SW 222 0 min 0,0 UV-I 0 W/m 10,8 C 10,9 C 20,9 km/h (4 Bft)
05.10.2022 22:06 14,4 C 13,9 C 79 % 1021,9 hPa 0,0 l/m 17,0 km/h (3 Bft) S-SO 166 0 min 0,0 UV-I 0 W/m 10,8 C 9,8 C 33,8 km/h (5 Bft)
05.10.2022 22:09 14,4 C 13,9 C 78 % 1021,9 hPa 0,0 l/m 12,4 km/h (3 Bft) S-SW 202 0 min 0,0 UV-I 0 W/m 10,6 C 11,4 C 22,5 km/h (4 Bft)
05.10.2022 22:12 14,4 C 13,9 C 79 % 1021,8 hPa 0,0 l/m 16,5 km/h (3 Bft) S 177 0 min 0,0 UV-I 0 W/m 10,8 C 10,0 C 25,7 km/h (4 Bft)
05.10.2022 22:15 14,4 C 13,9 C 79 % 1021,9 hPa 0,0 l/m 18,2 km/h (3 Bft) S 178 0 min 0,0 UV-I 0 W/m 10,8 C 9,5 C 25,7 km/h (4 Bft)
05.10.2022 22:18 14,4 C 13,9 C 79 % 1021,9 hPa 0,0 l/m 13,3 km/h (3 Bft) S 173 0 min 0,0 UV-I 0 W/m 10,8 C 11,1 C 22,5 km/h (4 Bft)
05.10.2022 22:21 14,4 C 13,9 C 79 % 1022,0 hPa 0,0 l/m 15,0 km/h (3 Bft) S 188 0 min 0,0 UV-I 0 W/m 10,8 C 10,5 C 25,7 km/h (4 Bft)
05.10.2022 22:24 14,4 C 13,9 C 80 % 1022,0 hPa 0,0 l/m 12,7 km/h (3 Bft) SW 221 0 min 0,0 UV-I 0 W/m 11,0 C 11,3 C 22,5 km/h (4 Bft)
05.10.2022 22:27 14,4 C 13,9 C 80 % 1021,9 hPa 0,0 l/m 16,7 km/h (3 Bft) S-SW 202 0 min 0,0 UV-I 0 W/m 11,0 C 9,9 C 29,0 km/h (5 Bft)
05.10.2022 22:30 14,4 C 13,9 C 80 % 1022,2 hPa 0,0 l/m 16,7 km/h (3 Bft) S 169 0 min 0,0 UV-I 0 W/m 11,0 C 9,9 C 27,4 km/h (4 Bft)
05.10.2022 22:33 14,4 C 13,9 C 80 % 1022,1 hPa 0,0 l/m 19,5 km/h (3 Bft) S-SW 200 0 min 0,0 UV-I 0 W/m 11,0 C 9,1 C 29,0 km/h (5 Bft)
05.10.2022 22:36 14,4 C 13,9 C 80 % 1022,0 hPa 0,0 l/m 15,2 km/h (3 Bft) S-SW 197 0 min 0,0 UV-I 0 W/m 11,0 C 10,4 C 24,1 km/h (4 Bft)
05.10.2022 22:39 14,4 C 13,9 C 80 % 1022,5 hPa 0,0 l/m 19,9 km/h (4 Bft) S 178 0 min 0,0 UV-I 0 W/m 11,0 C 9,0 C 33,8 km/h (5 Bft)
05.10.2022 22:42 14,4 C 13,9 C 80 % 1022,0 hPa 0,0 l/m 15,4 km/h (3 Bft) SW 214 0 min 0,0 UV-I 0 W/m 11,0 C 10,3 C 27,4 km/h (4 Bft)
05.10.2022 22:45 14,4 C 13,9 C 81 % 1022,2 hPa 0,0 l/m 20,1 km/h (4 Bft) S-SW 202 0 min 0,0 UV-I 0 W/m 11,2 C 8,9 C 32,2 km/h (5 Bft)
05.10.2022 22:48 14,4 C 13,9 C 81 % 1022,1 hPa 0,0 l/m 15,7 km/h (3 Bft) S 190 0 min 0,0 UV-I 0 W/m 11,2 C 10,2 C 22,5 km/h (4 Bft)
05.10.2022 22:51 14,3 C 13,3 C 81 % 1022,1 hPa 0,0 l/m 16,6 km/h (3 Bft) S-SW 212 0 min 0,0 UV-I 0 W/m 11,1 C 9,8 C 27,4 km/h (4 Bft)
05.10.2022 22:54 14,3 C 13,3 C 82 % 1022,1 hPa 0,0 l/m 12,7 km/h (3 Bft) S 182 0 min 0,0 UV-I 0 W/m 11,3 C 11,2 C 24,1 km/h (4 Bft)
05.10.2022 22:57 14,2 C 13,3 C 82 % 1022,1 hPa 0,0 l/m 15,6 km/h (3 Bft) S 186 0 min 0,0 UV-I 0 W/m 11,2 C 10,0 C 27,4 km/h (4 Bft)
05.10.2022 23:00 14,2 C 13,3 C 82 % 1022,1 hPa 0,0 l/m 16,2 km/h (3 Bft) S-SW 198 0 min 0,0 UV-I 0 W/m 11,2 C 9,8 C 35,4 km/h (5 Bft)
05.10.2022 23:03 14,3 C 13,9 C 82 % 1022,2 hPa 0,0 l/m 20,4 km/h (4 Bft) S 178 0 min 0,0 UV-I 0 W/m 11,3 C 8,7 C 32,2 km/h (5 Bft)
05.10.2022 23:06 14,2 C 13,3 C 82 % 1022,2 hPa 0,0 l/m 18,4 km/h (3 Bft) S-SW 194 0 min 0,0 UV-I 0 W/m 11,2 C 9,2 C 33,8 km/h (5 Bft)
05.10.2022 23:09 14,2 C 13,3 C 82 % 1022,2 hPa 0,0 l/m 18,7 km/h (3 Bft) S 190 0 min 0,0 UV-I 0 W/m 11,2 C 9,1 C 29,0 km/h (5 Bft)
05.10.2022 23:12 14,3 C 13,3 C 82 % 1022,1 hPa 0,0 l/m 14,0 km/h (3 Bft) S-SW 201 0 min 0,0 UV-I 0 W/m 11,3 C 10,7 C 25,7 km/h (4 Bft)
05.10.2022 23:15 14,2 C 13,3 C 83 % 1022,1 hPa 0,0 l/m 14,0 km/h (3 Bft) SW 217 0 min 0,0 UV-I 0 W/m 11,4 C 10,6 C 20,9 km/h (4 Bft)
05.10.2022 23:18 14,3 C 13,9 C 83 % 1022,2 hPa 0,0 l/m 19,5 km/h (3 Bft) S-SW 202 0 min 0,0 UV-I 0 W/m 11,5 C 9,0 C 30,6 km/h (5 Bft)
05.10.2022 23:21 14,3 C 13,9 C 83 % 1022,2 hPa 0,0 l/m 14,2 km/h (3 Bft) SW 224 0 min 0,0 UV-I 0 W/m 11,5 C 10,6 C 25,7 km/h (4 Bft)
05.10.2022 23:24 14,3 C 13,9 C 83 % 1022,3 hPa 0,0 l/m 14,7 km/h (3 Bft) S 178 0 min 0,0 UV-I 0 W/m 11,5 C 10,4 C 24,1 km/h (4 Bft)
05.10.2022 23:27 14,3 C 13,9 C 83 % 1022,2 hPa 0,0 l/m 15,8 km/h (3 Bft) S-SW 213 0 min 0,0 UV-I 0 W/m 11,5 C 10,1 C 22,5 km/h (4 Bft)
05.10.2022 23:30 14,3 C 13,9 C 83 % 1022,3 hPa 0,0 l/m 13,7 km/h (3 Bft) S-SW 207 0 min 0,0 UV-I 0 W/m 11,5 C 10,8 C 22,5 km/h (4 Bft)
05.10.2022 23:33 14,3 C 13,9 C 83 % 1022,4 hPa 0,0 l/m 16,1 km/h (3 Bft) S 180 0 min 0,0 UV-I 0 W/m 11,5 C 10,0 C 25,7 km/h (4 Bft)
05.10.2022 23:36 14,3 C 13,9 C 83 % 1022,3 hPa 0,0 l/m 13,5 km/h (3 Bft) S 186 0 min 0,0 UV-I 0 W/m 11,5 C 10,9 C 24,1 km/h (4 Bft)
05.10.2022 23:39 14,3 C 13,9 C 83 % 1022,4 hPa 0,0 l/m 13,9 km/h (3 Bft) S-SW 205 0 min 0,0 UV-I 0 W/m 11,5 C 10,7 C 19,3 km/h (3 Bft)
05.10.2022 23:42 14,3 C 13,9 C 84 % 1022,4 hPa 0,0 l/m 14,8 km/h (3 Bft) S-SW 193 0 min 0,0 UV-I 0 W/m 11,6 C 10,4 C 27,4 km/h (4 Bft)
05.10.2022 23:45 14,3 C 13,9 C 84 % 1022,5 hPa 0,0 l/m 14,7 km/h (3 Bft) S 184 0 min 0,0 UV-I 0 W/m 11,6 C 10,4 C 25,7 km/h (4 Bft)
05.10.2022 23:48 14,3 C 13,9 C 84 % 1022,5 hPa 0,0 l/m 15,7 km/h (3 Bft) S-SW 202 0 min 0,0 UV-I 0 W/m 11,6 C 10,1 C 25,7 km/h (4 Bft)
05.10.2022 23:51 14,3 C 13,3 C 84 % 1022,5 hPa 0,0 l/m 15,1 km/h (3 Bft) S-SO 154 0 min 0,0 UV-I 0 W/m 11,6 C 10,3 C 22,5 km/h (4 Bft)
05.10.2022 23:54 14,3 C 13,3 C 85 % 1022,4 hPa 0,0 l/m 12,9 km/h (3 Bft) SW 219 0 min 0,0 UV-I 0 W/m 11,8 C 11,1 C 22,5 km/h (4 Bft)
05.10.2022 23:57 14,2 C 13,3 C 85 % 1022,4 hPa 0,0 l/m 13,2 km/h (3 Bft) SW 225 0 min 0,0 UV-I 0 W/m 11,7 C 10,9 C 24,1 km/h (4 Bft)
05.10.2022 23:58 14,2 C 13,3 C 85 % 1022,6 hPa 0,0 l/m 16,1 km/h (3 Bft) S 180 0 min 0,0 UV-I 0 W/m 11,7 C 9,9 C 30,6 km/h (5 Bft)
05.10.2022 23:59 14,2 C 13,3 C 85 % 1022,5 hPa 0,0 l/m 16,1 km/h (3 Bft) S-SW 202 0 min 0,0 UV-I 0 W/m 11,7 C 9,9 C 22,5 km/h (4 Bft)
_ Min-Zeit 00:09 00:07 17:54 16:15 - 00:00 - - - - - 00:09 03:20 00:29
Minimum _ 7,2 C 4,4 C 72 % 1017,6 hPa - 3,2 km/h (1 Bft) - - - - - 6,0 C 3,3 C 4,8 km/h (1 Bft)
_ Max-Zeit 17:30 15:12 00:00 00:00 09:15 15:48 - - 13:07 14:06 13:30 17:21 20:33 14:18
Maximum _ 17,8 C 22,2 C 93 % 1023,0 hPa 0,2 l/m 28,7 km/h
S-SW (4 Bft)
- - 4 min 3,4 UV-I 789 W/m 13,7 C 15,2 C 51,5 km/h
S (7 Bft)
Durchschnitt _ 12,9 C 13,2 C 85 % 1020,2 hPa #0,2 l/m 15,6 km/h (3 Bft) S-SW - #2:31 h 1,8 UV-I 252 W/m 10,3 C 8,8 C 25,9 km/h (4 Bft)